Time,TemperatureF,DewpointF,PressureIn,WindDirection,WindDirectionDegrees,WindSpeedMPH,WindSpeedGustMPH,Humidity,HourlyPrecipIn,Conditions,Clouds,dailyrainin,SoftwareType,DateUTC
2013-11-27 00:00:00,26.5,23.4,29.95,NNW,331,0.0,2.0,88,0.00,,---,0.01,VWS V14.01,2013-11-27 05:00:00,
2013-11-27 00:01:00,26.4,23.3,29.95,NW,305,1.0,2.0,88,0.00,,---,0.00,VWS V14.01,2013-11-27 05:01:00,
2013-11-27 00:02:00,26.4,23.3,29.95,NW,307,0.0,2.0,88,0.00,,---,0.00,VWS V14.01,2013-11-27 05:02:00,
2013-11-27 00:03:00,26.4,23.3,29.95,NW,310,0.0,2.0,88,0.00,,---,0.00,VWS V14.01,2013-11-27 05:03:00,
2013-11-27 00:04:00,26.3,23.2,29.95,NW,310,0.0,2.0,88,0.00,,---,0.00,VWS V14.01,2013-11-27 05:04:00,
2013-11-27 00:05:00,26.3,23.2,29.95,NW,311,0.0,2.0,88,0.00,,---,0.00,VWS V14.01,2013-11-27 05:05:00,
2013-11-27 00:06:00,26.3,23.5,29.95,NW,311,0.0,1.0,89,0.00,,---,0.00,VWS V14.01,2013-11-27 05:06:00,
2013-11-27 00:07:00,26.3,23.5,29.95,NW,311,0.0,1.0,89,0.00,,---,0.00,VWS V14.01,2013-11-27 05:07:00,
2013-11-27 00:08:00,26.2,23.4,29.95,NW,311,0.0,1.0,89,0.00,,---,0.00,VWS V14.01,2013-11-27 05:08:00,
2013-11-27 00:09:00,26.2,23.4,29.95,NW,311,2.0,2.0,89,0.00,,---,0.00,VWS V14.01,2013-11-27 05:09:00,
2013-11-27 00:10:00,26.2,23.4,29.95,NW,312,0.0,2.0,89,0.00,,---,0.00,VWS V14.01,2013-11-27 05:10:00,
2013-11-27 00:11:00,26.2,23.4,29.95,NW,314,0.0,1.0,89,0.00,,---,0.00,VWS V14.01,2013-11-27 05:11:00,
2013-11-27 00:12:00,26.2,23.4,29.95,NW,314,0.0,1.0,89,0.00,,---,0.00,VWS V14.01,2013-11-27 05:12:00,
2013-11-27 00:13:00,26.2,23.4,29.95,NW,314,0.0,2.0,89,0.00,,---,0.00,VWS V14.01,2013-11-27 05:13:00,
2013-11-27 00:14:00,26.1,23.3,29.95,NW,314,0.0,2.0,89,0.00,,---,0.00,VWS V14.01,2013-11-27 05:14:00,
2013-11-27 00:15:00,26.1,23.3,29.95,NW,314,0.0,2.0,89,0.00,,---,0.00,VWS V14.01,2013-11-27 05:15:00,
2013-11-27 00:16:00,26.1,23.6,29.95,NW,314,0.0,0.0,90,0.00,,---,0.00,VWS V14.01,2013-11-27 05:16:00,
2013-11-27 00:17:00,26.1,23.6,29.95,NW,314,0.0,0.0,90,0.00,,---,0.00,VWS V14.01,2013-11-27 05:17:00,
2013-11-27 00:18:00,26.1,23.6,29.95,NW,314,0.0,1.0,90,0.00,,---,0.00,VWS V14.01,2013-11-27 05:18:00,
2013-11-27 00:19:00,26.1,23.6,29.95,NW,314,0.0,1.0,90,0.00,,---,0.00,VWS V14.01,2013-11-27 05:19:00,
2013-11-27 00:20:00,26.1,23.6,29.95,NW,314,0.0,1.0,90,0.00,,---,0.00,VWS V14.01,2013-11-27 05:20:00,
2013-11-27 00:21:00,26.0,23.5,29.95,NW,314,0.0,0.0,90,0.00,,---,0.00,VWS V14.01,2013-11-27 05:21:00,
2013-11-27 00:22:00,26.0,23.5,29.95,NW,314,0.0,1.0,90,0.00,,---,0.00,VWS V14.01,2013-11-27 05:22:00,
2013-11-27 00:23:00,26.0,23.5,29.95,NW,314,0.0,1.0,90,0.00,,---,0.00,VWS V14.01,2013-11-27 05:23:00,
2013-11-27 00:24:00,26.0,23.5,29.95,NW,314,0.0,1.0,90,0.00,,---,0.00,VWS V14.01,2013-11-27 05:24:00,
2013-11-27 00:25:00,26.0,23.5,29.95,NW,314,0.0,1.0,90,0.00,,---,0.00,VWS V14.01,2013-11-27 05:25:00,
2013-11-27 00:26:00,26.0,23.5,29.95,NW,314,0.0,0.0,90,0.00,,---,0.00,VWS V14.01,2013-11-27 05:26:00,
2013-11-27 00:27:00,26.0,23.5,29.95,NW,314,0.0,1.0,90,0.00,,---,0.00,VWS V14.01,2013-11-27 05:27:00,
2013-11-27 00:28:00,25.9,23.4,29.95,NW,314,0.0,1.0,90,0.00,,---,0.00,VWS V14.01,2013-11-27 05:28:00,
2013-11-27 00:29:00,25.9,23.4,29.95,NW,314,0.0,1.0,90,0.00,,---,0.00,VWS V14.01,2013-11-27 05:29:00,
2013-11-27 00:30:00,25.9,23.4,29.95,NW,314,0.0,1.0,90,0.00,,---,0.00,VWS V14.01,2013-11-27 05:30:00,
2013-11-27 00:31:00,25.9,23.6,29.95,NW,314,0.0,0.0,91,0.00,,---,0.00,VWS V14.01,2013-11-27 05:31:00,
2013-11-27 00:32:00,25.9,23.6,29.95,NW,314,0.0,1.0,91,0.00,,---,0.00,VWS V14.01,2013-11-27 05:32:00,
2013-11-27 00:33:00,25.9,23.6,29.95,NW,314,0.0,1.0,91,0.00,,---,0.00,VWS V14.01,2013-11-27 05:33:00,
2013-11-27 00:34:00,25.9,23.4,29.95,WNW,297,0.0,1.0,90,0.00,,---,0.00,VWS V14.01,2013-11-27 05:34:00,
2013-11-27 00:35:00,25.9,23.6,29.95,WNW,295,1.0,1.0,91,0.00,,---,0.00,VWS V14.01,2013-11-27 05:35:00,
2013-11-27 00:36:00,25.9,23.6,29.95,WNW,295,0.0,1.0,91,0.00,,---,0.00,VWS V14.01,2013-11-27 05:36:00,
2013-11-27 00:37:00,25.8,23.5,29.95,WNW,295,0.0,1.0,91,0.00,,---,0.00,VWS V14.01,2013-11-27 05:37:00,
2013-11-27 00:38:00,25.8,23.5,29.95,WNW,295,0.0,1.0,91,0.00,,---,0.00,VWS V14.01,2013-11-27 05:38:00,
2013-11-27 00:39:00,25.8,23.5,29.95,WNW,295,2.0,2.0,91,0.00,,---,0.00,VWS V14.01,2013-11-27 05:39:00,
2013-11-27 00:40:00,25.8,23.5,29.95,WNW,295,0.0,2.0,91,0.00,,---,0.00,VWS V14.01,2013-11-27 05:40:00,
2013-11-27 00:41:00,25.8,23.5,29.95,WNW,295,0.0,0.0,91,0.00,,---,0.00,VWS V14.01,2013-11-27 05:41:00,
2013-11-27 00:42:00,25.8,23.5,29.95,WNW,295,0.0,0.0,91,0.00,,---,0.00,VWS V14.01,2013-11-27 05:42:00,
2013-11-27 00:43:00,25.8,23.5,29.95,WNW,295,0.0,0.0,91,0.00,,---,0.00,VWS V14.01,2013-11-27 05:43:00,
2013-11-27 00:44:00,25.8,23.5,29.95,WNW,295,0.0,0.0,91,0.00,,---,0.00,VWS V14.01,2013-11-27 05:44:00,
2013-11-27 00:45:00,25.8,23.5,29.94,WNW,295,0.0,0.0,91,0.00,,---,0.00,VWS V14.01,2013-11-27 05:45:00,
2013-11-27 00:46:00,25.8,23.5,29.94,WNW,295,0.0,1.0,91,0.00,,---,0.00,VWS V14.01,2013-11-27 05:46:00,
2013-11-27 00:47:00,25.7,23.4,29.94,WNW,295,0.0,1.0,91,0.00,,---,0.00,VWS V14.01,2013-11-27 05:47:00,
2013-11-27 00:48:00,25.7,23.7,29.94,WNW,295,0.0,1.0,92,0.00,,---,0.00,VWS V14.01,2013-11-27 05:48:00,
2013-11-27 00:49:00,25.8,23.8,29.94,WNW,295,0.0,1.0,92,0.00,,---,0.00,VWS V14.01,2013-11-27 05:49:00,
2013-11-27 00:50:00,25.7,23.7,29.94,WNW,295,0.0,1.0,92,0.00,,---,0.00,VWS V14.01,2013-11-27 05:50:00,
2013-11-27 00:51:00,25.7,23.4,29.94,WNW,295,1.0,1.0,91,0.00,,---,0.00,VWS V14.01,2013-11-27 05:51:00,
2013-11-27 00:52:00,25.7,23.4,29.94,WNW,295,0.0,1.0,91,0.00,,---,0.00,VWS V14.01,2013-11-27 05:52:00,
2013-11-27 00:53:00,25.7,23.4,29.94,North,352,0.0,3.0,91,0.00,,---,0.00,VWS V14.01,2013-11-27 05:53:00,
2013-11-27 00:54:00,25.7,23.4,29.94,NNW,335,1.0,3.0,91,0.00,,---,0.00,VWS V14.01,2013-11-27 05:54:00,
2013-11-27 00:55:00,25.7,23.7,29.94,NW,323,0.0,3.0,92,0.00,,---,0.00,VWS V14.01,2013-11-27 05:55:00,
2013-11-27 00:56:00,25.6,23.6,29.94,NW,322,0.0,2.0,92,0.00,,---,0.00,VWS V14.01,2013-11-27 05:56:00,
2013-11-27 00:57:00,25.6,23.6,29.94,NW,321,0.0,2.0,92,0.00,,---,0.00,VWS V14.01,2013-11-27 05:57:00,
2013-11-27 00:58:00,25.6,23.6,29.94,NW,321,0.0,2.0,92,0.00,,---,0.00,VWS V14.01,2013-11-27 05:58:00,
2013-11-27 00:59:00,25.6,23.6,29.94,NW,321,0.0,2.0,92,0.00,,---,0.00,VWS V14.01,2013-11-27 05:59:00,
2013-11-27 01:00:00,25.6,23.6,29.94,NW,321,0.0,2.0,92,0.00,,---,0.00,VWS V14.01,2013-11-27 06:00:00,
2013-11-27 01:01:00,25.6,23.6,29.94,NW,321,0.0,0.0,92,0.00,,---,0.00,VWS V14.01,2013-11-27 06:01:00,
2013-11-27 01:02:00,25.6,23.6,29.94,NW,321,0.0,1.0,92,0.00,,---,0.00,VWS V14.01,2013-11-27 06:02:00,
2013-11-27 01:03:00,25.6,23.6,29.94,NW,321,0.0,1.0,92,0.00,,---,0.00,VWS V14.01,2013-11-27 06:03:00,
2013-11-27 01:04:00,25.6,23.6,29.94,NW,321,0.0,1.0,92,0.00,,---,0.00,VWS V14.01,2013-11-27 06:04:00,
2013-11-27 01:05:00,25.6,23.6,29.94,NW,321,0.0,1.0,92,0.00,,---,0.00,VWS V14.01,2013-11-27 06:05:00,
2013-11-27 01:06:00,25.6,23.6,29.94,NW,323,0.0,2.0,92,0.00,,---,0.00,VWS V14.01,2013-11-27 06:06:00,
2013-11-27 01:07:00,25.5,23.5,29.94,NW,326,0.0,2.0,92,0.00,,---,0.00,VWS V14.01,2013-11-27 06:07:00,
2013-11-27 01:08:00,25.5,23.5,29.94,NW,314,1.0,2.0,92,0.00,,---,0.00,VWS V14.01,2013-11-27 06:08:00,
2013-11-27 01:09:00,25.5,23.5,29.94,NW,313,0.0,2.0,92,0.00,,---,0.00,VWS V14.01,2013-11-27 06:09:00,
2013-11-27 01:10:00,25.5,23.5,29.94,NNW,335,2.0,2.0,92,0.00,,---,0.00,VWS V14.01,2013-11-27 06:10:00,
2013-11-27 01:11:00,25.5,23.5,29.94,NNW,336,0.0,1.0,92,0.00,,---,0.00,VWS V14.01,2013-11-27 06:11:00,
2013-11-27 01:12:00,25.5,23.5,29.94,NNW,330,0.0,1.0,92,0.00,,---,0.00,VWS V14.01,2013-11-27 06:12:00,
2013-11-27 01:13:00,25.4,23.4,29.94,NNW,329,0.0,1.0,92,0.00,,---,0.00,VWS V14.01,2013-11-27 06:13:00,
2013-11-27 01:14:00,25.4,23.4,29.94,NW,326,2.0,4.0,92,0.00,,---,0.00,VWS V14.01,2013-11-27 06:14:00,
2013-11-27 01:15:00,25.4,23.4,29.94,NW,304,0.0,4.0,92,0.00,,---,0.00,VWS V14.01,2013-11-27 06:15:00,
2013-11-27 01:16:00,25.4,23.4,29.94,NW,307,0.0,1.0,92,0.00,,---,0.00,VWS V14.01,2013-11-27 06:16:00,
2013-11-27 01:17:00,25.4,23.4,29.94,NW,309,1.0,2.0,92,0.00,,---,0.00,VWS V14.01,2013-11-27 06:17:00,
2013-11-27 01:18:00,25.3,23.3,29.94,WNW,293,1.0,4.0,92,0.00,,---,0.00,VWS V14.01,2013-11-27 06:18:00,
2013-11-27 01:19:00,25.3,23.3,29.94,WNW,293,1.0,4.0,92,0.00,,---,0.00,VWS V14.01,2013-11-27 06:19:00,
2013-11-27 01:20:00,25.3,23.3,29.94,WNW,293,1.0,4.0,92,0.00,,---,0.00,VWS V14.01,2013-11-27 06:20:00,
2013-11-27 01:21:00,25.3,23.3,29.94,WNW,297,2.0,3.0,92,0.00,,---,0.00,VWS V14.01,2013-11-27 06:21:00,
2013-11-27 01:22:00,25.3,23.3,29.94,NW,319,3.0,3.0,92,0.00,,---,0.00,VWS V14.01,2013-11-27 06:22:00,
2013-11-27 01:23:00,25.3,23.3,29.94,NW,321,0.0,3.0,92,0.00,,---,0.00,VWS V14.01,2013-11-27 06:23:00,
2013-11-27 01:24:00,25.2,23.2,29.94,NW,323,0.0,3.0,92,0.00,,---,0.00,VWS V14.01,2013-11-27 06:24:00,
2013-11-27 01:25:00,25.2,23.2,29.94,NW,314,0.0,3.0,92,0.00,,---,0.00,VWS V14.01,2013-11-27 06:25:00,
2013-11-27 01:26:00,25.2,23.2,29.94,NW,309,0.0,3.0,92,0.00,,---,0.00,VWS V14.01,2013-11-27 06:26:00,
2013-11-27 01:27:00,25.2,23.2,29.94,NNW,331,2.0,3.0,92,0.00,,---,0.00,VWS V14.01,2013-11-27 06:27:00,
2013-11-27 01:28:00,25.1,23.1,29.94,NW,314,1.0,3.0,92,0.00,,---,0.00,VWS V14.01,2013-11-27 06:28:00,
2013-11-27 01:29:00,25.1,23.1,29.94,NW,314,0.0,3.0,92,0.00,,---,0.00,VWS V14.01,2013-11-27 06:29:00,
2013-11-27 01:30:00,25.1,23.1,29.94,NW,314,0.0,3.0,92,0.00,,---,0.00,VWS V14.01,2013-11-27 06:30:00,
2013-11-27 01:31:00,25.1,23.1,29.94,NW,314,0.0,0.0,92,0.00,,---,0.00,VWS V14.01,2013-11-27 06:31:00,
2013-11-27 01:32:00,25.1,23.1,29.94,NW,316,1.0,3.0,92,0.00,,---,0.00,VWS V14.01,2013-11-27 06:32:00,
2013-11-27 01:33:00,25.1,23.1,29.94,NW,314,0.0,3.0,92,0.00,,---,0.00,VWS V14.01,2013-11-27 06:33:00,
2013-11-27 01:34:00,25.0,23.0,29.94,NW,314,0.0,3.0,92,0.00,,---,0.00,VWS V14.01,2013-11-27 06:34:00,
2013-11-27 01:35:00,25.0,23.0,29.94,NW,306,0.0,3.0,92,0.00,,---,0.00,VWS V14.01,2013-11-27 06:35:00,
2013-11-27 01:36:00,25.0,23.0,29.94,NW,306,0.0,3.0,92,0.00,,---,0.00,VWS V14.01,2013-11-27 06:36:00,
2013-11-27 01:37:00,24.9,22.9,29.94,NW,321,0.0,4.0,92,0.00,,---,0.00,VWS V14.01,2013-11-27 06:37:00,
2013-11-27 01:38:00,24.9,22.9,29.94,NW,316,1.0,4.0,92,0.00,,---,0.00,VWS V14.01,2013-11-27 06:38:00,
2013-11-27 01:39:00,24.9,22.9,29.94,NW,316,0.0,4.0,92,0.00,,---,0.00,VWS V14.01,2013-11-27 06:39:00,
2013-11-27 01:40:00,24.9,22.9,29.94,NW,316,0.0,4.0,92,0.00,,---,0.00,VWS V14.01,2013-11-27 06:40:00,
2013-11-27 01:41:00,24.8,22.8,29.94,NW,316,0.0,0.0,92,0.00,,---,0.00,VWS V14.01,2013-11-27 06:41:00,
2013-11-27 01:42:00,24.8,22.8,29.94,NW,316,0.0,0.0,92,0.00,,---,0.00,VWS V14.01,2013-11-27 06:42:00,
2013-11-27 01:43:00,24.8,22.8,29.94,NW,319,0.0,0.0,92,0.00,,---,0.00,VWS V14.01,2013-11-27 06:43:00,
2013-11-27 01:44:00,24.8,22.8,29.94,NW,314,0.0,2.0,92,0.00,,---,0.00,VWS V14.01,2013-11-27 06:44:00,
2013-11-27 01:45:00,24.8,22.8,29.94,NW,314,0.0,2.0,92,0.00,,---,0.00,VWS V14.01,2013-11-27 06:45:00,
2013-11-27 01:46:00,24.7,22.7,29.94,NW,314,0.0,1.0,92,0.00,,---,0.00,VWS V14.01,2013-11-27 06:46:00,
2013-11-27 01:47:00,24.7,22.7,29.94,NW,314,0.0,1.0,92,0.00,,---,0.00,VWS V14.01,2013-11-27 06:47:00,
2013-11-27 01:48:00,24.7,22.7,29.94,NW,314,0.0,1.0,92,0.00,,---,0.00,VWS V14.01,2013-11-27 06:48:00,
2013-11-27 01:49:00,24.7,22.7,29.94,NW,314,0.0,1.0,92,0.00,,---,0.00,VWS V14.01,2013-11-27 06:49:00,
2013-11-27 01:50:00,24.6,22.4,29.94,NW,314,0.0,1.0,91,0.00,,---,0.00,VWS V14.01,2013-11-27 06:50:00,
2013-11-27 01:51:00,24.6,22.4,29.94,NW,314,0.0,0.0,91,0.00,,---,0.00,VWS V14.01,2013-11-27 06:51:00,
2013-11-27 01:52:00,24.6,22.4,29.94,NW,314,0.0,0.0,91,0.00,,---,0.00,VWS V14.01,2013-11-27 06:52:00,
2013-11-27 01:53:00,24.5,22.2,29.94,NW,314,0.0,1.0,91,0.00,,---,0.00,VWS V14.01,2013-11-27 06:53:00,
2013-11-27 01:54:00,24.5,22.2,29.94,NW,314,0.0,1.0,91,0.00,,---,0.00,VWS V14.01,2013-11-27 06:54:00,
2013-11-27 01:55:00,24.5,22.2,29.94,NW,314,0.0,1.0,91,0.00,,---,0.00,VWS V14.01,2013-11-27 06:55:00,
2013-11-27 01:56:00,24.5,22.2,29.94,NW,314,0.0,0.0,91,0.00,,---,0.00,VWS V14.01,2013-11-27 06:56:00,
2013-11-27 01:57:00,24.5,22.2,29.94,NW,314,0.0,0.0,91,0.00,,---,0.00,VWS V14.01,2013-11-27 06:57:00,
2013-11-27 01:58:00,24.4,22.2,29.94,NW,314,0.0,0.0,91,0.00,,---,0.00,VWS V14.01,2013-11-27 06:58:00,
2013-11-27 01:59:00,24.4,22.2,29.94,NW,314,0.0,0.0,91,0.00,,---,0.00,VWS V14.01,2013-11-27 06:59:00,
2013-11-27 02:00:00,24.4,22.2,29.95,NW,314,0.0,1.0,91,0.00,,---,0.00,VWS V14.01,2013-11-27 07:00:00,
2013-11-27 02:01:00,24.4,22.2,29.95,NW,314,0.0,0.0,91,0.00,,---,0.00,VWS V14.01,2013-11-27 07:01:00,
2013-11-27 02:02:00,24.4,22.4,29.95,NW,314,0.0,0.0,92,0.00,,---,0.00,VWS V14.01,2013-11-27 07:02:00,
2013-11-27 02:03:00,24.4,22.4,29.95,NW,314,0.0,1.0,92,0.00,,---,0.00,VWS V14.01,2013-11-27 07:03:00,
2013-11-27 02:04:00,24.4,22.4,29.95,NW,314,0.0,1.0,92,0.00,,---,0.00,VWS V14.01,2013-11-27 07:04:00,
2013-11-27 02:05:00,24.4,22.4,29.95,NW,314,0.0,1.0,92,0.00,,---,0.00,VWS V14.01,2013-11-27 07:05:00,
2013-11-27 02:06:00,24.3,22.3,29.95,NW,314,0.0,1.0,92,0.00,,---,0.00,VWS V14.01,2013-11-27 07:06:00,
2013-11-27 02:07:00,24.3,22.3,29.95,NW,314,0.0,1.0,92,0.00,,---,0.00,VWS V14.01,2013-11-27 07:07:00,
2013-11-27 02:08:00,24.3,22.3,29.95,NW,314,0.0,1.0,92,0.00,,---,0.00,VWS V14.01,2013-11-27 07:08:00,
2013-11-27 02:09:00,24.3,22.3,29.95,NW,314,0.0,1.0,92,0.00,,---,0.00,VWS V14.01,2013-11-27 07:09:00,
2013-11-27 02:10:00,24.3,22.3,29.95,NW,314,0.0,1.0,92,0.00,,---,0.00,VWS V14.01,2013-11-27 07:10:00,
2013-11-27 02:11:00,24.3,22.3,29.95,NW,314,0.0,1.0,92,0.00,,---,0.00,VWS V14.01,2013-11-27 07:11:00,
2013-11-27 02:12:00,24.3,22.3,29.95,NW,314,0.0,1.0,92,0.00,,---,0.00,VWS V14.01,2013-11-27 07:12:00,
2013-11-27 02:13:00,24.3,22.3,29.95,NW,314,0.0,1.0,92,0.00,,---,0.00,VWS V14.01,2013-11-27 07:13:00,
2013-11-27 02:14:00,24.3,22.3,29.95,NW,314,0.0,1.0,92,0.00,,---,0.00,VWS V14.01,2013-11-27 07:14:00,
2013-11-27 02:15:00,24.3,22.3,29.95,NW,314,0.0,1.0,92,0.00,,---,0.00,VWS V14.01,2013-11-27 07:15:00,
2013-11-27 02:16:00,24.3,22.3,29.95,NW,313,0.0,1.0,92,0.00,,---,0.00,VWS V14.01,2013-11-27 07:16:00,
2013-11-27 02:17:00,24.2,22.2,29.95,NW,313,0.0,1.0,92,0.00,,---,0.00,VWS V14.01,2013-11-27 07:17:00,
2013-11-27 02:18:00,24.3,22.3,29.95,NW,318,2.0,2.0,92,0.00,,---,0.00,VWS V14.01,2013-11-27 07:18:00,
2013-11-27 02:19:00,24.3,22.3,29.95,WNW,297,3.0,3.0,92,0.00,,---,0.00,VWS V14.01,2013-11-27 07:19:00,
2013-11-27 02:20:00,24.3,22.3,29.95,WNW,298,0.0,3.0,92,0.00,,---,0.00,VWS V14.01,2013-11-27 07:20:00,
2013-11-27 02:21:00,24.3,22.3,29.95,WNW,297,0.0,1.0,92,0.00,,---,0.00,VWS V14.01,2013-11-27 07:21:00,
2013-11-27 02:22:00,24.3,22.3,29.95,WNW,297,0.0,1.0,92,0.00,,---,0.00,VWS V14.01,2013-11-27 07:22:00,
2013-11-27 02:23:00,24.3,22.3,29.95,WNW,303,0.0,1.0,92,0.00,,---,0.00,VWS V14.01,2013-11-27 07:23:00,
2013-11-27 02:24:00,24.3,22.3,29.95,NW,305,0.0,1.0,92,0.00,,---,0.00,VWS V14.01,2013-11-27 07:24:00,
2013-11-27 02:25:00,24.3,22.3,29.95,NW,305,0.0,1.0,92,0.00,,---,0.00,VWS V14.01,2013-11-27 07:25:00,
2013-11-27 02:26:00,24.3,22.3,29.95,NW,305,0.0,0.0,92,0.00,,---,0.00,VWS V14.01,2013-11-27 07:26:00,
2013-11-27 02:27:00,24.3,22.3,29.95,NW,305,0.0,0.0,92,0.00,,---,0.00,VWS V14.01,2013-11-27 07:27:00,
2013-11-27 02:28:00,24.4,22.4,29.95,NW,305,1.0,1.0,92,0.00,,---,0.00,VWS V14.01,2013-11-27 07:28:00,
2013-11-27 02:29:00,24.4,22.4,29.95,NW,305,0.0,1.0,92,0.00,,---,0.00,VWS V14.01,2013-11-27 07:29:00,
2013-11-27 02:30:00,24.4,22.4,29.95,NW,305,0.0,1.0,92,0.00,,---,0.00,VWS V14.01,2013-11-27 07:30:00,
2013-11-27 02:31:00,24.4,22.4,29.95,NW,305,0.0,0.0,92,0.00,,---,0.00,VWS V14.01,2013-11-27 07:31:00,
2013-11-27 02:32:00,24.4,22.4,29.95,NW,305,0.0,0.0,92,0.00,,---,0.00,VWS V14.01,2013-11-27 07:32:00,
2013-11-27 02:33:00,24.4,22.4,29.95,West,277,0.0,3.0,92,0.00,,---,0.00,VWS V14.01,2013-11-27 07:33:00,
2013-11-27 02:34:00,24.4,22.4,29.95,WNW,297,0.0,3.0,92,0.00,,---,0.00,VWS V14.01,2013-11-27 07:34:00,
2013-11-27 02:35:00,24.4,22.4,29.95,NW,314,0.0,3.0,92,0.00,,---,0.00,VWS V14.01,2013-11-27 07:35:00,
2013-11-27 02:36:00,24.5,22.2,29.95,NW,315,0.0,0.0,91,0.00,,---,0.00,VWS V14.01,2013-11-27 07:36:00,
2013-11-27 02:37:00,24.4,22.2,29.95,NW,321,0.0,4.0,91,0.00,,---,0.00,VWS V14.01,2013-11-27 07:37:00,
2013-11-27 02:38:00,24.4,22.2,29.95,NNW,338,0.0,4.0,91,0.00,,---,0.00,VWS V14.01,2013-11-27 07:38:00,
2013-11-27 02:39:00,24.4,22.2,29.95,NNW,345,0.0,4.0,91,0.00,,---,0.00,VWS V14.01,2013-11-27 07:39:00,
2013-11-27 02:40:00,24.4,22.2,29.95,WNW,296,0.0,4.0,91,0.00,,---,0.00,VWS V14.01,2013-11-27 07:40:00,
2013-11-27 02:41:00,24.4,21.9,29.95,WNW,296,0.0,0.0,90,0.00,,---,0.00,VWS V14.01,2013-11-27 07:41:00,
2013-11-27 02:42:00,24.4,21.9,29.95,WNW,300,0.0,1.0,90,0.00,,---,0.00,VWS V14.01,2013-11-27 07:42:00,
2013-11-27 02:43:00,24.4,21.9,29.95,North,1,0.0,3.0,90,0.00,,---,0.00,VWS V14.01,2013-11-27 07:43:00,
2013-11-27 02:44:00,24.4,21.9,29.95,North,1,0.0,3.0,90,0.00,,---,0.00,VWS V14.01,2013-11-27 07:44:00,
2013-11-27 02:45:00,24.4,21.6,29.95,NW,326,0.0,3.0,89,0.00,,---,0.00,VWS V14.01,2013-11-27 07:45:00,
2013-11-27 02:46:00,24.3,21.5,29.95,NW,326,0.0,0.0,89,0.00,,---,0.00,VWS V14.01,2013-11-27 07:46:00,
2013-11-27 02:47:00,24.3,21.5,29.95,NW,326,0.0,1.0,89,0.00,,---,0.00,VWS V14.01,2013-11-27 07:47:00,
2013-11-27 02:48:00,24.3,21.5,29.95,NW,326,0.0,1.0,89,0.00,,---,0.00,VWS V14.01,2013-11-27 07:48:00,
2013-11-27 02:49:00,24.3,21.3,29.95,NW,323,3.0,3.0,88,0.00,,---,0.00,VWS V14.01,2013-11-27 07:49:00,
2013-11-27 02:50:00,24.2,21.2,29.95,NNW,329,0.0,3.0,88,0.00,,---,0.00,VWS V14.01,2013-11-27 07:50:00,
2013-11-27 02:51:00,24.2,21.2,29.95,NNW,328,0.0,1.0,88,0.00,,---,0.00,VWS V14.01,2013-11-27 07:51:00,
2013-11-27 02:52:00,24.2,21.2,29.95,NNW,330,1.0,2.0,88,0.00,,---,0.00,VWS V14.01,2013-11-27 07:52:00,
2013-11-27 02:53:00,24.2,21.2,29.95,North,0,0.0,3.0,88,0.00,,---,0.00,VWS V14.01,2013-11-27 07:53:00,
2013-11-27 02:54:00,24.2,21.2,29.95,North,356,0.0,3.0,88,0.00,,---,0.00,VWS V14.01,2013-11-27 07:54:00,
2013-11-27 02:55:00,24.2,21.2,29.95,NW,314,1.0,4.0,88,0.00,,---,0.00,VWS V14.01,2013-11-27 07:55:00,
2013-11-27 02:56:00,24.2,20.9,29.95,NNW,338,0.0,2.0,87,0.00,,---,0.00,VWS V14.01,2013-11-27 07:56:00,
2013-11-27 02:57:00,24.2,20.9,29.95,NNW,337,2.0,2.0,87,0.00,,---,0.00,VWS V14.01,2013-11-27 07:57:00,
2013-11-27 02:58:00,24.2,20.9,29.95,NNW,336,0.0,2.0,87,0.00,,---,0.00,VWS V14.01,2013-11-27 07:58:00,
2013-11-27 02:59:00,24.2,20.9,29.95,NW,314,2.0,2.0,87,0.00,,---,0.00,VWS V14.01,2013-11-27 07:59:00,
2013-11-27 03:00:00,24.1,20.8,29.95,NW,326,0.0,2.0,87,0.00,,---,0.00,VWS V14.01,2013-11-27 08:00:00,
2013-11-27 03:01:00,24.2,20.9,29.95,NW,326,0.0,0.0,87,0.00,,---,0.00,VWS V14.01,2013-11-27 08:01:00,
2013-11-27 03:02:00,24.2,20.9,29.95,NNW,328,0.0,2.0,87,0.00,,---,0.00,VWS V14.01,2013-11-27 08:02:00,
2013-11-27 03:03:00,24.1,20.8,29.95,NNW,327,0.0,2.0,87,0.00,,---,0.00,VWS V14.01,2013-11-27 08:03:00,
2013-11-27 03:04:00,24.1,20.5,29.95,NNW,328,0.0,2.0,86,0.00,,---,0.00,VWS V14.01,2013-11-27 08:04:00,
2013-11-27 03:05:00,24.1,20.5,29.95,NNW,328,0.0,2.0,86,0.00,,---,0.00,VWS V14.01,2013-11-27 08:05:00,
2013-11-27 03:06:00,24.1,20.5,29.95,NNW,328,1.0,1.0,86,0.00,,---,0.00,VWS V14.01,2013-11-27 08:06:00,
2013-11-27 03:07:00,24.1,20.5,29.95,NNW,328,0.0,1.0,86,0.00,,---,0.00,VWS V14.01,2013-11-27 08:07:00,
2013-11-27 03:08:00,24.1,20.5,29.95,NW,315,0.0,1.0,86,0.00,,---,0.00,VWS V14.01,2013-11-27 08:08:00,
2013-11-27 03:09:00,24.1,20.5,29.95,WNW,299,0.0,2.0,86,0.00,,---,0.00,VWS V14.01,2013-11-27 08:09:00,
2013-11-27 03:10:00,24.1,20.5,29.95,NW,319,1.0,2.0,86,0.00,,---,0.00,VWS V14.01,2013-11-27 08:10:00,
2013-11-27 03:11:00,24.1,20.5,29.95,NW,306,1.0,2.0,86,0.00,,---,0.00,VWS V14.01,2013-11-27 08:11:00,
2013-11-27 03:12:00,24.1,20.5,29.95,NW,314,3.0,3.0,86,0.00,,---,0.00,VWS V14.01,2013-11-27 08:12:00,
2013-11-27 03:13:00,24.1,20.5,29.95,WNW,302,0.0,5.0,86,0.00,,---,0.00,VWS V14.01,2013-11-27 08:13:00,
2013-11-27 03:14:00,24.1,20.5,29.95,NW,314,1.0,5.0,86,0.00,,---,0.00,VWS V14.01,2013-11-27 08:14:00,
2013-11-27 03:15:00,24.1,20.2,29.95,NW,313,0.0,5.0,85,0.00,,---,0.00,VWS V14.01,2013-11-27 08:15:00,
2013-11-27 03:16:00,24.1,20.2,29.95,NW,313,0.0,0.0,85,0.00,,---,0.00,VWS V14.01,2013-11-27 08:16:00,
2013-11-27 03:17:00,24.1,20.2,29.95,NW,308,0.0,1.0,85,0.00,,---,0.00,VWS V14.01,2013-11-27 08:17:00,
2013-11-27 03:18:00,24.1,20.2,29.95,North,1,0.0,1.0,85,0.00,,---,0.00,VWS V14.01,2013-11-27 08:18:00,
2013-11-27 03:19:00,24.1,20.5,29.95,North,1,0.0,1.0,86,0.00,,---,0.00,VWS V14.01,2013-11-27 08:19:00,
2013-11-27 03:20:00,24.1,20.2,29.95,North,0,1.0,1.0,85,0.00,,---,0.00,VWS V14.01,2013-11-27 08:20:00,
2013-11-27 03:21:00,24.1,20.2,29.95,North,359,0.0,1.0,85,0.00,,---,0.00,VWS V14.01,2013-11-27 08:21:00,
2013-11-27 03:22:00,24.1,20.2,29.95,North,359,0.0,1.0,85,0.00,,---,0.00,VWS V14.01,2013-11-27 08:22:00,
2013-11-27 03:23:00,24.1,20.2,29.95,North,359,0.0,1.0,85,0.00,,---,0.00,VWS V14.01,2013-11-27 08:23:00,
2013-11-27 03:24:00,24.1,20.2,29.95,North,359,0.0,1.0,85,0.00,,---,0.00,VWS V14.01,2013-11-27 08:24:00,
2013-11-27 03:25:00,24.2,20.4,29.95,North,359,0.0,1.0,85,0.00,,---,0.00,VWS V14.01,2013-11-27 08:25:00,
2013-11-27 03:26:00,24.1,20.2,29.95,North,359,0.0,0.0,85,0.00,,---,0.00,VWS V14.01,2013-11-27 08:26:00,
2013-11-27 03:27:00,24.1,20.2,29.95,North,359,0.0,0.0,85,0.00,,---,0.00,VWS V14.01,2013-11-27 08:27:00,
2013-11-27 03:28:00,24.1,20.2,29.95,NNW,333,0.0,1.0,85,0.00,,---,0.00,VWS V14.01,2013-11-27 08:28:00,
2013-11-27 03:29:00,24.1,20.2,29.95,NNW,333,0.0,1.0,85,0.00,,---,0.00,VWS V14.01,2013-11-27 08:29:00,
2013-11-27 03:30:00,24.1,20.2,29.95,NNW,340,0.0,1.0,85,0.00,,---,0.00,VWS V14.01,2013-11-27 08:30:00,
2013-11-27 03:31:00,24.1,20.2,29.95,NNW,340,0.0,0.0,85,0.00,,---,0.00,VWS V14.01,2013-11-27 08:31:00,
2013-11-27 03:32:00,24.1,20.2,29.95,NNW,340,0.0,0.0,85,0.00,,---,0.00,VWS V14.01,2013-11-27 08:32:00,
2013-11-27 03:33:00,24.1,20.2,29.95,NNW,340,0.0,0.0,85,0.00,,---,0.00,VWS V14.01,2013-11-27 08:33:00,
2013-11-27 03:34:00,24.1,20.2,29.95,NNW,346,0.0,1.0,85,0.00,,---,0.00,VWS V14.01,2013-11-27 08:34:00,
2013-11-27 03:35:00,24.1,20.2,29.95,NNW,346,0.0,1.0,85,0.00,,---,0.00,VWS V14.01,2013-11-27 08:35:00,
2013-11-27 03:36:00,24.1,20.2,29.95,NNW,346,0.0,0.0,85,0.00,,---,0.00,VWS V14.01,2013-11-27 08:36:00,
2013-11-27 03:37:00,24.1,20.2,29.95,NW,316,0.0,1.0,85,0.00,,---,0.00,VWS V14.01,2013-11-27 08:37:00,
2013-11-27 03:38:00,24.1,20.2,29.95,NW,316,0.0,1.0,85,0.00,,---,0.00,VWS V14.01,2013-11-27 08:38:00,
2013-11-27 03:39:00,24.0,20.1,29.95,NW,323,0.0,1.0,85,0.00,,---,0.00,VWS V14.01,2013-11-27 08:39:00,
2013-11-27 03:40:00,24.0,19.9,29.95,NW,323,0.0,1.0,84,0.00,,---,0.00,VWS V14.01,2013-11-27 08:40:00,
2013-11-27 03:41:00,24.0,19.9,29.95,NW,323,0.0,0.0,84,0.00,,---,0.00,VWS V14.01,2013-11-27 08:41:00,
2013-11-27 03:42:00,24.0,19.9,29.95,NW,323,0.0,0.0,84,0.00,,---,0.00,VWS V14.01,2013-11-27 08:42:00,
2013-11-27 03:43:00,24.0,19.9,29.95,NW,323,0.0,1.0,84,0.00,,---,0.00,VWS V14.01,2013-11-27 08:43:00,
2013-11-27 03:44:00,24.0,19.9,29.95,NW,323,0.0,1.0,84,0.00,,---,0.00,VWS V14.01,2013-11-27 08:44:00,
2013-11-27 03:45:00,24.0,19.9,29.95,NW,323,1.0,1.0,84,0.00,,---,0.00,VWS V14.01,2013-11-27 08:45:00,
2013-11-27 03:46:00,24.0,19.9,29.95,NW,322,0.0,1.0,84,0.00,,---,0.00,VWS V14.01,2013-11-27 08:46:00,
2013-11-27 03:47:00,24.0,19.9,29.95,NW,322,1.0,1.0,84,0.00,,---,0.00,VWS V14.01,2013-11-27 08:47:00,
2013-11-27 03:48:00,24.0,19.9,29.95,NW,322,0.0,1.0,84,0.00,,---,0.00,VWS V14.01,2013-11-27 08:48:00,
2013-11-27 03:49:00,24.0,19.9,29.95,NW,322,1.0,1.0,84,0.00,,---,0.00,VWS V14.01,2013-11-27 08:49:00,
2013-11-27 03:50:00,24.0,19.9,29.95,NW,322,0.0,1.0,84,0.00,,---,0.00,VWS V14.01,2013-11-27 08:50:00,
2013-11-27 03:51:00,23.9,19.8,29.95,NW,322,0.0,0.0,84,0.00,,---,0.00,VWS V14.01,2013-11-27 08:51:00,
2013-11-27 03:52:00,24.0,19.9,29.95,NW,322,0.0,0.0,84,0.00,,---,0.00,VWS V14.01,2013-11-27 08:52:00,
2013-11-27 03:53:00,24.0,19.9,29.95,NNW,327,0.0,1.0,84,0.00,,---,0.00,VWS V14.01,2013-11-27 08:53:00,
2013-11-27 03:54:00,24.0,19.9,29.95,NNW,327,0.0,1.0,84,0.00,,---,0.00,VWS V14.01,2013-11-27 08:54:00,
2013-11-27 03:55:00,24.0,19.9,29.95,NNW,327,0.0,1.0,84,0.00,,---,0.00,VWS V14.01,2013-11-27 08:55:00,
2013-11-27 03:56:00,24.0,19.9,29.95,NNW,327,0.0,0.0,84,0.00,,---,0.00,VWS V14.01,2013-11-27 08:56:00,
2013-11-27 03:57:00,23.9,19.8,29.95,NNW,327,0.0,0.0,84,0.00,,---,0.00,VWS V14.01,2013-11-27 08:57:00,
2013-11-27 03:58:00,23.9,19.8,29.95,NNW,327,0.0,0.0,84,0.00,,---,0.00,VWS V14.01,2013-11-27 08:58:00,
2013-11-27 03:59:00,23.9,19.8,29.95,NNW,327,0.0,0.0,84,0.00,,---,0.00,VWS V14.01,2013-11-27 08:59:00,
2013-11-27 04:00:00,24.0,19.9,29.96,NNW,327,0.0,0.0,84,0.00,,---,0.00,VWS V14.01,2013-11-27 09:00:00,
2013-11-27 04:01:00,23.9,19.8,29.96,NNW,327,0.0,1.0,84,0.00,,---,0.00,VWS V14.01,2013-11-27 09:01:00,
2013-11-27 04:02:00,23.9,19.5,29.96,NNW,327,0.0,1.0,83,0.00,,---,0.00,VWS V14.01,2013-11-27 09:02:00,
2013-11-27 04:03:00,23.9,19.5,29.96,NNW,327,0.0,1.0,83,0.00,,---,0.00,VWS V14.01,2013-11-27 09:03:00,
2013-11-27 04:04:00,23.9,19.5,29.96,NW,309,2.0,2.0,83,0.00,,---,0.00,VWS V14.01,2013-11-27 09:04:00,
2013-11-27 04:05:00,23.9,19.5,29.96,WNW,297,0.0,2.0,83,0.00,,---,0.00,VWS V14.01,2013-11-27 09:05:00,
2013-11-27 04:06:00,23.9,19.5,29.96,NW,308,0.0,1.0,83,0.00,,---,0.00,VWS V14.01,2013-11-27 09:06:00,
2013-11-27 04:07:00,23.9,19.5,29.96,NW,308,0.0,1.0,83,0.00,,---,0.00,VWS V14.01,2013-11-27 09:07:00,
2013-11-27 04:08:00,23.9,19.5,29.96,NW,309,0.0,1.0,83,0.00,,---,0.00,VWS V14.01,2013-11-27 09:08:00,
2013-11-27 04:09:00,23.9,19.5,29.96,NW,309,0.0,1.0,83,0.00,,---,0.00,VWS V14.01,2013-11-27 09:09:00,
2013-11-27 04:10:00,23.9,19.5,29.96,NW,314,0.0,1.0,83,0.00,,---,0.00,VWS V14.01,2013-11-27 09:10:00,
2013-11-27 04:11:00,23.9,19.5,29.96,NW,314,0.0,0.0,83,0.00,,---,0.00,VWS V14.01,2013-11-27 09:11:00,
2013-11-27 04:12:00,23.9,19.5,29.96,NW,314,0.0,1.0,83,0.00,,---,0.00,VWS V14.01,2013-11-27 09:12:00,
2013-11-27 04:13:00,23.9,19.5,29.96,North,357,0.0,2.0,83,0.00,,---,0.00,VWS V14.01,2013-11-27 09:13:00,
2013-11-27 04:14:00,23.9,19.5,29.96,North,357,0.0,2.0,83,0.00,,---,0.00,VWS V14.01,2013-11-27 09:14:00,
2013-11-27 04:15:00,23.9,19.5,29.97,NNW,333,0.0,2.0,83,0.00,,---,0.00,VWS V14.01,2013-11-27 09:15:00,
2013-11-27 04:16:00,23.9,19.5,29.97,ENE,60,0.0,4.0,83,0.00,,---,0.00,VWS V14.01,2013-11-27 09:16:00,
2013-11-27 04:17:00,23.8,19.4,29.97,NW,314,0.0,4.0,83,0.00,,---,0.00,VWS V14.01,2013-11-27 09:17:00,
2013-11-27 04:18:00,23.9,19.2,29.97,NW,314,0.0,4.0,82,0.00,,---,0.00,VWS V14.01,2013-11-27 09:18:00,
2013-11-27 04:19:00,23.8,19.1,29.97,NNW,337,0.0,4.0,82,0.00,,---,0.00,VWS V14.01,2013-11-27 09:19:00,
2013-11-27 04:20:00,23.8,19.1,29.97,WNW,283,1.0,5.0,82,0.00,,---,0.00,VWS V14.01,2013-11-27 09:20:00,
2013-11-27 04:21:00,23.8,19.1,29.97,NW,325,0.0,2.0,82,0.00,,---,0.00,VWS V14.01,2013-11-27 09:21:00,
2013-11-27 04:22:00,23.8,19.1,29.97,NW,325,0.0,2.0,82,0.00,,---,0.00,VWS V14.01,2013-11-27 09:22:00,
2013-11-27 04:23:00,23.8,19.1,29.97,NW,325,1.0,2.0,82,0.00,,---,0.00,VWS V14.01,2013-11-27 09:23:00,
2013-11-27 04:24:00,23.8,19.1,29.97,NW,320,0.0,2.0,82,0.00,,---,0.00,VWS V14.01,2013-11-27 09:24:00,
2013-11-27 04:25:00,23.8,19.1,29.97,NW,321,0.0,2.0,82,0.00,,---,0.00,VWS V14.01,2013-11-27 09:25:00,
2013-11-27 04:26:00,23.8,19.1,29.97,NW,321,0.0,0.0,82,0.00,,---,0.00,VWS V14.01,2013-11-27 09:26:00,
2013-11-27 04:27:00,23.8,19.1,29.97,NW,322,0.0,0.0,82,0.00,,---,0.00,VWS V14.01,2013-11-27 09:27:00,
2013-11-27 04:28:00,23.8,19.1,29.97,NW,322,0.0,0.0,82,0.00,,---,0.00,VWS V14.01,2013-11-27 09:28:00,
2013-11-27 04:29:00,23.8,19.1,29.97,NW,322,0.0,0.0,82,0.00,,---,0.00,VWS V14.01,2013-11-27 09:29:00,
2013-11-27 04:30:00,23.8,19.1,29.97,NW,322,0.0,1.0,82,0.00,,---,0.00,VWS V14.01,2013-11-27 09:30:00,
2013-11-27 04:31:00,23.8,19.1,29.97,NW,322,0.0,0.0,82,0.00,,---,0.00,VWS V14.01,2013-11-27 09:31:00,
2013-11-27 04:32:00,23.8,19.1,29.97,NW,323,2.0,2.0,82,0.00,,---,0.00,VWS V14.01,2013-11-27 09:32:00,
2013-11-27 04:33:00,23.8,19.1,29.97,NW,323,0.0,2.0,82,0.00,,---,0.00,VWS V14.01,2013-11-27 09:33:00,
2013-11-27 04:34:00,23.8,19.1,29.97,NW,323,0.0,2.0,82,0.00,,---,0.00,VWS V14.01,2013-11-27 09:34:00,
2013-11-27 04:35:00,23.8,19.1,29.97,NW,323,0.0,2.0,82,0.00,,---,0.00,VWS V14.01,2013-11-27 09:35:00,
2013-11-27 04:36:00,23.8,19.1,29.97,NW,312,0.0,3.0,82,0.00,,---,0.00,VWS V14.01,2013-11-27 09:36:00,
2013-11-27 04:37:00,23.7,19.0,29.97,NW,309,0.0,3.0,82,0.00,,---,0.00,VWS V14.01,2013-11-27 09:37:00,
2013-11-27 04:38:00,23.8,19.1,29.97,NW,319,2.0,3.0,82,0.00,,---,0.00,VWS V14.01,2013-11-27 09:38:00,
2013-11-27 04:39:00,23.7,19.0,29.97,NNW,337,1.0,3.0,82,0.00,,---,0.00,VWS V14.01,2013-11-27 09:39:00,
2013-11-27 04:40:00,23.7,19.0,29.97,NNW,337,0.0,3.0,82,0.00,,---,0.00,VWS V14.01,2013-11-27 09:40:00,
2013-11-27 04:41:00,23.7,19.0,29.97,NNW,330,0.0,1.0,82,0.00,,---,0.00,VWS V14.01,2013-11-27 09:41:00,
2013-11-27 04:42:00,23.7,19.3,29.97,NNW,330,1.0,1.0,83,0.00,,---,0.00,VWS V14.01,2013-11-27 09:42:00,
2013-11-27 04:43:00,23.7,19.3,29.97,NNW,330,0.0,1.0,83,0.00,,---,0.00,VWS V14.01,2013-11-27 09:43:00,
2013-11-27 04:44:00,23.7,19.3,29.97,NW,326,0.0,1.0,83,0.00,,---,0.00,VWS V14.01,2013-11-27 09:44:00,
2013-11-27 04:45:00,23.7,19.3,29.97,NW,326,0.0,0.0,83,0.00,,---,0.00,VWS V14.01,2013-11-27 09:45:00,
2013-11-27 04:46:00,23.7,19.3,29.97,NW,320,0.0,1.0,83,0.00,,---,0.00,VWS V14.01,2013-11-27 09:46:00,
2013-11-27 04:47:00,23.6,19.2,29.97,NW,320,0.0,1.0,83,0.00,,---,0.00,VWS V14.01,2013-11-27 09:47:00,
2013-11-27 04:48:00,23.6,19.2,29.97,NW,320,0.0,1.0,83,0.00,,---,0.00,VWS V14.01,2013-11-27 09:48:00,
2013-11-27 04:49:00,23.6,19.2,29.97,NW,320,0.0,1.0,83,0.00,,---,0.00,VWS V14.01,2013-11-27 09:49:00,
2013-11-27 04:50:00,23.6,19.2,29.97,NW,320,0.0,1.0,83,0.00,,---,0.00,VWS V14.01,2013-11-27 09:50:00,
2013-11-27 04:51:00,23.6,19.2,29.97,NW,320,0.0,1.0,83,0.00,,---,0.00,VWS V14.01,2013-11-27 09:51:00,
2013-11-27 04:52:00,23.6,19.2,29.97,NW,320,0.0,1.0,83,0.00,,---,0.00,VWS V14.01,2013-11-27 09:52:00,
2013-11-27 04:53:00,23.6,19.2,29.97,NW,320,0.0,1.0,83,0.00,,---,0.00,VWS V14.01,2013-11-27 09:53:00,
2013-11-27 04:54:00,23.6,19.2,29.97,NW,320,0.0,1.0,83,0.00,,---,0.00,VWS V14.01,2013-11-27 09:54:00,
2013-11-27 04:55:00,23.6,19.2,29.97,NW,320,0.0,1.0,83,0.00,,---,0.00,VWS V14.01,2013-11-27 09:55:00,
2013-11-27 04:56:00,23.6,19.2,29.97,NW,320,0.0,1.0,83,0.00,,---,0.00,VWS V14.01,2013-11-27 09:56:00,
2013-11-27 04:57:00,23.6,19.2,29.97,NNW,342,2.0,5.0,83,0.00,,---,0.00,VWS V14.01,2013-11-27 09:57:00,
2013-11-27 04:58:00,23.6,19.2,29.97,NNW,334,2.0,5.0,83,0.00,,---,0.00,VWS V14.01,2013-11-27 09:58:00,
2013-11-27 04:59:00,23.5,19.1,29.97,WNW,302,0.0,5.0,83,0.00,,---,0.00,VWS V14.01,2013-11-27 09:59:00,
2013-11-27 05:00:00,23.6,19.2,29.97,NW,317,0.0,5.0,83,0.00,,---,0.00,VWS V14.01,2013-11-27 10:00:00,
2013-11-27 05:01:00,23.5,19.1,29.97,NNW,338,0.0,1.0,83,0.00,,---,0.00,VWS V14.01,2013-11-27 10:01:00,
2013-11-27 05:02:00,23.5,19.1,29.97,North,352,0.0,3.0,83,0.00,,---,0.00,VWS V14.01,2013-11-27 10:02:00,
2013-11-27 05:03:00,23.5,19.1,29.97,North,350,0.0,3.0,83,0.00,,---,0.00,VWS V14.01,2013-11-27 10:03:00,
2013-11-27 05:04:00,23.5,19.1,29.97,North,350,0.0,3.0,83,0.00,,---,0.00,VWS V14.01,2013-11-27 10:04:00,
2013-11-27 05:05:00,23.5,19.1,29.97,NW,307,2.0,3.0,83,0.00,,---,0.00,VWS V14.01,2013-11-27 10:05:00,
2013-11-27 05:06:00,23.5,19.1,29.97,NNW,339,0.0,3.0,83,0.00,,---,0.00,VWS V14.01,2013-11-27 10:06:00,
2013-11-27 05:07:00,23.5,19.1,29.97,WNW,299,2.0,3.0,83,0.00,,---,0.00,VWS V14.01,2013-11-27 10:07:00,
2013-11-27 05:08:00,23.5,19.1,29.97,NW,311,0.0,3.0,83,0.00,,---,0.00,VWS V14.01,2013-11-27 10:08:00,
2013-11-27 05:09:00,23.5,19.1,29.97,NW,311,0.0,3.0,83,0.00,,---,0.00,VWS V14.01,2013-11-27 10:09:00,
2013-11-27 05:10:00,23.4,19.0,29.97,NNW,340,0.0,3.0,83,0.00,,---,0.00,VWS V14.01,2013-11-27 10:10:00,
2013-11-27 05:11:00,23.4,19.0,29.97,NW,326,0.0,2.0,83,0.00,,---,0.00,VWS V14.01,2013-11-27 10:11:00,
2013-11-27 05:12:00,23.4,19.0,29.97,NW,326,0.0,2.0,83,0.00,,---,0.00,VWS V14.01,2013-11-27 10:12:00,
2013-11-27 05:13:00,23.4,19.0,29.97,NW,326,0.0,2.0,83,0.00,,---,0.00,VWS V14.01,2013-11-27 10:13:00,
2013-11-27 05:14:00,23.4,19.0,29.97,NW,326,0.0,2.0,83,0.00,,---,0.00,VWS V14.01,2013-11-27 10:14:00,
2013-11-27 05:15:00,23.4,19.0,29.98,NW,326,0.0,2.0,83,0.00,,---,0.00,VWS V14.01,2013-11-27 10:15:00,
2013-11-27 05:16:00,23.4,19.3,29.98,NW,326,0.0,0.0,84,0.00,,---,0.00,VWS V14.01,2013-11-27 10:16:00,
2013-11-27 05:17:00,23.4,19.3,29.98,NW,326,0.0,0.0,84,0.00,,---,0.00,VWS V14.01,2013-11-27 10:17:00,
2013-11-27 05:18:00,23.4,19.3,29.98,NW,326,0.0,0.0,84,0.00,,---,0.00,VWS V14.01,2013-11-27 10:18:00,
2013-11-27 05:19:00,23.4,19.3,29.98,NW,326,0.0,1.0,84,0.00,,---,0.00,VWS V14.01,2013-11-27 10:19:00,
2013-11-27 05:20:00,23.4,19.3,29.98,NW,326,0.0,1.0,84,0.00,,---,0.00,VWS V14.01,2013-11-27 10:20:00,
2013-11-27 05:21:00,23.4,19.3,29.98,NW,326,0.0,0.0,84,0.00,,---,0.00,VWS V14.01,2013-11-27 10:21:00,
2013-11-27 05:22:00,23.4,19.3,29.98,NW,326,0.0,0.0,84,0.00,,---,0.00,VWS V14.01,2013-11-27 10:22:00,
2013-11-27 05:23:00,23.4,19.3,29.98,NW,326,0.0,0.0,84,0.00,,---,0.00,VWS V14.01,2013-11-27 10:23:00,
2013-11-27 05:24:00,23.4,19.3,29.98,NW,326,0.0,0.0,84,0.00,,---,0.00,VWS V14.01,2013-11-27 10:24:00,
2013-11-27 05:25:00,23.4,19.3,29.98,NW,326,0.0,0.0,84,0.00,,---,0.00,VWS V14.01,2013-11-27 10:25:00,
2013-11-27 05:26:00,23.4,19.3,29.98,NW,326,0.0,0.0,84,0.00,,---,0.00,VWS V14.01,2013-11-27 10:26:00,
2013-11-27 05:27:00,23.4,19.3,29.98,NW,323,0.0,3.0,84,0.00,,---,0.00,VWS V14.01,2013-11-27 10:27:00,
2013-11-27 05:28:00,23.4,19.3,29.98,NW,326,0.0,3.0,84,0.00,,---,0.00,VWS V14.01,2013-11-27 10:28:00,
2013-11-27 05:29:00,23.4,19.3,29.98,NNW,338,0.0,4.0,84,0.00,,---,0.00,VWS V14.01,2013-11-27 10:29:00,
2013-11-27 05:30:00,23.3,19.2,29.99,NNW,338,0.0,4.0,84,0.00,,---,0.00,VWS V14.01,2013-11-27 10:30:00,
2013-11-27 05:31:00,23.3,19.2,29.99,NW,304,0.0,4.0,84,0.00,,---,0.00,VWS V14.01,2013-11-27 10:31:00,
2013-11-27 05:32:00,23.3,19.2,29.99,NW,304,0.0,4.0,84,0.00,,---,0.00,VWS V14.01,2013-11-27 10:32:00,
2013-11-27 05:33:00,23.3,19.2,29.99,NW,304,0.0,4.0,84,0.00,,---,0.00,VWS V14.01,2013-11-27 10:33:00,
2013-11-27 05:34:00,23.3,19.2,29.99,NW,304,0.0,4.0,84,0.00,,---,0.00,VWS V14.01,2013-11-27 10:34:00,
2013-11-27 05:35:00,23.3,19.2,29.99,NW,304,0.0,4.0,84,0.00,,---,0.00,VWS V14.01,2013-11-27 10:35:00,
2013-11-27 05:36:00,23.3,19.2,29.99,NW,304,0.0,0.0,84,0.00,,---,0.00,VWS V14.01,2013-11-27 10:36:00,
2013-11-27 05:37:00,23.3,19.2,29.99,NW,304,0.0,0.0,84,0.00,,---,0.00,VWS V14.01,2013-11-27 10:37:00,
2013-11-27 05:38:00,23.2,19.4,29.99,NW,304,1.0,1.0,85,0.00,,---,0.00,VWS V14.01,2013-11-27 10:38:00,
2013-11-27 05:39:00,23.3,19.5,29.99,NW,304,0.0,1.0,85,0.00,,---,0.00,VWS V14.01,2013-11-27 10:39:00,
2013-11-27 05:40:00,23.2,19.4,29.99,NW,304,0.0,1.0,85,0.00,,---,0.00,VWS V14.01,2013-11-27 10:40:00,
2013-11-27 05:41:00,23.2,19.4,29.99,NW,304,0.0,0.0,85,0.00,,---,0.00,VWS V14.01,2013-11-27 10:41:00,
2013-11-27 05:42:00,23.2,19.4,29.99,NW,304,1.0,3.0,85,0.00,,---,0.00,VWS V14.01,2013-11-27 10:42:00,
2013-11-27 05:43:00,23.2,19.4,29.99,NW,304,0.0,3.0,85,0.00,,---,0.00,VWS V14.01,2013-11-27 10:43:00,
2013-11-27 05:44:00,23.2,19.4,29.99,NW,304,0.0,3.0,85,0.00,,---,0.00,VWS V14.01,2013-11-27 10:44:00,
2013-11-27 05:45:00,23.1,19.3,29.99,NW,304,0.0,3.0,85,0.00,,---,0.00,VWS V14.01,2013-11-27 10:45:00,
2013-11-27 05:46:00,23.2,19.4,29.99,NW,316,1.0,1.0,85,0.00,,---,0.00,VWS V14.01,2013-11-27 10:46:00,
2013-11-27 05:47:00,23.1,19.3,29.99,NW,322,1.0,2.0,85,0.00,,---,0.00,VWS V14.01,2013-11-27 10:47:00,
2013-11-27 05:48:00,23.1,19.3,29.99,NW,322,0.0,2.0,85,0.00,,---,0.00,VWS V14.01,2013-11-27 10:48:00,
2013-11-27 05:49:00,23.1,19.3,29.99,NW,323,0.0,2.0,85,0.00,,---,0.00,VWS V14.01,2013-11-27 10:49:00,
2013-11-27 05:50:00,23.1,19.3,29.99,NW,323,0.0,2.0,85,0.00,,---,0.00,VWS V14.01,2013-11-27 10:50:00,
2013-11-27 05:51:00,23.1,19.3,29.99,NW,323,0.0,1.0,85,0.00,,---,0.00,VWS V14.01,2013-11-27 10:51:00,
2013-11-27 05:52:00,23.1,19.3,29.99,NW,323,0.0,1.0,85,0.00,,---,0.00,VWS V14.01,2013-11-27 10:52:00,
2013-11-27 05:53:00,23.0,19.2,29.99,NW,323,0.0,1.0,85,0.00,,---,0.00,VWS V14.01,2013-11-27 10:53:00,
2013-11-27 05:54:00,23.0,19.2,29.99,NW,323,0.0,1.0,85,0.00,,---,0.00,VWS V14.01,2013-11-27 10:54:00,
2013-11-27 05:55:00,23.0,19.2,29.99,NW,323,0.0,1.0,85,0.00,,---,0.00,VWS V14.01,2013-11-27 10:55:00,
2013-11-27 05:56:00,23.0,19.2,29.99,NW,323,1.0,1.0,85,0.00,,---,0.00,VWS V14.01,2013-11-27 10:56:00,
2013-11-27 05:57:00,23.0,19.5,29.99,NNW,342,1.0,1.0,86,0.00,,---,0.00,VWS V14.01,2013-11-27 10:57:00,
2013-11-27 05:58:00,23.0,19.5,29.99,NNW,344,0.0,4.0,86,0.00,,---,0.00,VWS V14.01,2013-11-27 10:58:00,
2013-11-27 05:59:00,23.0,19.5,29.99,NNW,344,0.0,4.0,86,0.00,,---,0.00,VWS V14.01,2013-11-27 10:59:00,
2013-11-27 06:00:00,23.0,19.5,29.99,NNW,347,0.0,4.0,86,0.00,,---,0.00,VWS V14.01,2013-11-27 11:00:00,
2013-11-27 06:01:00,23.0,19.5,29.99,NNW,347,0.0,0.0,86,0.00,,---,0.00,VWS V14.01,2013-11-27 11:01:00,
2013-11-27 06:02:00,23.0,19.5,29.99,NNW,347,0.0,1.0,86,0.00,,---,0.00,VWS V14.01,2013-11-27 11:02:00,
2013-11-27 06:03:00,23.0,19.5,29.99,NNW,342,0.0,1.0,86,0.00,,---,0.00,VWS V14.01,2013-11-27 11:03:00,
2013-11-27 06:04:00,22.9,19.4,29.99,NNW,342,0.0,1.0,86,0.00,,---,0.00,VWS V14.01,2013-11-27 11:04:00,
2013-11-27 06:05:00,22.9,19.4,29.99,NNW,342,0.0,1.0,86,0.00,,---,0.00,VWS V14.01,2013-11-27 11:05:00,
2013-11-27 06:06:00,22.9,19.4,29.99,NNW,342,0.0,0.0,86,0.00,,---,0.00,VWS V14.01,2013-11-27 11:06:00,
2013-11-27 06:07:00,22.9,19.4,29.99,NNW,342,0.0,0.0,86,0.00,,---,0.00,VWS V14.01,2013-11-27 11:07:00,
2013-11-27 06:08:00,22.9,19.4,29.99,NNW,342,0.0,0.0,86,0.00,,---,0.00,VWS V14.01,2013-11-27 11:08:00,
2013-11-27 06:09:00,22.9,19.6,29.99,NNW,342,0.0,0.0,87,0.00,,---,0.00,VWS V14.01,2013-11-27 11:09:00,
2013-11-27 06:10:00,22.9,19.6,29.99,NNW,342,0.0,0.0,87,0.00,,---,0.00,VWS V14.01,2013-11-27 11:10:00,
2013-11-27 06:11:00,22.9,19.6,29.99,NNW,342,1.0,1.0,87,0.00,,---,0.00,VWS V14.01,2013-11-27 11:11:00,
2013-11-27 06:12:00,22.9,19.6,29.99,NNW,333,0.0,2.0,87,0.00,,---,0.00,VWS V14.01,2013-11-27 11:12:00,
2013-11-27 06:13:00,22.9,19.6,29.99,NNW,333,0.0,2.0,87,0.00,,---,0.00,VWS V14.01,2013-11-27 11:13:00,
2013-11-27 06:14:00,22.8,19.5,29.99,NNW,333,0.0,2.0,87,0.00,,---,0.00,VWS V14.01,2013-11-27 11:14:00,
2013-11-27 06:15:00,22.8,19.5,30.00,NNW,333,0.0,2.0,87,0.00,,---,0.00,VWS V14.01,2013-11-27 11:15:00,
2013-11-27 06:16:00,22.8,19.8,30.00,NNW,333,0.0,0.0,88,0.00,,---,0.00,VWS V14.01,2013-11-27 11:16:00,
2013-11-27 06:17:00,22.8,19.8,30.00,NNW,333,0.0,0.0,88,0.00,,---,0.00,VWS V14.01,2013-11-27 11:17:00,
2013-11-27 06:18:00,22.8,19.8,30.00,NNW,333,0.0,1.0,88,0.00,,---,0.00,VWS V14.01,2013-11-27 11:18:00,
2013-11-27 06:19:00,22.7,19.7,30.00,NNW,333,0.0,1.0,88,0.00,,---,0.00,VWS V14.01,2013-11-27 11:19:00,
2013-11-27 06:20:00,22.7,19.7,30.00,NNW,333,0.0,1.0,88,0.00,,---,0.00,VWS V14.01,2013-11-27 11:20:00,
2013-11-27 06:21:00,22.7,19.7,30.00,NNW,333,0.0,0.0,88,0.00,,---,0.00,VWS V14.01,2013-11-27 11:21:00,
2013-11-27 06:22:00,22.7,19.7,30.00,NNW,333,0.0,0.0,88,0.00,,---,0.00,VWS V14.01,2013-11-27 11:22:00,
2013-11-27 06:23:00,22.7,19.7,30.00,NNW,333,0.0,0.0,88,0.00,,---,0.00,VWS V14.01,2013-11-27 11:23:00,
2013-11-27 06:24:00,22.7,19.7,30.00,NNW,333,0.0,0.0,88,0.00,,---,0.00,VWS V14.01,2013-11-27 11:24:00,
2013-11-27 06:25:00,22.7,19.7,30.00,NNW,333,0.0,0.0,88,0.00,,---,0.00,VWS V14.01,2013-11-27 11:25:00,
2013-11-27 06:26:00,22.7,19.7,30.00,NNW,333,0.0,0.0,88,0.00,,---,0.00,VWS V14.01,2013-11-27 11:26:00,
2013-11-27 06:27:00,22.7,19.7,30.00,NNW,333,0.0,0.0,88,0.00,,---,0.00,VWS V14.01,2013-11-27 11:27:00,
2013-11-27 06:28:00,22.7,19.7,30.00,NNW,333,0.0,0.0,88,0.00,,---,0.00,VWS V14.01,2013-11-27 11:28:00,
2013-11-27 06:29:00,22.6,19.6,30.00,NNW,333,0.0,0.0,88,0.00,,---,0.00,VWS V14.01,2013-11-27 11:29:00,
2013-11-27 06:30:00,22.6,19.9,30.00,NNW,333,0.0,0.0,89,0.00,,---,0.00,VWS V14.01,2013-11-27 11:30:00,
2013-11-27 06:31:00,22.6,19.9,30.00,NNW,333,0.0,0.0,89,0.00,,---,0.00,VWS V14.01,2013-11-27 11:31:00,
2013-11-27 06:32:00,22.6,19.6,30.00,NNW,333,0.0,0.0,88,0.00,,---,0.00,VWS V14.01,2013-11-27 11:32:00,
2013-11-27 06:33:00,22.5,19.8,30.00,NNW,333,0.0,0.0,89,0.00,,---,0.00,VWS V14.01,2013-11-27 11:33:00,
2013-11-27 06:34:00,22.5,19.8,30.00,NNW,333,0.0,0.0,89,0.00,,---,0.00,VWS V14.01,2013-11-27 11:34:00,
2013-11-27 06:35:00,22.5,19.8,30.00,NNW,333,0.0,0.0,89,0.00,,---,0.00,VWS V14.01,2013-11-27 11:35:00,
2013-11-27 06:36:00,22.5,19.8,30.00,NNW,333,0.0,0.0,89,0.00,,---,0.00,VWS V14.01,2013-11-27 11:36:00,
2013-11-27 06:37:00,22.5,19.8,30.00,NNW,333,0.0,0.0,89,0.00,,---,0.00,VWS V14.01,2013-11-27 11:37:00,
2013-11-27 06:38:00,22.5,19.8,30.00,NNW,333,0.0,0.0,89,0.00,,---,0.00,VWS V14.01,2013-11-27 11:38:00,
2013-11-27 06:39:00,22.5,19.8,30.00,NNW,333,0.0,0.0,89,0.00,,---,0.00,VWS V14.01,2013-11-27 11:39:00,
2013-11-27 06:40:00,22.4,19.7,30.00,NNW,333,0.0,0.0,89,0.00,,---,0.00,VWS V14.01,2013-11-27 11:40:00,
2013-11-27 06:41:00,22.4,19.7,30.00,NNW,333,0.0,0.0,89,0.00,,---,0.00,VWS V14.01,2013-11-27 11:41:00,
2013-11-27 06:42:00,22.4,19.7,30.00,NNW,333,0.0,0.0,89,0.00,,---,0.00,VWS V14.01,2013-11-27 11:42:00,
2013-11-27 06:43:00,22.4,19.7,30.00,NNW,333,0.0,0.0,89,0.00,,---,0.00,VWS V14.01,2013-11-27 11:43:00,
2013-11-27 06:44:00,22.4,19.7,30.00,NNW,333,0.0,0.0,89,0.00,,---,0.00,VWS V14.01,2013-11-27 11:44:00,
2013-11-27 06:45:00,22.3,19.6,30.01,NNW,333,0.0,0.0,89,0.00,,---,0.00,VWS V14.01,2013-11-27 11:45:00,
2013-11-27 06:46:00,22.3,19.6,30.01,NNW,333,0.0,0.0,89,0.00,,---,0.00,VWS V14.01,2013-11-27 11:46:00,
2013-11-27 06:47:00,22.3,19.6,30.01,NNW,333,0.0,0.0,89,0.00,,---,0.00,VWS V14.01,2013-11-27 11:47:00,
2013-11-27 06:48:00,22.3,19.6,30.01,NNW,333,0.0,1.0,89,0.00,,---,0.00,VWS V14.01,2013-11-27 11:48:00,
2013-11-27 06:49:00,22.3,19.6,30.01,NNW,333,0.0,1.0,89,0.00,,---,0.00,VWS V14.01,2013-11-27 11:49:00,
2013-11-27 06:50:00,22.3,19.6,30.01,NNW,333,0.0,1.0,89,0.00,,---,0.00,VWS V14.01,2013-11-27 11:50:00,
2013-11-27 06:51:00,22.3,19.6,30.01,NNW,333,0.0,0.0,89,0.00,,---,0.00,VWS V14.01,2013-11-27 11:51:00,
2013-11-27 06:52:00,22.3,19.6,30.01,NNW,333,0.0,0.0,89,0.00,,---,0.00,VWS V14.01,2013-11-27 11:52:00,
2013-11-27 06:53:00,22.3,19.6,30.01,NNW,333,0.0,0.0,89,0.00,,---,0.00,VWS V14.01,2013-11-27 11:53:00,
2013-11-27 06:54:00,22.3,19.6,30.01,NNW,333,0.0,0.0,89,0.00,,---,0.00,VWS V14.01,2013-11-27 11:54:00,
2013-11-27 06:55:00,22.2,19.7,30.01,NNW,333,0.0,1.0,90,0.00,,---,0.00,VWS V14.01,2013-11-27 11:55:00,
2013-11-27 06:56:00,22.2,19.7,30.01,NNW,333,0.0,0.0,90,0.00,,---,0.00,VWS V14.01,2013-11-27 11:56:00,
2013-11-27 06:57:00,22.2,19.7,30.01,NNW,333,0.0,0.0,90,0.00,,---,0.00,VWS V14.01,2013-11-27 11:57:00,
2013-11-27 06:58:00,22.2,19.7,30.01,NNW,333,0.0,1.0,90,0.00,,---,0.00,VWS V14.01,2013-11-27 11:58:00,
2013-11-27 06:59:00,22.2,19.7,30.01,NNW,333,0.0,1.0,90,0.00,,---,0.00,VWS V14.01,2013-11-27 11:59:00,
2013-11-27 07:00:00,22.2,19.7,30.02,NNW,333,0.0,1.0,90,0.00,,---,0.00,VWS V14.01,2013-11-27 12:00:00,
2013-11-27 07:01:00,22.2,19.7,30.02,NNW,333,0.0,0.0,90,0.00,,---,0.00,VWS V14.01,2013-11-27 12:01:00,
2013-11-27 07:02:00,22.2,19.7,30.02,NNW,333,0.0,0.0,90,0.00,,---,0.00,VWS V14.01,2013-11-27 12:02:00,
2013-11-27 07:03:00,22.2,19.7,30.02,NNW,333,0.0,0.0,90,0.00,,---,0.00,VWS V14.01,2013-11-27 12:03:00,
2013-11-27 07:04:00,22.2,19.7,30.02,NNW,333,0.0,0.0,90,0.00,,---,0.00,VWS V14.01,2013-11-27 12:04:00,
2013-11-27 07:05:00,22.2,19.7,30.02,NNW,333,0.0,0.0,90,0.00,,---,0.00,VWS V14.01,2013-11-27 12:05:00,
2013-11-27 07:06:00,22.2,19.7,30.02,NNW,333,0.0,0.0,90,0.00,,---,0.00,VWS V14.01,2013-11-27 12:06:00,
2013-11-27 07:07:00,22.2,19.7,30.02,NNW,333,0.0,1.0,90,0.00,,---,0.00,VWS V14.01,2013-11-27 12:07:00,
2013-11-27 07:08:00,22.1,19.6,30.02,NNW,333,0.0,1.0,90,0.00,,---,0.00,VWS V14.01,2013-11-27 12:08:00,
2013-11-27 07:09:00,22.1,19.6,30.02,NNW,333,0.0,1.0,90,0.00,,---,0.00,VWS V14.01,2013-11-27 12:09:00,
2013-11-27 07:10:00,22.1,19.6,30.02,NNW,333,0.0,1.0,90,0.00,,---,0.00,VWS V14.01,2013-11-27 12:10:00,
2013-11-27 07:11:00,22.1,19.6,30.02,NNW,333,0.0,0.0,90,0.00,,---,0.00,VWS V14.01,2013-11-27 12:11:00,
2013-11-27 07:12:00,22.1,19.6,30.02,NNW,333,0.0,0.0,90,0.00,,---,0.00,VWS V14.01,2013-11-27 12:12:00,
2013-11-27 07:13:00,22.1,19.6,30.02,NNW,333,0.0,0.0,90,0.00,,---,0.00,VWS V14.01,2013-11-27 12:13:00,
2013-11-27 07:14:00,22.1,19.9,30.02,NNW,333,0.0,0.0,91,0.00,,---,0.00,VWS V14.01,2013-11-27 12:14:00,
2013-11-27 07:15:00,22.1,19.9,30.02,NNW,333,0.0,0.0,91,0.00,,---,0.00,VWS V14.01,2013-11-27 12:15:00,
2013-11-27 07:16:00,22.1,19.9,30.02,NNW,333,0.0,0.0,91,0.00,,---,0.00,VWS V14.01,2013-11-27 12:16:00,
2013-11-27 07:17:00,22.1,19.9,30.02,NNW,333,0.0,0.0,91,0.00,,---,0.00,VWS V14.01,2013-11-27 12:17:00,
2013-11-27 07:18:00,22.1,19.9,30.02,NNW,333,0.0,0.0,91,0.00,,---,0.00,VWS V14.01,2013-11-27 12:18:00,
2013-11-27 07:19:00,22.1,19.9,30.02,NNW,333,0.0,0.0,91,0.00,,---,0.00,VWS V14.01,2013-11-27 12:19:00,
2013-11-27 07:20:00,22.1,19.9,30.02,NNW,333,0.0,1.0,91,0.00,,---,0.00,VWS V14.01,2013-11-27 12:20:00,
2013-11-27 07:21:00,22.0,19.8,30.02,NNW,333,0.0,0.0,91,0.00,,---,0.00,VWS V14.01,2013-11-27 12:21:00,
2013-11-27 07:22:00,22.0,19.8,30.02,NNW,333,0.0,0.0,91,0.00,,---,0.00,VWS V14.01,2013-11-27 12:22:00,
2013-11-27 07:23:00,22.0,19.8,30.02,NNW,333,0.0,0.0,91,0.00,,---,0.00,VWS V14.01,2013-11-27 12:23:00,
2013-11-27 07:24:00,22.0,19.8,30.02,NNW,333,0.0,0.0,91,0.00,,---,0.00,VWS V14.01,2013-11-27 12:24:00,
2013-11-27 07:25:00,22.0,19.8,30.02,NNW,333,0.0,1.0,91,0.00,,---,0.00,VWS V14.01,2013-11-27 12:25:00,
2013-11-27 07:26:00,22.0,19.8,30.02,NNW,333,0.0,0.0,91,0.00,,---,0.00,VWS V14.01,2013-11-27 12:26:00,
2013-11-27 07:27:00,22.0,19.8,30.02,NNW,333,0.0,0.0,91,0.00,,---,0.00,VWS V14.01,2013-11-27 12:27:00,
2013-11-27 07:28:00,22.0,19.8,30.02,NNW,333,0.0,0.0,91,0.00,,---,0.00,VWS V14.01,2013-11-27 12:28:00,
2013-11-27 07:29:00,21.9,19.7,30.02,NNW,333,0.0,0.0,91,0.00,,---,0.00,VWS V14.01,2013-11-27 12:29:00,
2013-11-27 07:30:00,21.9,19.7,30.02,NNW,333,0.0,0.0,91,0.00,,---,0.00,VWS V14.01,2013-11-27 12:30:00,
2013-11-27 07:31:00,21.9,19.7,30.02,NNW,333,0.0,0.0,91,0.00,,---,0.00,VWS V14.01,2013-11-27 12:31:00,
2013-11-27 07:32:00,21.9,19.7,30.02,NNW,333,0.0,0.0,91,0.00,,---,0.00,VWS V14.01,2013-11-27 12:32:00,
2013-11-27 07:33:00,21.9,19.7,30.02,NNW,333,0.0,0.0,91,0.00,,---,0.00,VWS V14.01,2013-11-27 12:33:00,
2013-11-27 07:34:00,21.9,19.7,30.02,NNW,333,0.0,0.0,91,0.00,,---,0.00,VWS V14.01,2013-11-27 12:34:00,
2013-11-27 07:35:00,21.8,19.6,30.02,NNW,333,0.0,0.0,91,0.00,,---,0.00,VWS V14.01,2013-11-27 12:35:00,
2013-11-27 07:36:00,21.8,19.6,30.02,NNW,333,0.0,0.0,91,0.00,,---,0.00,VWS V14.01,2013-11-27 12:36:00,
2013-11-27 07:37:00,21.8,19.6,30.02,NNW,333,0.0,0.0,91,0.00,,---,0.00,VWS V14.01,2013-11-27 12:37:00,
2013-11-27 07:38:00,21.8,19.6,30.02,NNW,333,0.0,0.0,91,0.00,,---,0.00,VWS V14.01,2013-11-27 12:38:00,
2013-11-27 07:39:00,21.8,19.6,30.02,NNW,333,0.0,0.0,91,0.00,,---,0.00,VWS V14.01,2013-11-27 12:39:00,
2013-11-27 07:40:00,21.8,19.8,30.02,NNW,333,0.0,0.0,92,0.00,,---,0.00,VWS V14.01,2013-11-27 12:40:00,
2013-11-27 07:41:00,21.8,19.8,30.02,NNW,333,0.0,0.0,92,0.00,,---,0.00,VWS V14.01,2013-11-27 12:41:00,
2013-11-27 07:42:00,21.8,19.8,30.02,NNW,333,0.0,0.0,92,0.00,,---,0.00,VWS V14.01,2013-11-27 12:42:00,
2013-11-27 07:43:00,21.8,19.8,30.02,NNW,333,0.0,0.0,92,0.00,,---,0.00,VWS V14.01,2013-11-27 12:43:00,
2013-11-27 07:44:00,21.8,19.6,30.02,NNW,333,0.0,0.0,91,0.00,,---,0.00,VWS V14.01,2013-11-27 12:44:00,
2013-11-27 07:45:00,21.8,19.6,30.03,NNW,333,0.0,0.0,91,0.00,,---,0.00,VWS V14.01,2013-11-27 12:45:00,
2013-11-27 07:46:00,21.7,19.7,30.03,NNW,333,0.0,0.0,92,0.00,,---,0.00,VWS V14.01,2013-11-27 12:46:00,
2013-11-27 07:47:00,21.8,19.8,30.03,NNW,333,0.0,0.0,92,0.00,,---,0.00,VWS V14.01,2013-11-27 12:47:00,
2013-11-27 07:48:00,21.8,19.8,30.03,NNW,333,0.0,0.0,92,0.00,,---,0.00,VWS V14.01,2013-11-27 12:48:00,
2013-11-27 07:49:00,21.7,19.7,30.03,NNW,333,0.0,0.0,92,0.00,,---,0.00,VWS V14.01,2013-11-27 12:49:00,
2013-11-27 07:50:00,21.8,19.8,30.03,NNW,333,0.0,0.0,92,0.00,,---,0.00,VWS V14.01,2013-11-27 12:50:00,
2013-11-27 07:51:00,21.7,19.7,30.03,NNW,333,0.0,0.0,92,0.00,,---,0.00,VWS V14.01,2013-11-27 12:51:00,
2013-11-27 07:52:00,21.7,19.7,30.03,NNW,333,0.0,0.0,92,0.00,,---,0.00,VWS V14.01,2013-11-27 12:52:00,
2013-11-27 07:53:00,21.7,19.7,30.03,NNW,333,0.0,0.0,92,0.00,,---,0.00,VWS V14.01,2013-11-27 12:53:00,
2013-11-27 07:54:00,21.7,19.7,30.03,NNW,333,0.0,0.0,92,0.00,,---,0.00,VWS V14.01,2013-11-27 12:54:00,
2013-11-27 07:55:00,21.7,19.7,30.03,NNW,333,0.0,0.0,92,0.00,,---,0.00,VWS V14.01,2013-11-27 12:55:00,
2013-11-27 07:56:00,21.7,19.7,30.03,NNW,333,0.0,0.0,92,0.00,,---,0.00,VWS V14.01,2013-11-27 12:56:00,
2013-11-27 07:57:00,21.7,19.7,30.03,NNW,333,0.0,0.0,92,0.00,,---,0.00,VWS V14.01,2013-11-27 12:57:00,
2013-11-27 07:58:00,21.7,19.7,30.03,NNW,333,0.0,0.0,92,0.00,,---,0.00,VWS V14.01,2013-11-27 12:58:00,
2013-11-27 07:59:00,21.7,19.7,30.03,NNW,333,0.0,0.0,92,0.00,,---,0.00,VWS V14.01,2013-11-27 12:59:00,
2013-11-27 08:00:00,21.7,19.7,30.03,NNW,333,0.0,0.0,92,0.00,,---,0.00,VWS V14.01,2013-11-27 13:00:00,
2013-11-27 08:01:00,21.7,19.7,30.03,NNW,333,0.0,0.0,92,0.00,,---,0.00,VWS V14.01,2013-11-27 13:01:00,
2013-11-27 08:02:00,21.7,19.7,30.03,NNW,333,0.0,0.0,92,0.00,,---,0.00,VWS V14.01,2013-11-27 13:02:00,
2013-11-27 08:03:00,21.7,19.7,30.03,NNW,333,0.0,0.0,92,0.00,,---,0.00,VWS V14.01,2013-11-27 13:03:00,
2013-11-27 08:04:00,21.7,19.7,30.03,NNW,333,0.0,0.0,92,0.00,,---,0.00,VWS V14.01,2013-11-27 13:04:00,
2013-11-27 08:05:00,21.7,19.7,30.03,NNW,333,0.0,0.0,92,0.00,,---,0.00,VWS V14.01,2013-11-27 13:05:00,
2013-11-27 08:06:00,21.7,19.7,30.03,NNW,333,0.0,0.0,92,0.00,,---,0.00,VWS V14.01,2013-11-27 13:06:00,
2013-11-27 08:07:00,21.7,19.7,30.03,NNW,333,0.0,0.0,92,0.00,,---,0.00,VWS V14.01,2013-11-27 13:07:00,
2013-11-27 08:08:00,21.7,19.7,30.03,NNW,333,0.0,0.0,92,0.00,,---,0.00,VWS V14.01,2013-11-27 13:08:00,
2013-11-27 08:09:00,21.7,19.7,30.03,NNW,333,0.0,0.0,92,0.00,,---,0.00,VWS V14.01,2013-11-27 13:09:00,
2013-11-27 08:10:00,21.7,19.7,30.03,NNW,333,0.0,0.0,92,0.00,,---,0.00,VWS V14.01,2013-11-27 13:10:00,
2013-11-27 08:11:00,21.7,19.7,30.03,NNW,333,0.0,0.0,92,0.00,,---,0.00,VWS V14.01,2013-11-27 13:11:00,
2013-11-27 08:12:00,21.7,19.7,30.03,NNW,333,0.0,0.0,92,0.00,,---,0.00,VWS V14.01,2013-11-27 13:12:00,
2013-11-27 08:13:00,21.7,19.7,30.03,NNW,333,0.0,0.0,92,0.00,,---,0.00,VWS V14.01,2013-11-27 13:13:00,
2013-11-27 08:14:00,21.7,19.7,30.03,NNW,333,0.0,0.0,92,0.00,,---,0.00,VWS V14.01,2013-11-27 13:14:00,
2013-11-27 08:15:00,21.8,19.8,30.04,NNW,333,0.0,0.0,92,0.00,,---,0.00,VWS V14.01,2013-11-27 13:15:00,
2013-11-27 08:16:00,21.8,19.8,30.04,NNW,333,0.0,1.0,92,0.00,,---,0.00,VWS V14.01,2013-11-27 13:16:00,
2013-11-27 08:17:00,21.8,19.8,30.04,NNW,333,0.0,1.0,92,0.00,,---,0.00,VWS V14.01,2013-11-27 13:17:00,
2013-11-27 08:18:00,21.8,19.8,30.04,NNW,333,0.0,1.0,92,0.00,,---,0.00,VWS V14.01,2013-11-27 13:18:00,
2013-11-27 08:19:00,21.8,19.8,30.04,NNW,333,0.0,1.0,92,0.00,,---,0.00,VWS V14.01,2013-11-27 13:19:00,
2013-11-27 08:20:00,21.8,19.8,30.04,NNW,333,1.0,1.0,92,0.00,,---,0.00,VWS V14.01,2013-11-27 13:20:00,
2013-11-27 08:21:00,21.8,19.8,30.04,NNW,333,0.0,0.0,92,0.00,,---,0.00,VWS V14.01,2013-11-27 13:21:00,
2013-11-27 08:22:00,21.8,19.8,30.04,NNW,333,0.0,0.0,92,0.00,,---,0.00,VWS V14.01,2013-11-27 13:22:00,
2013-11-27 08:23:00,21.8,19.8,30.04,NNW,333,0.0,0.0,92,0.00,,---,0.00,VWS V14.01,2013-11-27 13:23:00,
2013-11-27 08:24:00,21.8,19.8,30.04,NNW,333,0.0,0.0,92,0.00,,---,0.00,VWS V14.01,2013-11-27 13:24:00,
2013-11-27 08:25:00,21.8,19.8,30.04,NNW,333,0.0,0.0,92,0.00,,---,0.00,VWS V14.01,2013-11-27 13:25:00,
2013-11-27 08:26:00,21.9,19.9,30.04,NNW,333,0.0,0.0,92,0.00,,---,0.00,VWS V14.01,2013-11-27 13:26:00,
2013-11-27 08:27:00,21.9,19.9,30.04,NNW,333,0.0,0.0,92,0.00,,---,0.00,VWS V14.01,2013-11-27 13:27:00,
2013-11-27 08:28:00,21.9,19.9,30.04,NNW,333,0.0,0.0,92,0.00,,---,0.00,VWS V14.01,2013-11-27 13:28:00,
2013-11-27 08:29:00,21.9,19.9,30.04,NNW,333,0.0,0.0,92,0.00,,---,0.00,VWS V14.01,2013-11-27 13:29:00,
2013-11-27 08:30:00,21.9,19.9,30.03,NNW,333,0.0,1.0,92,0.00,,---,0.00,VWS V14.01,2013-11-27 13:30:00,
2013-11-27 08:31:00,21.9,20.2,30.03,NNW,333,0.0,0.0,93,0.00,,---,0.00,VWS V14.01,2013-11-27 13:31:00,
2013-11-27 08:32:00,22.0,20.3,30.03,NNW,333,0.0,0.0,93,0.00,,---,0.00,VWS V14.01,2013-11-27 13:32:00,
2013-11-27 08:33:00,22.0,20.3,30.03,NNW,333,0.0,0.0,93,0.00,,---,0.00,VWS V14.01,2013-11-27 13:33:00,
2013-11-27 08:34:00,22.0,20.3,30.03,NNW,333,0.0,0.0,93,0.00,,---,0.00,VWS V14.01,2013-11-27 13:34:00,
2013-11-27 08:35:00,22.0,20.3,30.03,NNW,333,0.0,0.0,93,0.00,,---,0.00,VWS V14.01,2013-11-27 13:35:00,
2013-11-27 08:36:00,22.0,20.3,30.03,NNW,333,0.0,0.0,93,0.00,,---,0.00,VWS V14.01,2013-11-27 13:36:00,
2013-11-27 08:37:00,22.0,20.3,30.03,NNW,333,0.0,0.0,93,0.00,,---,0.00,VWS V14.01,2013-11-27 13:37:00,
2013-11-27 08:38:00,22.0,20.3,30.03,NNW,333,1.0,1.0,93,0.00,,---,0.00,VWS V14.01,2013-11-27 13:38:00,
2013-11-27 08:39:00,22.0,20.3,30.03,NW,321,0.0,1.0,93,0.00,,---,0.00,VWS V14.01,2013-11-27 13:39:00,
2013-11-27 08:40:00,22.1,20.4,30.03,NW,321,0.0,1.0,93,0.00,,---,0.00,VWS V14.01,2013-11-27 13:40:00,
2013-11-27 08:41:00,22.1,20.4,30.03,NW,321,0.0,0.0,93,0.00,,---,0.00,VWS V14.01,2013-11-27 13:41:00,
2013-11-27 08:42:00,22.1,20.4,30.03,NW,321,0.0,0.0,93,0.00,,---,0.00,VWS V14.01,2013-11-27 13:42:00,
2013-11-27 08:43:00,22.1,20.4,30.03,NW,321,0.0,0.0,93,0.00,,---,0.00,VWS V14.01,2013-11-27 13:43:00,
2013-11-27 08:44:00,22.1,20.4,30.03,NW,321,0.0,0.0,93,0.00,,---,0.00,VWS V14.01,2013-11-27 13:44:00,
2013-11-27 08:45:00,22.1,20.4,30.04,NW,321,0.0,0.0,93,0.00,,---,0.00,VWS V14.01,2013-11-27 13:45:00,
2013-11-27 08:46:00,22.1,20.4,30.04,NW,321,0.0,0.0,93,0.00,,---,0.00,VWS V14.01,2013-11-27 13:46:00,
2013-11-27 08:47:00,22.1,20.4,30.04,NW,320,0.0,1.0,93,0.00,,---,0.00,VWS V14.01,2013-11-27 13:47:00,
2013-11-27 08:48:00,22.2,20.5,30.04,NW,320,0.0,1.0,93,0.00,,---,0.00,VWS V14.01,2013-11-27 13:48:00,
2013-11-27 08:49:00,22.2,20.5,30.04,NW,320,0.0,1.0,93,0.00,,---,0.00,VWS V14.01,2013-11-27 13:49:00,
2013-11-27 08:50:00,22.2,20.5,30.04,NW,320,0.0,1.0,93,0.00,,---,0.00,VWS V14.01,2013-11-27 13:50:00,
2013-11-27 08:51:00,22.2,20.5,30.04,NW,320,0.0,0.0,93,0.00,,---,0.00,VWS V14.01,2013-11-27 13:51:00,
2013-11-27 08:52:00,22.2,20.5,30.04,NW,320,0.0,0.0,93,0.00,,---,0.00,VWS V14.01,2013-11-27 13:52:00,
2013-11-27 08:53:00,22.2,20.5,30.04,NW,320,0.0,1.0,93,0.00,,---,0.00,VWS V14.01,2013-11-27 13:53:00,
2013-11-27 08:54:00,22.2,20.5,30.04,NW,320,0.0,1.0,93,0.00,,---,0.00,VWS V14.01,2013-11-27 13:54:00,
2013-11-27 08:55:00,22.2,20.5,30.04,NW,320,0.0,1.0,93,0.00,,---,0.00,VWS V14.01,2013-11-27 13:55:00,
2013-11-27 08:56:00,22.3,20.6,30.04,NW,320,0.0,0.0,93,0.00,,---,0.00,VWS V14.01,2013-11-27 13:56:00,
2013-11-27 08:57:00,22.3,20.6,30.04,NW,320,0.0,0.0,93,0.00,,---,0.00,VWS V14.01,2013-11-27 13:57:00,
2013-11-27 08:58:00,22.3,20.6,30.04,NW,320,0.0,0.0,93,0.00,,---,0.00,VWS V14.01,2013-11-27 13:58:00,
2013-11-27 08:59:00,22.3,20.6,30.04,NW,320,0.0,0.0,93,0.00,,---,0.00,VWS V14.01,2013-11-27 13:59:00,
2013-11-27 09:00:00,22.4,20.7,30.04,NW,320,0.0,0.0,93,0.00,,---,0.00,VWS V14.01,2013-11-27 14:00:00,
2013-11-27 09:01:00,22.4,20.7,30.04,WNW,285,0.0,1.0,93,0.00,,---,0.00,VWS V14.01,2013-11-27 14:01:00,
2013-11-27 09:02:00,22.4,20.7,30.04,WNW,289,0.0,1.0,93,0.00,,---,0.00,VWS V14.01,2013-11-27 14:02:00,
2013-11-27 09:03:00,22.4,20.7,30.04,WNW,289,0.0,1.0,93,0.00,,---,0.00,VWS V14.01,2013-11-27 14:03:00,
2013-11-27 09:04:00,22.4,20.7,30.04,WNW,289,0.0,1.0,93,0.00,,---,0.00,VWS V14.01,2013-11-27 14:04:00,
2013-11-27 09:05:00,22.5,20.8,30.04,WNW,289,0.0,1.0,93,0.00,,---,0.00,VWS V14.01,2013-11-27 14:05:00,
2013-11-27 09:06:00,22.5,20.8,30.04,WNW,297,0.0,0.0,93,0.00,,---,0.00,VWS V14.01,2013-11-27 14:06:00,
2013-11-27 09:07:00,22.5,20.8,30.04,WNW,297,0.0,0.0,93,0.00,,---,0.00,VWS V14.01,2013-11-27 14:07:00,
2013-11-27 09:08:00,22.5,20.8,30.04,WNW,297,0.0,0.0,93,0.00,,---,0.00,VWS V14.01,2013-11-27 14:08:00,
2013-11-27 09:09:00,22.6,20.9,30.04,WNW,297,0.0,0.0,93,0.00,,---,0.00,VWS V14.01,2013-11-27 14:09:00,
2013-11-27 09:10:00,22.6,20.9,30.04,WNW,297,0.0,0.0,93,0.00,,---,0.00,VWS V14.01,2013-11-27 14:10:00,
2013-11-27 09:11:00,22.6,20.9,30.04,WNW,297,0.0,0.0,93,0.00,,---,0.00,VWS V14.01,2013-11-27 14:11:00,
2013-11-27 09:12:00,22.6,20.9,30.04,WNW,297,0.0,0.0,93,0.00,,---,0.00,VWS V14.01,2013-11-27 14:12:00,
2013-11-27 09:13:00,22.6,20.9,30.04,WNW,297,0.0,0.0,93,0.00,,---,0.00,VWS V14.01,2013-11-27 14:13:00,
2013-11-27 09:14:00,22.7,21.0,30.04,WNW,296,0.0,0.0,93,0.00,,---,0.00,VWS V14.01,2013-11-27 14:14:00,
2013-11-27 09:15:00,22.7,21.0,30.04,WNW,295,0.0,0.0,93,0.00,,---,0.00,VWS V14.01,2013-11-27 14:15:00,
2013-11-27 09:16:00,22.7,21.0,30.04,WNW,295,0.0,1.0,93,0.00,,---,0.00,VWS V14.01,2013-11-27 14:16:00,
2013-11-27 09:17:00,22.7,21.0,30.04,WNW,295,0.0,1.0,93,0.00,,---,0.00,VWS V14.01,2013-11-27 14:17:00,
2013-11-27 09:18:00,22.7,21.0,30.04,WNW,290,0.0,2.0,93,0.00,,---,0.00,VWS V14.01,2013-11-27 14:18:00,
2013-11-27 09:19:00,22.7,21.0,30.04,WNW,289,0.0,2.0,93,0.00,,---,0.00,VWS V14.01,2013-11-27 14:19:00,
2013-11-27 09:20:00,22.7,21.0,30.04,WNW,289,0.0,2.0,93,0.00,,---,0.00,VWS V14.01,2013-11-27 14:20:00,
2013-11-27 09:21:00,22.7,21.0,30.04,WNW,289,0.0,0.0,93,0.00,,---,0.00,VWS V14.01,2013-11-27 14:21:00,
2013-11-27 09:22:00,22.7,20.7,30.04,West,267,1.0,1.0,92,0.00,,---,0.00,VWS V14.01,2013-11-27 14:22:00,
2013-11-27 09:23:00,22.7,20.7,30.04,West,266,0.0,2.0,92,0.00,,---,0.00,VWS V14.01,2013-11-27 14:23:00,
2013-11-27 09:24:00,22.7,20.7,30.04,West,266,0.0,2.0,92,0.00,,---,0.00,VWS V14.01,2013-11-27 14:24:00,
2013-11-27 09:25:00,22.7,20.7,30.04,West,265,0.0,2.0,92,0.00,,---,0.00,VWS V14.01,2013-11-27 14:25:00,
2013-11-27 09:26:00,22.7,20.7,30.04,West,265,0.0,0.0,92,0.00,,---,0.00,VWS V14.01,2013-11-27 14:26:00,
2013-11-27 09:27:00,22.7,20.7,30.04,West,265,0.0,0.0,92,0.00,,---,0.00,VWS V14.01,2013-11-27 14:27:00,
2013-11-27 09:28:00,22.7,20.7,30.04,West,265,0.0,0.0,92,0.00,,---,0.00,VWS V14.01,2013-11-27 14:28:00,
2013-11-27 09:29:00,22.7,20.7,30.04,West,265,0.0,0.0,92,0.00,,---,0.00,VWS V14.01,2013-11-27 14:29:00,
2013-11-27 09:30:00,22.8,20.8,30.03,West,265,0.0,0.0,92,0.00,,---,0.00,VWS V14.01,2013-11-27 14:30:00,
2013-11-27 09:31:00,22.8,20.8,30.03,West,265,0.0,0.0,92,0.00,,---,0.00,VWS V14.01,2013-11-27 14:31:00,
2013-11-27 09:32:00,22.8,20.8,30.03,West,265,0.0,1.0,92,0.00,,---,0.00,VWS V14.01,2013-11-27 14:32:00,
2013-11-27 09:33:00,22.8,20.8,30.03,West,265,0.0,1.0,92,0.00,,---,0.00,VWS V14.01,2013-11-27 14:33:00,
2013-11-27 09:34:00,22.8,20.8,30.03,West,265,0.0,1.0,92,0.00,,---,0.00,VWS V14.01,2013-11-27 14:34:00,
2013-11-27 09:35:00,22.9,20.9,30.03,West,265,0.0,1.0,92,0.00,,---,0.00,VWS V14.01,2013-11-27 14:35:00,
2013-11-27 09:36:00,22.9,20.9,30.03,West,267,1.0,1.0,92,0.00,,---,0.00,VWS V14.01,2013-11-27 14:36:00,
2013-11-27 09:37:00,22.9,20.9,30.03,West,267,0.0,1.0,92,0.00,,---,0.00,VWS V14.01,2013-11-27 14:37:00,
2013-11-27 09:38:00,23.0,21.0,30.03,West,267,0.0,1.0,92,0.00,,---,0.00,VWS V14.01,2013-11-27 14:38:00,
2013-11-27 09:39:00,23.0,21.0,30.03,West,267,0.0,1.0,92,0.00,,---,0.00,VWS V14.01,2013-11-27 14:39:00,
2013-11-27 09:40:00,23.0,21.0,30.03,West,267,0.0,1.0,92,0.00,,---,0.00,VWS V14.01,2013-11-27 14:40:00,
2013-11-27 09:41:00,23.1,21.1,30.03,West,267,0.0,0.0,92,0.00,,---,0.00,VWS V14.01,2013-11-27 14:41:00,
2013-11-27 09:42:00,23.1,21.1,30.03,North,359,0.0,2.0,92,0.00,,---,0.00,VWS V14.01,2013-11-27 14:42:00,
2013-11-27 09:43:00,23.3,21.3,30.03,NW,316,1.0,2.0,92,0.00,,---,0.00,VWS V14.01,2013-11-27 14:43:00,
2013-11-27 09:44:00,23.3,21.3,30.03,WNW,294,0.0,2.0,92,0.00,,---,0.00,VWS V14.01,2013-11-27 14:44:00,
2013-11-27 09:45:00,23.5,21.5,30.04,WNW,288,0.0,2.0,92,0.00,,---,0.00,VWS V14.01,2013-11-27 14:45:00,
2013-11-27 09:46:00,23.6,21.6,30.04,WNW,288,0.0,0.0,92,0.00,,---,0.00,VWS V14.01,2013-11-27 14:46:00,
2013-11-27 09:47:00,23.9,21.9,30.04,WNW,288,0.0,0.0,92,0.00,,---,0.00,VWS V14.01,2013-11-27 14:47:00,
2013-11-27 09:48:00,24.1,21.9,30.04,WNW,288,0.0,0.0,91,0.00,,---,0.00,VWS V14.01,2013-11-27 14:48:00,
2013-11-27 09:49:00,24.1,21.9,30.04,WNW,288,0.0,0.0,91,0.00,,---,0.00,VWS V14.01,2013-11-27 14:49:00,
2013-11-27 09:50:00,24.2,22.0,30.04,WNW,288,0.0,0.0,91,0.00,,---,0.00,VWS V14.01,2013-11-27 14:50:00,
2013-11-27 09:51:00,24.3,22.1,30.04,WNW,288,0.0,0.0,91,0.00,,---,0.00,VWS V14.01,2013-11-27 14:51:00,
2013-11-27 09:52:00,22.7,20.7,30.04,West,265,0.0,0.0,92,0.00,,---,0.00,VWS V14.01,2013-11-27 14:52:00,
2013-11-27 09:53:00,24.3,21.8,30.04,WNW,288,0.0,0.0,90,0.00,,---,0.00,VWS V14.01,2013-11-27 14:53:00,
2013-11-27 09:54:00,24.3,21.8,30.04,WNW,288,0.0,0.0,90,0.00,,---,0.00,VWS V14.01,2013-11-27 14:54:00,
2013-11-27 09:55:00,24.3,21.8,30.04,WNW,288,0.0,1.0,90,0.00,,---,0.00,VWS V14.01,2013-11-27 14:55:00,
2013-11-27 09:56:00,24.3,21.8,30.04,WNW,291,0.0,0.0,90,0.00,,---,0.00,VWS V14.01,2013-11-27 14:56:00,
2013-11-27 09:57:00,24.3,21.8,30.04,WNW,291,0.0,0.0,90,0.00,,---,0.00,VWS V14.01,2013-11-27 14:57:00,
2013-11-27 09:58:00,24.4,21.9,30.04,WNW,291,0.0,1.0,90,0.00,,---,0.00,VWS V14.01,2013-11-27 14:58:00,
2013-11-27 09:59:00,24.4,21.9,30.04,West,274,3.0,3.0,90,0.00,,---,0.00,VWS V14.01,2013-11-27 14:59:00,
2013-11-27 10:00:00,24.4,21.9,30.03,WSW,256,0.0,3.0,90,0.00,,---,0.00,VWS V14.01,2013-11-27 15:00:00,
2013-11-27 10:01:00,24.4,21.9,30.03,WSW,256,2.0,2.0,90,0.00,,---,0.00,VWS V14.01,2013-11-27 15:01:00,
2013-11-27 10:02:00,24.4,21.9,30.03,West,271,0.0,3.0,90,0.00,,---,0.00,VWS V14.01,2013-11-27 15:02:00,
2013-11-27 10:03:00,24.3,21.8,30.03,West,274,0.0,3.0,90,0.00,,---,0.00,VWS V14.01,2013-11-27 15:03:00,
2013-11-27 10:04:00,24.4,21.9,30.03,West,280,0.0,3.0,90,0.00,,---,0.00,VWS V14.01,2013-11-27 15:04:00,
2013-11-27 10:05:00,24.3,21.8,30.03,West,280,0.0,3.0,90,0.00,,---,0.00,VWS V14.01,2013-11-27 15:05:00,
2013-11-27 10:06:00,24.4,21.9,30.03,West,280,0.0,1.0,90,0.00,,---,0.00,VWS V14.01,2013-11-27 15:06:00,
2013-11-27 10:07:00,24.4,21.9,30.03,West,280,0.0,1.0,90,0.00,,---,0.00,VWS V14.01,2013-11-27 15:07:00,
2013-11-27 10:08:00,24.4,21.9,30.03,West,280,0.0,1.0,90,0.00,,---,0.00,VWS V14.01,2013-11-27 15:08:00,
2013-11-27 10:09:00,24.4,21.9,30.03,NW,312,2.0,2.0,90,0.00,,---,0.00,VWS V14.01,2013-11-27 15:09:00,
2013-11-27 10:10:00,24.4,21.9,30.03,NW,311,0.0,2.0,90,0.00,,---,0.00,VWS V14.01,2013-11-27 15:10:00,
2013-11-27 10:11:00,24.4,21.9,30.03,West,266,0.0,3.0,90,0.00,,---,0.00,VWS V14.01,2013-11-27 15:11:00,
2013-11-27 10:12:00,24.4,21.9,30.03,West,269,0.0,3.0,90,0.00,,---,0.00,VWS V14.01,2013-11-27 15:12:00,
2013-11-27 10:13:00,24.4,21.9,30.03,West,269,0.0,3.0,90,0.00,,---,0.00,VWS V14.01,2013-11-27 15:13:00,
2013-11-27 10:14:00,24.5,22.0,30.03,West,269,0.0,3.0,90,0.00,,---,0.00,VWS V14.01,2013-11-27 15:14:00,
2013-11-27 10:15:00,24.5,22.0,30.03,West,269,0.0,3.0,90,0.00,,---,0.00,VWS V14.01,2013-11-27 15:15:00,
2013-11-27 10:16:00,24.5,22.0,30.03,West,269,0.0,0.0,90,0.00,,---,0.00,VWS V14.01,2013-11-27 15:16:00,
2013-11-27 10:17:00,24.5,22.0,30.03,West,269,0.0,0.0,90,0.00,,---,0.00,VWS V14.01,2013-11-27 15:17:00,
2013-11-27 10:18:00,24.5,22.0,30.03,West,269,0.0,0.0,90,0.00,,---,0.00,VWS V14.01,2013-11-27 15:18:00,
2013-11-27 10:19:00,24.5,22.0,30.03,WNW,283,0.0,3.0,90,0.00,,---,0.00,VWS V14.01,2013-11-27 15:19:00,
2013-11-27 10:20:00,24.6,22.1,30.03,WSW,239,0.0,4.0,90,0.00,,---,0.00,VWS V14.01,2013-11-27 15:20:00,
2013-11-27 10:21:00,24.6,22.1,30.03,NNW,336,0.0,2.0,90,0.00,,---,0.00,VWS V14.01,2013-11-27 15:21:00,
2013-11-27 10:22:00,24.7,22.2,30.03,NNW,336,0.0,2.0,90,0.00,,---,0.00,VWS V14.01,2013-11-27 15:22:00,
2013-11-27 10:23:00,24.7,21.9,30.03,NW,316,0.0,2.0,89,0.00,,---,0.00,VWS V14.01,2013-11-27 15:23:00,
2013-11-27 10:24:00,24.8,22.0,30.03,NW,316,0.0,2.0,89,0.00,,---,0.00,VWS V14.01,2013-11-27 15:24:00,
2013-11-27 10:25:00,24.8,22.0,30.03,NNW,329,2.0,2.0,89,0.00,,---,0.00,VWS V14.01,2013-11-27 15:25:00,
2013-11-27 10:26:00,24.8,22.0,30.03,NNW,332,0.0,1.0,89,0.00,,---,0.00,VWS V14.01,2013-11-27 15:26:00,
2013-11-27 10:27:00,24.8,22.0,30.03,NW,319,0.0,1.0,89,0.00,,---,0.00,VWS V14.01,2013-11-27 15:27:00,
2013-11-27 10:28:00,24.8,22.0,30.03,WSW,251,0.0,3.0,89,0.00,,---,0.00,VWS V14.01,2013-11-27 15:28:00,
2013-11-27 10:29:00,24.8,22.0,30.03,West,281,0.0,3.0,89,0.00,,---,0.00,VWS V14.01,2013-11-27 15:29:00,
2013-11-27 10:30:00,24.8,22.0,30.03,West,281,0.0,3.0,89,0.00,,---,0.00,VWS V14.01,2013-11-27 15:30:00,
2013-11-27 10:31:00,24.8,22.0,30.03,West,281,0.0,0.0,89,0.00,,---,0.00,VWS V14.01,2013-11-27 15:31:00,
2013-11-27 10:32:00,24.8,22.0,30.03,West,281,0.0,2.0,89,0.00,,---,0.00,VWS V14.01,2013-11-27 15:32:00,
2013-11-27 10:33:00,24.8,22.0,30.03,West,281,1.0,2.0,89,0.00,,---,0.00,VWS V14.01,2013-11-27 15:33:00,
2013-11-27 10:34:00,24.8,22.0,30.03,West,281,0.0,2.0,89,0.00,,---,0.00,VWS V14.01,2013-11-27 15:34:00,
2013-11-27 10:35:00,24.8,22.0,30.03,West,281,0.0,2.0,89,0.00,,---,0.00,VWS V14.01,2013-11-27 15:35:00,
2013-11-27 10:36:00,24.8,22.0,30.03,West,281,0.0,0.0,89,0.00,,---,0.00,VWS V14.01,2013-11-27 15:36:00,
2013-11-27 10:37:00,24.8,22.0,30.03,West,281,0.0,0.0,89,0.00,,---,0.00,VWS V14.01,2013-11-27 15:37:00,
2013-11-27 10:38:00,24.8,22.0,30.03,West,281,1.0,1.0,89,0.00,,---,0.00,VWS V14.01,2013-11-27 15:38:00,
2013-11-27 10:39:00,24.8,22.3,30.03,West,271,0.0,2.0,90,0.00,,---,0.00,VWS V14.01,2013-11-27 15:39:00,
2013-11-27 10:40:00,24.8,22.3,30.03,West,273,0.0,2.0,90,0.00,,---,0.00,VWS V14.01,2013-11-27 15:40:00,
2013-11-27 10:41:00,24.8,22.3,30.03,West,273,0.0,0.0,90,0.00,,---,0.00,VWS V14.01,2013-11-27 15:41:00,
2013-11-27 10:42:00,24.7,22.2,30.03,West,273,0.0,1.0,90,0.00,,---,0.00,VWS V14.01,2013-11-27 15:42:00,
2013-11-27 10:43:00,24.7,22.2,30.03,West,273,0.0,1.0,90,0.00,,---,0.00,VWS V14.01,2013-11-27 15:43:00,
2013-11-27 10:44:00,24.7,22.2,30.03,WSW,253,0.0,3.0,90,0.00,,---,0.00,VWS V14.01,2013-11-27 15:44:00,
2013-11-27 10:45:00,24.7,22.2,30.03,NNW,335,0.0,4.0,90,0.00,,---,0.00,VWS V14.01,2013-11-27 15:45:00,
2013-11-27 10:46:00,24.7,22.2,30.03,NNW,345,0.0,0.0,90,0.00,,---,0.00,VWS V14.01,2013-11-27 15:46:00,
2013-11-27 10:47:00,24.6,22.1,30.03,NNW,345,0.0,0.0,90,0.00,,---,0.00,VWS V14.01,2013-11-27 15:47:00,
2013-11-27 10:48:00,24.6,22.1,30.03,NNW,345,0.0,0.0,90,0.00,,---,0.00,VWS V14.01,2013-11-27 15:48:00,
2013-11-27 10:49:00,24.6,22.1,30.03,NW,322,0.0,1.0,90,0.00,,---,0.00,VWS V14.01,2013-11-27 15:49:00,
2013-11-27 10:50:00,24.6,22.1,30.03,WNW,283,0.0,2.0,90,0.00,,---,0.00,VWS V14.01,2013-11-27 15:50:00,
2013-11-27 10:51:00,24.7,22.2,30.03,WNW,283,0.0,0.0,90,0.00,,---,0.00,VWS V14.01,2013-11-27 15:51:00,
2013-11-27 10:52:00,24.7,22.2,30.03,WNW,283,0.0,1.0,90,0.00,,---,0.00,VWS V14.01,2013-11-27 15:52:00,
2013-11-27 10:53:00,24.9,22.4,30.03,WNW,283,0.0,1.0,90,0.00,,---,0.00,VWS V14.01,2013-11-27 15:53:00,
2013-11-27 10:54:00,25.0,22.5,30.03,West,264,1.0,2.0,90,0.00,,---,0.00,VWS V14.01,2013-11-27 15:54:00,
2013-11-27 10:55:00,25.1,22.6,30.03,West,264,0.0,2.0,90,0.00,,---,0.00,VWS V14.01,2013-11-27 15:55:00,
2013-11-27 10:56:00,25.1,22.3,30.03,West,264,0.0,0.0,89,0.00,,---,0.00,VWS V14.01,2013-11-27 15:56:00,
2013-11-27 10:57:00,25.2,22.4,30.03,West,264,3.0,3.0,89,0.00,,---,0.00,VWS V14.01,2013-11-27 15:57:00,
2013-11-27 10:58:00,25.2,22.4,30.03,West,264,0.0,3.0,89,0.00,,---,0.00,VWS V14.01,2013-11-27 15:58:00,
2013-11-27 10:59:00,25.3,22.5,30.03,West,264,0.0,3.0,89,0.00,,---,0.00,VWS V14.01,2013-11-27 15:59:00,
2013-11-27 11:00:00,25.4,22.6,30.02,West,265,0.0,3.0,89,0.00,,---,0.00,VWS V14.01,2013-11-27 16:00:00,
2013-11-27 11:01:00,25.4,22.6,30.02,West,265,0.0,1.0,89,0.00,,---,0.00,VWS V14.01,2013-11-27 16:01:00,
2013-11-27 11:02:00,25.4,22.6,30.02,West,265,0.0,1.0,89,0.00,,---,0.00,VWS V14.01,2013-11-27 16:02:00,
2013-11-27 11:03:00,25.4,22.6,30.02,West,265,0.0,1.0,89,0.00,,---,0.00,VWS V14.01,2013-11-27 16:03:00,
2013-11-27 11:04:00,25.4,22.6,30.02,WSW,242,0.0,2.0,89,0.00,,---,0.00,VWS V14.01,2013-11-27 16:04:00,
2013-11-27 11:05:00,25.4,22.6,30.02,WSW,242,0.0,2.0,89,0.00,,---,0.00,VWS V14.01,2013-11-27 16:05:00,
2013-11-27 11:06:00,25.4,22.6,30.02,WSW,242,0.0,2.0,89,0.00,,---,0.00,VWS V14.01,2013-11-27 16:06:00,
2013-11-27 11:07:00,25.4,22.6,30.02,West,273,1.0,3.0,89,0.00,,---,0.00,VWS V14.01,2013-11-27 16:07:00,
2013-11-27 11:08:00,25.3,22.5,30.02,West,269,0.0,3.0,89,0.00,,---,0.00,VWS V14.01,2013-11-27 16:08:00,
2013-11-27 11:09:00,25.3,22.5,30.02,West,269,0.0,3.0,89,0.00,,---,0.00,VWS V14.01,2013-11-27 16:09:00,
2013-11-27 11:10:00,25.2,22.4,30.02,West,268,0.0,3.0,89,0.00,,---,0.00,VWS V14.01,2013-11-27 16:10:00,
2013-11-27 11:11:00,25.2,22.4,30.02,West,268,0.0,2.0,89,0.00,,---,0.00,VWS V14.01,2013-11-27 16:11:00,
2013-11-27 11:12:00,25.1,22.3,30.02,West,269,0.0,2.0,89,0.00,,---,0.00,VWS V14.01,2013-11-27 16:12:00,
2013-11-27 11:13:00,25.1,22.3,30.02,West,269,0.0,2.0,89,0.00,,---,0.00,VWS V14.01,2013-11-27 16:13:00,
2013-11-27 11:14:00,25.1,22.3,30.02,West,269,0.0,2.0,89,0.00,,---,0.00,VWS V14.01,2013-11-27 16:14:00,
2013-11-27 11:15:00,25.1,22.6,30.02,West,269,0.0,2.0,90,0.00,,---,0.00,VWS V14.01,2013-11-27 16:15:00,
2013-11-27 11:16:00,25.1,22.6,30.02,West,269,0.0,0.0,90,0.00,,---,0.00,VWS V14.01,2013-11-27 16:16:00,
2013-11-27 11:17:00,25.1,22.6,30.02,West,269,0.0,1.0,90,0.00,,---,0.00,VWS V14.01,2013-11-27 16:17:00,
2013-11-27 11:18:00,25.0,22.5,30.02,West,269,0.0,1.0,90,0.00,,---,0.00,VWS V14.01,2013-11-27 16:18:00,
2013-11-27 11:19:00,25.0,22.5,30.02,West,264,1.0,1.0,90,0.00,,---,0.00,VWS V14.01,2013-11-27 16:19:00,
2013-11-27 11:20:00,25.0,22.5,30.02,West,279,2.0,2.0,90,0.00,,---,0.00,VWS V14.01,2013-11-27 16:20:00,
2013-11-27 11:21:00,24.9,22.4,30.02,West,279,0.0,1.0,90,0.00,,---,0.00,VWS V14.01,2013-11-27 16:21:00,
2013-11-27 11:22:00,24.9,22.4,30.02,West,276,0.0,1.0,90,0.00,,---,0.00,VWS V14.01,2013-11-27 16:22:00,
2013-11-27 11:23:00,24.9,22.4,30.02,West,266,0.0,1.0,90,0.00,,---,0.00,VWS V14.01,2013-11-27 16:23:00,
2013-11-27 11:24:00,24.9,22.4,30.02,NNW,347,0.0,2.0,90,0.00,,---,0.00,VWS V14.01,2013-11-27 16:24:00,
2013-11-27 11:25:00,24.9,22.4,30.02,NNW,347,0.0,2.0,90,0.00,,---,0.00,VWS V14.01,2013-11-27 16:25:00,
2013-11-27 11:26:00,24.9,22.4,30.02,NNW,347,0.0,0.0,90,0.00,,---,0.00,VWS V14.01,2013-11-27 16:26:00,
2013-11-27 11:27:00,24.9,22.4,30.02,NNW,347,0.0,0.0,90,0.00,,---,0.00,VWS V14.01,2013-11-27 16:27:00,
2013-11-27 11:28:00,24.9,22.4,30.02,NNW,347,0.0,0.0,90,0.00,,---,0.00,VWS V14.01,2013-11-27 16:28:00,
2013-11-27 11:29:00,24.9,22.4,30.02,NNW,347,0.0,0.0,90,0.00,,---,0.00,VWS V14.01,2013-11-27 16:29:00,
2013-11-27 11:30:00,24.9,22.4,30.02,NW,319,1.0,1.0,90,0.00,,---,0.00,VWS V14.01,2013-11-27 16:30:00,
2013-11-27 11:31:00,24.9,22.4,30.02,NW,313,1.0,1.0,90,0.00,,---,0.00,VWS V14.01,2013-11-27 16:31:00,
2013-11-27 11:32:00,24.9,22.4,30.02,NW,313,1.0,1.0,90,0.00,,---,0.00,VWS V14.01,2013-11-27 16:32:00,
2013-11-27 11:33:00,24.9,22.6,30.02,NW,313,0.0,1.0,91,0.00,,---,0.00,VWS V14.01,2013-11-27 16:33:00,
2013-11-27 11:34:00,24.9,22.6,30.02,WSW,238,1.0,1.0,91,0.00,,---,0.00,VWS V14.01,2013-11-27 16:34:00,
2013-11-27 11:35:00,24.9,22.6,30.02,NW,314,0.0,2.0,91,0.00,,---,0.00,VWS V14.01,2013-11-27 16:35:00,
2013-11-27 11:36:00,25.0,22.8,30.02,WNW,283,1.0,2.0,91,0.00,,---,0.00,VWS V14.01,2013-11-27 16:36:00,
2013-11-27 11:37:00,25.0,22.8,30.02,WNW,283,0.0,2.0,91,0.00,,---,0.00,VWS V14.01,2013-11-27 16:37:00,
2013-11-27 11:38:00,25.0,22.8,30.02,WNW,283,0.0,2.0,91,0.00,,---,0.00,VWS V14.01,2013-11-27 16:38:00,
2013-11-27 11:39:00,25.1,22.9,30.02,WNW,283,2.0,3.0,91,0.00,,---,0.00,VWS V14.01,2013-11-27 16:39:00,
2013-11-27 11:40:00,25.1,22.9,30.02,West,276,0.0,3.0,91,0.00,,---,0.00,VWS V14.01,2013-11-27 16:40:00,
2013-11-27 11:41:00,25.2,23.0,30.02,West,278,0.0,0.0,91,0.00,,---,0.00,VWS V14.01,2013-11-27 16:41:00,
2013-11-27 11:42:00,25.3,23.0,30.02,West,279,1.0,1.0,91,0.00,,---,0.00,VWS V14.01,2013-11-27 16:42:00,
2013-11-27 11:43:00,25.4,23.1,30.02,WSW,240,0.0,3.0,91,0.00,,---,0.00,VWS V14.01,2013-11-27 16:43:00,
2013-11-27 11:44:00,25.4,23.1,30.02,WSW,252,0.0,3.0,91,0.00,,---,0.00,VWS V14.01,2013-11-27 16:44:00,
2013-11-27 11:45:00,25.5,23.2,30.01,WNW,297,0.0,3.0,91,0.00,,---,0.00,VWS V14.01,2013-11-27 16:45:00,
2013-11-27 11:46:00,25.6,23.3,30.01,WNW,297,0.0,1.0,91,0.00,,---,0.00,VWS V14.01,2013-11-27 16:46:00,
2013-11-27 11:47:00,25.7,23.4,30.01,WNW,295,0.0,1.0,91,0.00,,---,0.00,VWS V14.01,2013-11-27 16:47:00,
2013-11-27 11:48:00,25.8,23.5,30.01,WNW,295,0.0,1.0,91,0.00,,---,0.00,VWS V14.01,2013-11-27 16:48:00,
2013-11-27 11:49:00,25.9,23.6,30.01,West,273,0.0,1.0,91,0.00,,---,0.00,VWS V14.01,2013-11-27 16:49:00,
2013-11-27 11:50:00,26.0,23.7,30.01,West,273,0.0,1.0,91,0.00,,---,0.00,VWS V14.01,2013-11-27 16:50:00,
2013-11-27 11:51:00,26.2,23.7,30.01,West,272,0.0,2.0,90,0.00,,---,0.00,VWS V14.01,2013-11-27 16:51:00,
2013-11-27 11:52:00,26.3,23.8,30.01,West,272,3.0,3.0,90,0.00,,---,0.00,VWS V14.01,2013-11-27 16:52:00,
2013-11-27 11:53:00,26.4,23.9,30.01,WNW,283,0.0,3.0,90,0.00,,---,0.00,VWS V14.01,2013-11-27 16:53:00,
2013-11-27 11:54:00,26.5,23.7,30.01,WNW,283,1.0,3.0,89,0.00,,---,0.00,VWS V14.01,2013-11-27 16:54:00,
2013-11-27 11:55:00,26.5,23.7,30.01,WNW,283,0.0,3.0,89,0.00,,---,0.00,VWS V14.01,2013-11-27 16:55:00,
2013-11-27 11:56:00,26.6,23.5,30.01,SE,146,0.0,4.0,88,0.00,,---,0.00,VWS V14.01,2013-11-27 16:56:00,
2013-11-27 11:57:00,26.6,23.5,30.01,WSW,257,0.0,4.0,88,0.00,,---,0.00,VWS V14.01,2013-11-27 16:57:00,
2013-11-27 11:58:00,26.7,23.6,30.01,West,264,0.0,4.0,88,0.00,,---,0.00,VWS V14.01,2013-11-27 16:58:00,
2013-11-27 11:59:00,26.7,23.6,30.01,NW,319,2.0,4.0,88,0.00,,---,0.00,VWS V14.01,2013-11-27 16:59:00,
2013-11-27 12:00:00,26.8,23.7,30.00,NW,319,0.0,4.0,88,0.00,,---,0.00,VWS V14.01,2013-11-27 17:00:00,
2013-11-27 12:01:00,26.9,23.8,30.00,WNW,297,0.0,1.0,88,0.00,,---,0.00,VWS V14.01,2013-11-27 17:01:00,
2013-11-27 12:02:00,26.9,23.8,30.00,West,270,3.0,3.0,88,0.00,,---,0.00,VWS V14.01,2013-11-27 17:02:00,
2013-11-27 12:03:00,27.0,23.6,30.00,West,263,0.0,4.0,87,0.00,,---,0.00,VWS V14.01,2013-11-27 17:03:00,
2013-11-27 12:04:00,27.0,23.6,30.00,West,261,1.0,4.0,87,0.00,,---,0.00,VWS V14.01,2013-11-27 17:04:00,
2013-11-27 12:05:00,27.0,23.6,30.00,West,262,1.0,4.0,87,0.00,,---,0.00,VWS V14.01,2013-11-27 17:05:00,
2013-11-27 12:06:00,27.0,23.6,30.00,West,261,0.0,1.0,87,0.00,,---,0.00,VWS V14.01,2013-11-27 17:06:00,
2013-11-27 12:07:00,27.1,23.5,30.00,North,355,4.0,4.0,86,0.00,,---,0.00,VWS V14.01,2013-11-27 17:07:00,
2013-11-27 12:08:00,27.1,23.5,30.00,NNW,342,1.0,4.0,86,0.00,,---,0.00,VWS V14.01,2013-11-27 17:08:00,
2013-11-27 12:09:00,27.1,23.5,30.00,NNW,337,0.0,4.0,86,0.00,,---,0.00,VWS V14.01,2013-11-27 17:09:00,
2013-11-27 12:10:00,27.1,23.5,30.00,NNW,331,0.0,4.0,86,0.00,,---,0.00,VWS V14.01,2013-11-27 17:10:00,
2013-11-27 12:11:00,27.2,23.6,30.00,SW,231,0.0,2.0,86,0.00,,---,0.00,VWS V14.01,2013-11-27 17:11:00,
2013-11-27 12:12:00,27.2,23.6,30.00,West,259,3.0,3.0,86,0.00,,---,0.00,VWS V14.01,2013-11-27 17:12:00,
2013-11-27 12:13:00,27.2,23.6,30.00,WSW,252,0.0,3.0,86,0.00,,---,0.00,VWS V14.01,2013-11-27 17:13:00,
2013-11-27 12:14:00,27.1,23.5,30.00,West,271,1.0,3.0,86,0.00,,---,0.00,VWS V14.01,2013-11-27 17:14:00,
2013-11-27 12:15:00,27.1,23.5,30.00,West,264,0.0,3.0,86,0.00,,---,0.00,VWS V14.01,2013-11-27 17:15:00,
2013-11-27 12:16:00,27.1,23.5,30.00,West,266,0.0,0.0,86,0.00,,---,0.00,VWS V14.01,2013-11-27 17:16:00,
2013-11-27 12:17:00,27.0,23.4,30.00,West,271,0.0,3.0,86,0.00,,---,0.00,VWS V14.01,2013-11-27 17:17:00,
2013-11-27 12:18:00,27.0,23.6,30.00,West,271,0.0,3.0,87,0.00,,---,0.00,VWS V14.01,2013-11-27 17:18:00,
2013-11-27 12:19:00,27.0,23.6,30.00,West,271,0.0,3.0,87,0.00,,---,0.00,VWS V14.01,2013-11-27 17:19:00,
2013-11-27 12:20:00,27.1,23.8,30.00,West,271,0.0,3.0,87,0.00,,---,0.00,VWS V14.01,2013-11-27 17:20:00,
2013-11-27 12:21:00,27.2,23.6,30.00,WNW,297,0.0,2.0,86,0.00,,---,0.00,VWS V14.01,2013-11-27 17:21:00,
2013-11-27 12:22:00,27.2,23.6,30.00,WNW,288,1.0,2.0,86,0.00,,---,0.00,VWS V14.01,2013-11-27 17:22:00,
2013-11-27 12:23:00,27.2,23.6,30.00,WNW,289,2.0,2.0,86,0.00,,---,0.00,VWS V14.01,2013-11-27 17:23:00,
2013-11-27 12:24:00,27.2,23.6,30.00,WNW,289,0.0,2.0,86,0.00,,---,0.00,VWS V14.01,2013-11-27 17:24:00,
2013-11-27 12:25:00,27.2,23.6,30.00,WNW,293,0.0,5.0,86,0.00,,---,0.00,VWS V14.01,2013-11-27 17:25:00,
2013-11-27 12:26:00,27.2,23.6,30.00,WNW,287,1.0,3.0,86,0.00,,---,0.00,VWS V14.01,2013-11-27 17:26:00,
2013-11-27 12:27:00,27.1,23.5,30.00,West,281,1.0,3.0,86,0.00,,---,0.00,VWS V14.01,2013-11-27 17:27:00,
2013-11-27 12:28:00,27.0,23.6,30.00,WNW,293,0.0,3.0,87,0.00,,---,0.00,VWS V14.01,2013-11-27 17:28:00,
2013-11-27 12:29:00,27.0,23.6,30.00,WNW,290,0.0,3.0,87,0.00,,---,0.00,VWS V14.01,2013-11-27 17:29:00,
2013-11-27 12:30:00,26.9,23.6,30.00,WNW,290,0.0,3.0,87,0.00,,---,0.00,VWS V14.01,2013-11-27 17:30:00,
2013-11-27 12:31:00,26.9,23.6,30.00,WNW,290,0.0,0.0,87,0.00,,---,0.00,VWS V14.01,2013-11-27 17:31:00,
2013-11-27 12:32:00,26.9,23.6,30.00,WNW,290,0.0,1.0,87,0.00,,---,0.00,VWS V14.01,2013-11-27 17:32:00,
2013-11-27 12:33:00,26.8,23.7,30.00,WNW,292,1.0,3.0,88,0.00,,---,0.00,VWS V14.01,2013-11-27 17:33:00,
2013-11-27 12:34:00,26.8,23.7,30.00,WNW,291,0.0,3.0,88,0.00,,---,0.00,VWS V14.01,2013-11-27 17:34:00,
2013-11-27 12:35:00,26.8,23.5,30.00,WNW,297,2.0,3.0,87,0.00,,---,0.00,VWS V14.01,2013-11-27 17:35:00,
2013-11-27 12:36:00,26.7,23.4,30.00,NW,312,1.0,1.0,87,0.00,,---,0.00,VWS V14.01,2013-11-27 17:36:00,
2013-11-27 12:37:00,26.7,23.6,30.00,NNW,329,0.0,1.0,88,0.00,,---,0.00,VWS V14.01,2013-11-27 17:37:00,
2013-11-27 12:38:00,26.7,23.4,30.00,NNW,329,0.0,1.0,87,0.00,,---,0.00,VWS V14.01,2013-11-27 17:38:00,
2013-11-27 12:39:00,26.6,23.3,30.00,NNW,329,0.0,1.0,87,0.00,,---,0.00,VWS V14.01,2013-11-27 17:39:00,
2013-11-27 12:40:00,26.6,23.3,30.00,WNW,300,0.0,1.0,87,0.00,,---,0.00,VWS V14.01,2013-11-27 17:40:00,
2013-11-27 12:41:00,26.6,23.3,30.00,WNW,282,1.0,2.0,87,0.00,,---,0.00,VWS V14.01,2013-11-27 17:41:00,
2013-11-27 12:42:00,26.6,23.3,30.00,WNW,282,0.0,2.0,87,0.00,,---,0.00,VWS V14.01,2013-11-27 17:42:00,
2013-11-27 12:43:00,26.7,23.1,30.00,WNW,282,0.0,2.0,86,0.00,,---,0.00,VWS V14.01,2013-11-27 17:43:00,
2013-11-27 12:44:00,26.8,23.2,30.00,WNW,282,0.0,2.0,86,0.00,,---,0.00,VWS V14.01,2013-11-27 17:44:00,
2013-11-27 12:45:00,26.9,23.3,30.00,West,279,1.0,2.0,86,0.00,,---,0.00,VWS V14.01,2013-11-27 17:45:00,
2013-11-27 12:46:00,27.0,23.1,30.00,WNW,290,0.0,1.0,85,0.00,,---,0.00,VWS V14.01,2013-11-27 17:46:00,
2013-11-27 12:47:00,27.0,23.1,30.00,West,267,0.0,4.0,85,0.00,,---,0.00,VWS V14.01,2013-11-27 17:47:00,
2013-11-27 12:48:00,27.0,23.1,30.00,West,268,0.0,4.0,85,0.00,,---,0.00,VWS V14.01,2013-11-27 17:48:00,
2013-11-27 12:49:00,27.0,23.1,30.00,WSW,252,0.0,4.0,85,0.00,,---,0.00,VWS V14.01,2013-11-27 17:49:00,
2013-11-27 12:50:00,27.0,23.1,30.00,WSW,252,0.0,4.0,85,0.00,,---,0.00,VWS V14.01,2013-11-27 17:50:00,
2013-11-27 12:51:00,26.9,23.3,30.00,WSW,252,0.0,2.0,86,0.00,,---,0.00,VWS V14.01,2013-11-27 17:51:00,
2013-11-27 12:52:00,26.9,23.3,30.00,WSW,252,0.0,2.0,86,0.00,,---,0.00,VWS V14.01,2013-11-27 17:52:00,
2013-11-27 12:53:00,26.8,23.2,30.00,WSW,252,0.0,2.0,86,0.00,,---,0.00,VWS V14.01,2013-11-27 17:53:00,
2013-11-27 12:54:00,26.7,23.1,30.00,WSW,252,0.0,2.0,86,0.00,,---,0.00,VWS V14.01,2013-11-27 17:54:00,
2013-11-27 12:55:00,26.7,23.1,30.00,WSW,252,0.0,2.0,86,0.00,,---,0.00,VWS V14.01,2013-11-27 17:55:00,
2013-11-27 12:56:00,26.7,23.1,30.00,WSW,249,1.0,3.0,86,0.00,,---,0.00,VWS V14.01,2013-11-27 17:56:00,
2013-11-27 12:57:00,26.6,23.0,30.00,West,259,0.0,3.0,86,0.00,,---,0.00,VWS V14.01,2013-11-27 17:57:00,
2013-11-27 12:58:00,26.6,23.0,30.00,West,263,0.0,3.0,86,0.00,,---,0.00,VWS V14.01,2013-11-27 17:58:00,
2013-11-27 12:59:00,26.5,22.9,30.00,West,263,0.0,3.0,86,0.00,,---,0.00,VWS V14.01,2013-11-27 17:59:00,
2013-11-27 13:00:00,26.5,22.9,30.00,West,277,0.0,3.0,86,0.00,,---,0.00,VWS V14.01,2013-11-27 18:00:00,
2013-11-27 13:01:00,26.5,22.9,30.00,West,266,0.0,3.0,86,0.00,,---,0.00,VWS V14.01,2013-11-27 18:01:00,
2013-11-27 13:02:00,26.5,23.2,30.00,West,279,1.0,3.0,87,0.00,,---,0.00,VWS V14.01,2013-11-27 18:02:00,
2013-11-27 13:03:00,26.5,22.9,30.00,WSW,257,1.0,3.0,86,0.00,,---,0.00,VWS V14.01,2013-11-27 18:03:00,
2013-11-27 13:04:00,26.6,23.0,30.00,WSW,242,0.0,3.0,86,0.00,,---,0.00,VWS V14.01,2013-11-27 18:04:00,
2013-11-27 13:05:00,26.6,23.0,30.00,West,273,0.0,3.0,86,0.00,,---,0.00,VWS V14.01,2013-11-27 18:05:00,
2013-11-27 13:06:00,26.7,23.1,30.00,West,274,0.0,2.0,86,0.00,,---,0.00,VWS V14.01,2013-11-27 18:06:00,
2013-11-27 13:07:00,26.7,23.1,30.00,West,274,0.0,2.0,86,0.00,,---,0.00,VWS V14.01,2013-11-27 18:07:00,
2013-11-27 13:08:00,26.7,23.1,30.00,West,277,0.0,3.0,86,0.00,,---,0.00,VWS V14.01,2013-11-27 18:08:00,
2013-11-27 13:09:00,26.7,23.1,30.00,WNW,288,1.0,3.0,86,0.00,,---,0.00,VWS V14.01,2013-11-27 18:09:00,
2013-11-27 13:10:00,26.7,23.1,30.00,WNW,288,0.0,3.0,86,0.00,,---,0.00,VWS V14.01,2013-11-27 18:10:00,
2013-11-27 13:11:00,26.7,23.1,30.00,WNW,288,0.0,0.0,86,0.00,,---,0.00,VWS V14.01,2013-11-27 18:11:00,
2013-11-27 13:12:00,26.7,23.1,30.00,WNW,288,0.0,4.0,86,0.00,,---,0.00,VWS V14.01,2013-11-27 18:12:00,
2013-11-27 13:13:00,26.7,23.1,30.00,WNW,288,0.0,4.0,86,0.00,,---,0.00,VWS V14.01,2013-11-27 18:13:00,
2013-11-27 13:14:00,26.7,23.1,30.00,WNW,286,0.0,4.0,86,0.00,,---,0.00,VWS V14.01,2013-11-27 18:14:00,
2013-11-27 13:15:00,26.8,23.2,30.00,WNW,288,2.0,4.0,86,0.00,,---,0.00,VWS V14.01,2013-11-27 18:15:00,
2013-11-27 13:16:00,26.8,23.2,30.00,WNW,285,1.0,3.0,86,0.00,,---,0.00,VWS V14.01,2013-11-27 18:16:00,
2013-11-27 13:17:00,26.7,23.1,30.00,West,280,0.0,3.0,86,0.00,,---,0.00,VWS V14.01,2013-11-27 18:17:00,
2013-11-27 13:18:00,26.8,22.9,30.00,West,280,0.0,3.0,85,0.00,,---,0.00,VWS V14.01,2013-11-27 18:18:00,
2013-11-27 13:19:00,26.9,23.3,30.00,West,280,0.0,3.0,86,0.00,,---,0.00,VWS V14.01,2013-11-27 18:19:00,
2013-11-27 13:20:00,27.0,23.1,30.00,West,279,0.0,3.0,85,0.00,,---,0.00,VWS V14.01,2013-11-27 18:20:00,
2013-11-27 13:21:00,27.1,23.2,30.00,WSW,239,3.0,3.0,85,0.00,,---,0.00,VWS V14.01,2013-11-27 18:21:00,
2013-11-27 13:22:00,27.1,23.2,30.00,WSW,240,0.0,3.0,85,0.00,,---,0.00,VWS V14.01,2013-11-27 18:22:00,
2013-11-27 13:23:00,27.1,22.9,30.00,West,276,0.0,4.0,84,0.00,,---,0.00,VWS V14.01,2013-11-27 18:23:00,
2013-11-27 13:24:00,27.2,23.0,30.00,West,276,0.0,4.0,84,0.00,,---,0.00,VWS V14.01,2013-11-27 18:24:00,
2013-11-27 13:25:00,27.2,23.0,30.00,West,276,0.0,4.0,84,0.00,,---,0.00,VWS V14.01,2013-11-27 18:25:00,
2013-11-27 13:26:00,27.2,23.0,30.00,West,276,0.0,0.0,84,0.00,,---,0.00,VWS V14.01,2013-11-27 18:26:00,
2013-11-27 13:27:00,27.2,23.0,30.00,West,276,1.0,1.0,84,0.00,,---,0.00,VWS V14.01,2013-11-27 18:27:00,
2013-11-27 13:28:00,27.2,23.0,30.00,West,276,1.0,2.0,84,0.00,,---,0.00,VWS V14.01,2013-11-27 18:28:00,
2013-11-27 13:29:00,27.2,23.0,30.00,West,271,2.0,5.0,84,0.00,,---,0.00,VWS V14.01,2013-11-27 18:29:00,
2013-11-27 13:30:00,27.2,22.7,30.00,West,269,0.0,5.0,83,0.00,,---,0.00,VWS V14.01,2013-11-27 18:30:00,
2013-11-27 13:31:00,27.2,22.7,30.00,West,271,0.0,1.0,83,0.00,,---,0.00,VWS V14.01,2013-11-27 18:31:00,
2013-11-27 13:32:00,27.2,22.7,30.00,North,359,0.0,2.0,83,0.00,,---,0.00,VWS V14.01,2013-11-27 18:32:00,
2013-11-27 13:33:00,27.2,22.7,30.00,North,359,0.0,2.0,83,0.00,,---,0.00,VWS V14.01,2013-11-27 18:33:00,
2013-11-27 13:34:00,27.2,23.0,30.00,North,359,0.0,2.0,84,0.00,,---,0.00,VWS V14.01,2013-11-27 18:34:00,
2013-11-27 13:35:00,27.3,23.1,30.00,NW,318,0.0,2.0,84,0.00,,---,0.00,VWS V14.01,2013-11-27 18:35:00,
2013-11-27 13:36:00,27.3,23.1,30.00,NW,318,1.0,1.0,84,0.00,,---,0.00,VWS V14.01,2013-11-27 18:36:00,
2013-11-27 13:37:00,27.3,23.1,30.00,WNW,287,0.0,2.0,84,0.00,,---,0.00,VWS V14.01,2013-11-27 18:37:00,
2013-11-27 13:38:00,27.3,22.8,30.00,WNW,287,0.0,2.0,83,0.00,,---,0.00,VWS V14.01,2013-11-27 18:38:00,
2013-11-27 13:39:00,27.4,22.9,30.00,WNW,287,1.0,2.0,83,0.00,,---,0.00,VWS V14.01,2013-11-27 18:39:00,
2013-11-27 13:40:00,27.4,22.9,30.00,WNW,287,0.0,2.0,83,0.00,,---,0.00,VWS V14.01,2013-11-27 18:40:00,
2013-11-27 13:41:00,27.3,22.5,30.00,WNW,287,0.0,1.0,82,0.00,,---,0.00,VWS V14.01,2013-11-27 18:41:00,
2013-11-27 13:42:00,27.4,22.9,30.00,WNW,287,0.0,1.0,83,0.00,,---,0.00,VWS V14.01,2013-11-27 18:42:00,
2013-11-27 13:43:00,27.4,22.6,30.00,West,270,0.0,1.0,82,0.00,,---,0.00,VWS V14.01,2013-11-27 18:43:00,
2013-11-27 13:44:00,27.4,22.6,30.00,West,270,1.0,2.0,82,0.00,,---,0.00,VWS V14.01,2013-11-27 18:44:00,
2013-11-27 13:45:00,27.4,22.6,30.01,West,276,1.0,2.0,82,0.00,,---,0.00,VWS V14.01,2013-11-27 18:45:00,
2013-11-27 13:46:00,27.4,22.6,30.01,West,276,0.0,1.0,82,0.00,,---,0.00,VWS V14.01,2013-11-27 18:46:00,
2013-11-27 13:47:00,27.5,22.7,30.01,West,276,0.0,1.0,82,0.00,,---,0.00,VWS V14.01,2013-11-27 18:47:00,
2013-11-27 13:48:00,27.6,22.8,30.01,WNW,283,0.0,1.0,82,0.00,,---,0.00,VWS V14.01,2013-11-27 18:48:00,
2013-11-27 13:49:00,27.8,23.0,30.01,WNW,283,0.0,1.0,82,0.00,,---,0.00,VWS V14.01,2013-11-27 18:49:00,
2013-11-27 13:50:00,27.8,22.7,30.01,WNW,283,0.0,1.0,81,0.00,,---,0.00,VWS V14.01,2013-11-27 18:50:00,
2013-11-27 13:51:00,27.9,22.8,30.01,West,281,0.0,1.0,81,0.00,,---,0.00,VWS V14.01,2013-11-27 18:51:00,
2013-11-27 13:52:00,27.9,22.8,30.01,West,281,0.0,1.0,81,0.00,,---,0.00,VWS V14.01,2013-11-27 18:52:00,
2013-11-27 13:53:00,27.9,22.8,30.01,West,281,0.0,1.0,81,0.00,,---,0.00,VWS V14.01,2013-11-27 18:53:00,
2013-11-27 13:54:00,27.9,22.8,30.01,West,281,0.0,1.0,81,0.00,,---,0.00,VWS V14.01,2013-11-27 18:54:00,
2013-11-27 13:55:00,27.9,22.5,30.01,West,274,0.0,4.0,80,0.00,,---,0.00,VWS V14.01,2013-11-27 18:55:00,
2013-11-27 13:56:00,27.9,22.5,30.01,West,272,0.0,1.0,80,0.00,,---,0.00,VWS V14.01,2013-11-27 18:56:00,
2013-11-27 13:57:00,27.9,22.5,30.01,WNW,301,0.0,1.0,80,0.00,,---,0.00,VWS V14.01,2013-11-27 18:57:00,
2013-11-27 13:58:00,27.8,22.4,30.01,WNW,300,0.0,1.0,80,0.00,,---,0.00,VWS V14.01,2013-11-27 18:58:00,
2013-11-27 13:59:00,27.8,22.7,30.01,WNW,300,0.0,1.0,81,0.00,,---,0.00,VWS V14.01,2013-11-27 18:59:00,
2013-11-27 14:00:00,27.8,22.7,30.00,West,276,3.0,3.0,81,0.00,,---,0.00,VWS V14.01,2013-11-27 19:00:00,
2013-11-27 14:01:00,27.8,22.7,30.00,West,279,2.0,2.0,81,0.00,,---,0.00,VWS V14.01,2013-11-27 19:01:00,
2013-11-27 14:02:00,27.8,22.7,30.00,West,277,2.0,3.0,81,0.00,,---,0.00,VWS V14.01,2013-11-27 19:02:00,
2013-11-27 14:03:00,27.7,22.6,30.00,West,277,0.0,3.0,81,0.00,,---,0.00,VWS V14.01,2013-11-27 19:03:00,
2013-11-27 14:04:00,27.7,22.6,30.00,West,280,1.0,3.0,81,0.00,,---,0.00,VWS V14.01,2013-11-27 19:04:00,
2013-11-27 14:05:00,27.7,22.6,30.00,WNW,283,0.0,3.0,81,0.00,,---,0.00,VWS V14.01,2013-11-27 19:05:00,
2013-11-27 14:06:00,27.6,22.5,30.00,West,276,1.0,3.0,81,0.00,,---,0.00,VWS V14.01,2013-11-27 19:06:00,
2013-11-27 14:07:00,27.6,22.5,30.00,West,276,0.0,3.0,81,0.00,,---,0.00,VWS V14.01,2013-11-27 19:07:00,
2013-11-27 14:08:00,27.6,22.5,30.00,West,276,0.0,3.0,81,0.00,,---,0.00,VWS V14.01,2013-11-27 19:08:00,
2013-11-27 14:09:00,27.6,22.5,30.00,West,276,0.0,3.0,81,0.00,,---,0.00,VWS V14.01,2013-11-27 19:09:00,
2013-11-27 14:10:00,27.6,22.8,30.00,West,276,1.0,3.0,82,0.00,,---,0.00,VWS V14.01,2013-11-27 19:10:00,
2013-11-27 14:11:00,27.6,22.8,30.00,West,276,0.0,2.0,82,0.00,,---,0.00,VWS V14.01,2013-11-27 19:11:00,
2013-11-27 14:12:00,27.6,22.8,30.00,West,278,3.0,3.0,82,0.00,,---,0.00,VWS V14.01,2013-11-27 19:12:00,
2013-11-27 14:13:00,27.6,22.8,30.00,West,277,1.0,3.0,82,0.00,,---,0.00,VWS V14.01,2013-11-27 19:13:00,
2013-11-27 14:14:00,27.6,23.1,30.00,West,277,0.0,3.0,83,0.00,,---,0.00,VWS V14.01,2013-11-27 19:14:00,
2013-11-27 14:15:00,27.6,23.1,30.01,West,277,0.0,3.0,83,0.00,,---,0.00,VWS V14.01,2013-11-27 19:15:00,
2013-11-27 14:16:00,27.5,23.3,30.01,West,278,1.0,2.0,84,0.00,,---,0.00,VWS V14.01,2013-11-27 19:16:00,
2013-11-27 14:17:00,27.5,23.3,30.01,West,280,0.0,2.0,84,0.00,,---,0.00,VWS V14.01,2013-11-27 19:17:00,
2013-11-27 14:18:00,27.5,23.3,30.01,West,281,0.0,2.0,84,0.00,,---,0.00,VWS V14.01,2013-11-27 19:18:00,
2013-11-27 14:19:00,27.5,23.3,30.01,West,277,0.0,2.0,84,0.00,,---,0.00,VWS V14.01,2013-11-27 19:19:00,
2013-11-27 14:20:00,27.5,23.3,30.01,West,276,0.0,2.0,84,0.00,,---,0.00,VWS V14.01,2013-11-27 19:20:00,
2013-11-27 14:21:00,27.5,23.3,30.01,West,276,0.0,2.0,84,0.00,,---,0.00,VWS V14.01,2013-11-27 19:21:00,
2013-11-27 14:22:00,27.5,23.3,30.01,West,278,1.0,2.0,84,0.00,,---,0.00,VWS V14.01,2013-11-27 19:22:00,
2013-11-27 14:23:00,27.5,23.3,30.01,West,278,0.0,3.0,84,0.00,,---,0.00,VWS V14.01,2013-11-27 19:23:00,
2013-11-27 14:24:00,27.4,23.2,30.01,West,278,0.0,3.0,84,0.00,,---,0.00,VWS V14.01,2013-11-27 19:24:00,
2013-11-27 14:25:00,27.4,23.5,30.01,West,278,1.0,3.0,85,0.00,,---,0.00,VWS V14.01,2013-11-27 19:25:00,
2013-11-27 14:26:00,27.4,23.5,30.01,West,277,0.0,1.0,85,0.00,,---,0.00,VWS V14.01,2013-11-27 19:26:00,
2013-11-27 14:27:00,27.4,23.5,30.01,WNW,289,3.0,3.0,85,0.00,,---,0.00,VWS V14.01,2013-11-27 19:27:00,
2013-11-27 14:28:00,27.4,23.5,30.01,NW,305,0.0,5.0,85,0.00,,---,0.00,VWS V14.01,2013-11-27 19:28:00,
2013-11-27 14:29:00,27.3,23.4,30.01,WSW,253,0.0,5.0,85,0.00,,---,0.00,VWS V14.01,2013-11-27 19:29:00,
2013-11-27 14:30:00,27.3,23.4,30.01,WSW,253,0.0,5.0,85,0.00,,---,0.00,VWS V14.01,2013-11-27 19:30:00,
2013-11-27 14:31:00,27.3,23.4,30.01,WSW,256,0.0,2.0,85,0.00,,---,0.00,VWS V14.01,2013-11-27 19:31:00,
2013-11-27 14:32:00,27.3,23.4,30.01,WNW,283,0.0,3.0,85,0.00,,---,0.00,VWS V14.01,2013-11-27 19:32:00,
2013-11-27 14:33:00,27.3,23.4,30.01,West,259,0.0,3.0,85,0.00,,---,0.00,VWS V14.01,2013-11-27 19:33:00,
2013-11-27 14:34:00,27.2,23.3,30.01,West,259,1.0,3.0,85,0.00,,---,0.00,VWS V14.01,2013-11-27 19:34:00,
2013-11-27 14:35:00,27.2,23.3,30.01,WSW,241,2.0,3.0,85,0.00,,---,0.00,VWS V14.01,2013-11-27 19:35:00,
2013-11-27 14:36:00,27.2,23.3,30.01,WSW,241,1.0,2.0,85,0.00,,---,0.00,VWS V14.01,2013-11-27 19:36:00,
2013-11-27 14:37:00,27.2,23.3,30.01,West,265,0.0,2.0,85,0.00,,---,0.00,VWS V14.01,2013-11-27 19:37:00,
2013-11-27 14:38:00,27.2,23.3,30.01,West,265,0.0,2.0,85,0.00,,---,0.00,VWS V14.01,2013-11-27 19:38:00,
2013-11-27 14:39:00,27.1,23.2,30.01,WSW,241,1.0,3.0,85,0.00,,---,0.00,VWS V14.01,2013-11-27 19:39:00,
2013-11-27 14:40:00,27.1,23.2,30.01,WSW,245,0.0,3.0,85,0.00,,---,0.00,VWS V14.01,2013-11-27 19:40:00,
2013-11-27 14:41:00,27.1,23.2,30.01,West,264,1.0,1.0,85,0.00,,---,0.00,VWS V14.01,2013-11-27 19:41:00,
2013-11-27 14:42:00,27.1,23.2,30.01,West,264,1.0,1.0,85,0.00,,---,0.00,VWS V14.01,2013-11-27 19:42:00,
2013-11-27 14:43:00,27.1,23.2,30.01,WNW,283,3.0,3.0,85,0.00,,---,0.00,VWS V14.01,2013-11-27 19:43:00,
2013-11-27 14:44:00,27.1,23.5,30.01,WNW,290,1.0,3.0,86,0.00,,---,0.00,VWS V14.01,2013-11-27 19:44:00,
2013-11-27 14:45:00,27.1,23.5,30.02,WNW,288,0.0,3.0,86,0.00,,---,0.00,VWS V14.01,2013-11-27 19:45:00,
2013-11-27 14:46:00,27.1,23.5,30.02,WNW,288,0.0,2.0,86,0.00,,---,0.00,VWS V14.01,2013-11-27 19:46:00,
2013-11-27 14:47:00,27.1,23.5,30.02,WSW,249,0.0,3.0,86,0.00,,---,0.00,VWS V14.01,2013-11-27 19:47:00,
2013-11-27 14:48:00,27.1,23.5,30.02,WNW,287,1.0,3.0,86,0.00,,---,0.00,VWS V14.01,2013-11-27 19:48:00,
2013-11-27 14:49:00,27.1,23.5,30.02,WSW,243,5.0,5.0,86,0.00,,---,0.00,VWS V14.01,2013-11-27 19:49:00,
2013-11-27 14:50:00,27.1,23.5,30.02,SW,236,0.0,5.0,86,0.00,,---,0.00,VWS V14.01,2013-11-27 19:50:00,
2013-11-27 14:51:00,27.0,23.4,30.02,WSW,237,0.0,2.0,86,0.00,,---,0.00,VWS V14.01,2013-11-27 19:51:00,
2013-11-27 14:52:00,27.1,23.8,30.02,WSW,237,0.0,2.0,87,0.00,,---,0.00,VWS V14.01,2013-11-27 19:52:00,
2013-11-27 14:53:00,27.0,23.6,30.02,WSW,237,0.0,2.0,87,0.00,,---,0.00,VWS V14.01,2013-11-27 19:53:00,
2013-11-27 14:54:00,27.0,23.6,30.02,WNW,285,4.0,4.0,87,0.00,,---,0.00,VWS V14.01,2013-11-27 19:54:00,
2013-11-27 14:55:00,27.1,23.8,30.02,West,261,0.0,4.0,87,0.00,,---,0.00,VWS V14.01,2013-11-27 19:55:00,
2013-11-27 14:56:00,27.0,23.6,30.02,West,266,2.0,2.0,87,0.00,,---,0.00,VWS V14.01,2013-11-27 19:56:00,
2013-11-27 14:57:00,27.0,23.6,30.02,West,278,0.0,3.0,87,0.00,,---,0.00,VWS V14.01,2013-11-27 19:57:00,
2013-11-27 14:58:00,27.0,23.9,30.02,WNW,295,0.0,3.0,88,0.00,,---,0.00,VWS V14.01,2013-11-27 19:58:00,
2013-11-27 14:59:00,27.0,23.9,30.02,NW,307,4.0,6.0,88,0.00,,---,0.00,VWS V14.01,2013-11-27 19:59:00,
2013-11-27 15:00:00,27.0,23.9,30.02,West,266,0.0,6.0,88,0.00,,---,0.00,VWS V14.01,2013-11-27 20:00:00,
2013-11-27 15:01:00,27.0,23.9,30.02,West,266,0.0,0.0,88,0.00,,---,0.00,VWS V14.01,2013-11-27 20:01:00,
2013-11-27 15:02:00,27.0,23.9,30.02,West,266,0.0,0.0,88,0.00,,---,0.00,VWS V14.01,2013-11-27 20:02:00,
2013-11-27 15:03:00,27.0,23.9,30.02,West,266,0.0,0.0,88,0.00,,---,0.00,VWS V14.01,2013-11-27 20:03:00,
2013-11-27 15:04:00,27.0,23.9,30.02,WSW,254,0.0,2.0,88,0.00,,---,0.00,VWS V14.01,2013-11-27 20:04:00,
2013-11-27 15:05:00,27.0,23.9,30.02,WSW,254,0.0,2.0,88,0.00,,---,0.00,VWS V14.01,2013-11-27 20:05:00,
2013-11-27 15:06:00,27.0,23.9,30.02,WSW,253,2.0,2.0,88,0.00,,---,0.00,VWS V14.01,2013-11-27 20:06:00,
2013-11-27 15:07:00,27.0,24.2,30.02,WSW,253,0.0,2.0,89,0.00,,---,0.00,VWS V14.01,2013-11-27 20:07:00,
2013-11-27 15:08:00,27.0,24.2,30.02,WSW,253,0.0,2.0,89,0.00,,---,0.00,VWS V14.01,2013-11-27 20:08:00,
2013-11-27 15:09:00,27.0,24.2,30.02,West,276,0.0,2.0,89,0.00,,---,0.00,VWS V14.01,2013-11-27 20:09:00,
2013-11-27 15:10:00,27.0,24.2,30.02,West,276,0.0,2.0,89,0.00,,---,0.00,VWS V14.01,2013-11-27 20:10:00,
2013-11-27 15:11:00,27.0,24.2,30.02,West,276,0.0,0.0,89,0.00,,---,0.00,VWS V14.01,2013-11-27 20:11:00,
2013-11-27 15:12:00,27.0,24.2,30.02,SW,220,2.0,3.0,89,0.00,,---,0.00,VWS V14.01,2013-11-27 20:12:00,
2013-11-27 15:13:00,27.0,24.2,30.02,WSW,257,0.0,4.0,89,0.00,,---,0.00,VWS V14.01,2013-11-27 20:13:00,
2013-11-27 15:14:00,26.9,24.1,30.02,WSW,257,0.0,4.0,89,0.00,,---,0.00,VWS V14.01,2013-11-27 20:14:00,
2013-11-27 15:15:00,26.9,24.1,30.02,West,259,0.0,4.0,89,0.00,,---,0.00,VWS V14.01,2013-11-27 20:15:00,
2013-11-27 15:16:00,26.9,24.4,30.02,West,266,0.0,1.0,90,0.00,,---,0.00,VWS V14.01,2013-11-27 20:16:00,
2013-11-27 15:17:00,26.9,24.4,30.02,West,266,0.0,1.0,90,0.00,,---,0.00,VWS V14.01,2013-11-27 20:17:00,
2013-11-27 15:18:00,26.9,24.4,30.02,WSW,250,3.0,5.0,90,0.00,,---,0.00,VWS V14.01,2013-11-27 20:18:00,
2013-11-27 15:19:00,26.8,24.3,30.02,WSW,251,0.0,5.0,90,0.00,,---,0.00,VWS V14.01,2013-11-27 20:19:00,
2013-11-27 15:20:00,26.8,24.3,30.02,WSW,251,0.0,5.0,90,0.00,,---,0.00,VWS V14.01,2013-11-27 20:20:00,
2013-11-27 15:21:00,26.8,24.3,30.02,WSW,251,0.0,1.0,90,0.00,,---,0.00,VWS V14.01,2013-11-27 20:21:00,
2013-11-27 15:22:00,26.8,24.3,30.02,WSW,251,0.0,1.0,90,0.00,,---,0.00,VWS V14.01,2013-11-27 20:22:00,
2013-11-27 15:23:00,26.8,24.3,30.02,WSW,247,1.0,3.0,90,0.00,,---,0.00,VWS V14.01,2013-11-27 20:23:00,
2013-11-27 15:24:00,26.8,24.3,30.02,WSW,247,0.0,3.0,90,0.00,,---,0.00,VWS V14.01,2013-11-27 20:24:00,
2013-11-27 15:25:00,26.8,24.3,30.02,West,260,2.0,3.0,90,0.00,,---,0.00,VWS V14.01,2013-11-27 20:25:00,
2013-11-27 15:26:00,26.8,24.3,30.02,West,259,1.0,2.0,90,0.00,,---,0.00,VWS V14.01,2013-11-27 20:26:00,
2013-11-27 15:27:00,26.7,24.2,30.02,West,263,0.0,2.0,90,0.00,,---,0.00,VWS V14.01,2013-11-27 20:27:00,
2013-11-27 15:28:00,26.8,24.3,30.02,West,263,0.0,2.0,90,0.00,,---,0.00,VWS V14.01,2013-11-27 20:28:00,
2013-11-27 15:29:00,26.7,24.2,30.02,West,263,0.0,2.0,90,0.00,,---,0.00,VWS V14.01,2013-11-27 20:29:00,
2013-11-27 15:30:00,26.8,24.3,30.03,SW,233,1.0,3.0,90,0.00,,---,0.00,VWS V14.01,2013-11-27 20:30:00,
2013-11-27 15:31:00,26.8,24.3,30.03,SW,233,0.0,1.0,90,0.00,,---,0.00,VWS V14.01,2013-11-27 20:31:00,
2013-11-27 15:32:00,26.7,24.2,30.03,SW,233,0.0,1.0,90,0.00,,---,0.00,VWS V14.01,2013-11-27 20:32:00,
2013-11-27 15:33:00,26.7,24.2,30.03,SW,233,0.0,1.0,90,0.00,,---,0.00,VWS V14.01,2013-11-27 20:33:00,
2013-11-27 15:34:00,26.7,24.2,30.03,SW,233,0.0,1.0,90,0.00,,---,0.00,VWS V14.01,2013-11-27 20:34:00,
2013-11-27 15:35:00,26.7,24.2,30.03,SW,233,0.0,1.0,90,0.00,,---,0.00,VWS V14.01,2013-11-27 20:35:00,
2013-11-27 15:36:00,26.7,24.2,30.03,SW,233,0.0,0.0,90,0.00,,---,0.00,VWS V14.01,2013-11-27 20:36:00,
2013-11-27 15:37:00,26.7,24.2,30.03,SW,233,0.0,1.0,90,0.00,,---,0.00,VWS V14.01,2013-11-27 20:37:00,
2013-11-27 15:38:00,26.7,24.2,30.03,SW,233,0.0,1.0,90,0.00,,---,0.00,VWS V14.01,2013-11-27 20:38:00,
2013-11-27 15:39:00,26.7,24.2,30.03,SW,233,0.0,1.0,90,0.00,,---,0.00,VWS V14.01,2013-11-27 20:39:00,
2013-11-27 15:40:00,26.7,24.2,30.03,SW,233,0.0,1.0,90,0.00,,---,0.00,VWS V14.01,2013-11-27 20:40:00,
2013-11-27 15:41:00,26.8,24.3,30.03,SW,233,0.0,0.0,90,0.00,,---,0.00,VWS V14.01,2013-11-27 20:41:00,
2013-11-27 15:42:00,26.8,24.3,30.03,SW,233,0.0,0.0,90,0.00,,---,0.00,VWS V14.01,2013-11-27 20:42:00,
2013-11-27 15:43:00,26.8,24.3,30.03,SW,233,0.0,0.0,90,0.00,,---,0.00,VWS V14.01,2013-11-27 20:43:00,
2013-11-27 15:44:00,26.8,24.3,30.03,SW,233,0.0,0.0,90,0.00,,---,0.00,VWS V14.01,2013-11-27 20:44:00,
2013-11-27 15:45:00,26.7,24.4,30.04,SW,233,0.0,0.0,91,0.00,,---,0.00,VWS V14.01,2013-11-27 20:45:00,
2013-11-27 15:46:00,26.8,24.5,30.04,SW,233,0.0,0.0,91,0.00,,---,0.00,VWS V14.01,2013-11-27 20:46:00,
2013-11-27 15:47:00,26.7,24.4,30.04,SW,233,0.0,0.0,91,0.00,,---,0.00,VWS V14.01,2013-11-27 20:47:00,
2013-11-27 15:48:00,26.8,24.5,30.04,SW,233,0.0,0.0,91,0.00,,---,0.00,VWS V14.01,2013-11-27 20:48:00,
2013-11-27 15:49:00,26.7,24.4,30.04,SW,233,0.0,0.0,91,0.00,,---,0.00,VWS V14.01,2013-11-27 20:49:00,
2013-11-27 15:50:00,26.8,24.5,30.04,SW,233,0.0,0.0,91,0.00,,---,0.00,VWS V14.01,2013-11-27 20:50:00,
2013-11-27 15:51:00,26.8,24.5,30.04,SW,233,0.0,0.0,91,0.00,,---,0.00,VWS V14.01,2013-11-27 20:51:00,
2013-11-27 15:52:00,26.8,24.5,30.04,SW,233,0.0,0.0,91,0.00,,---,0.00,VWS V14.01,2013-11-27 20:52:00,
2013-11-27 15:53:00,26.8,24.5,30.04,SW,233,0.0,0.0,91,0.00,,---,0.00,VWS V14.01,2013-11-27 20:53:00,
2013-11-27 15:54:00,26.8,24.5,30.04,SW,233,0.0,0.0,91,0.00,,---,0.00,VWS V14.01,2013-11-27 20:54:00,
2013-11-27 15:55:00,26.8,24.5,30.04,SW,233,0.0,1.0,91,0.00,,---,0.00,VWS V14.01,2013-11-27 20:55:00,
2013-11-27 15:56:00,26.8,24.5,30.04,SW,233,0.0,0.0,91,0.00,,---,0.00,VWS V14.01,2013-11-27 20:56:00,
2013-11-27 15:57:00,26.8,24.5,30.04,SW,233,0.0,0.0,91,0.00,,---,0.00,VWS V14.01,2013-11-27 20:57:00,
2013-11-27 15:58:00,26.8,24.5,30.04,SW,233,0.0,0.0,91,0.00,,---,0.00,VWS V14.01,2013-11-27 20:58:00,
2013-11-27 15:59:00,26.8,24.5,30.04,SW,233,0.0,0.0,91,0.00,,---,0.00,VWS V14.01,2013-11-27 20:59:00,
2013-11-27 16:00:00,26.8,24.5,30.04,SW,233,0.0,0.0,91,0.00,,---,0.00,VWS V14.01,2013-11-27 21:00:00,
2013-11-27 16:01:00,26.8,24.5,30.04,SW,233,0.0,0.0,91,0.00,,---,0.00,VWS V14.01,2013-11-27 21:01:00,
2013-11-27 16:02:00,26.8,24.5,30.04,SW,233,0.0,0.0,91,0.00,,---,0.00,VWS V14.01,2013-11-27 21:02:00,
2013-11-27 16:03:00,26.8,24.5,30.04,SW,233,1.0,1.0,91,0.00,,---,0.00,VWS V14.01,2013-11-27 21:03:00,
2013-11-27 16:04:00,26.8,24.5,30.04,SW,233,0.0,1.0,91,0.00,,---,0.00,VWS V14.01,2013-11-27 21:04:00,
2013-11-27 16:05:00,26.8,24.8,30.04,SW,233,0.0,1.0,92,0.00,,---,0.00,VWS V14.01,2013-11-27 21:05:00,
2013-11-27 16:06:00,26.8,24.8,30.04,SW,233,0.0,0.0,92,0.00,,---,0.00,VWS V14.01,2013-11-27 21:06:00,
2013-11-27 16:07:00,26.8,24.8,30.04,SW,233,0.0,0.0,92,0.00,,---,0.00,VWS V14.01,2013-11-27 21:07:00,
2013-11-27 16:08:00,26.8,24.8,30.04,SW,233,0.0,0.0,92,0.00,,---,0.00,VWS V14.01,2013-11-27 21:08:00,
2013-11-27 16:09:00,26.8,24.8,30.04,SW,233,0.0,0.0,92,0.00,,---,0.00,VWS V14.01,2013-11-27 21:09:00,
2013-11-27 16:10:00,26.8,24.8,30.04,SW,233,0.0,0.0,92,0.00,,---,0.00,VWS V14.01,2013-11-27 21:10:00,
2013-11-27 16:11:00,26.8,24.8,30.04,SW,233,0.0,0.0,92,0.00,,---,0.00,VWS V14.01,2013-11-27 21:11:00,
2013-11-27 16:12:00,26.8,24.8,30.04,SW,233,0.0,0.0,92,0.00,,---,0.00,VWS V14.01,2013-11-27 21:12:00,
2013-11-27 16:13:00,26.8,24.8,30.04,SW,233,0.0,0.0,92,0.00,,---,0.00,VWS V14.01,2013-11-27 21:13:00,
2013-11-27 16:14:00,26.8,24.8,30.04,SW,233,0.0,0.0,92,0.00,,---,0.00,VWS V14.01,2013-11-27 21:14:00,
2013-11-27 16:15:00,26.9,24.9,30.05,SW,233,0.0,0.0,92,0.00,,---,0.00,VWS V14.01,2013-11-27 21:15:00,
2013-11-27 16:16:00,26.9,24.9,30.05,SW,233,0.0,0.0,92,0.00,,---,0.00,VWS V14.01,2013-11-27 21:16:00,
2013-11-27 16:17:00,26.9,24.9,30.05,SW,233,0.0,0.0,92,0.00,,---,0.00,VWS V14.01,2013-11-27 21:17:00,
2013-11-27 16:18:00,26.9,24.9,30.05,SW,233,0.0,0.0,92,0.00,,---,0.00,VWS V14.01,2013-11-27 21:18:00,
2013-11-27 16:19:00,26.9,24.9,30.05,SW,233,0.0,0.0,92,0.00,,---,0.00,VWS V14.01,2013-11-27 21:19:00,
2013-11-27 16:20:00,26.9,24.9,30.05,SW,233,0.0,0.0,92,0.00,,---,0.00,VWS V14.01,2013-11-27 21:20:00,
2013-11-27 16:21:00,26.9,24.9,30.05,SW,233,0.0,0.0,92,0.00,,---,0.00,VWS V14.01,2013-11-27 21:21:00,
2013-11-27 16:22:00,26.9,24.9,30.05,SW,233,0.0,0.0,92,0.00,,---,0.00,VWS V14.01,2013-11-27 21:22:00,
2013-11-27 16:23:00,26.9,24.9,30.05,SW,233,0.0,0.0,92,0.00,,---,0.00,VWS V14.01,2013-11-27 21:23:00,
2013-11-27 16:24:00,26.9,24.9,30.05,SW,233,0.0,0.0,92,0.00,,---,0.00,VWS V14.01,2013-11-27 21:24:00,
2013-11-27 16:25:00,26.9,24.9,30.05,SW,233,0.0,0.0,92,0.00,,---,0.00,VWS V14.01,2013-11-27 21:25:00,
2013-11-27 16:26:00,26.9,24.9,30.05,SW,233,0.0,0.0,92,0.00,,---,0.00,VWS V14.01,2013-11-27 21:26:00,
2013-11-27 16:27:00,26.9,24.9,30.05,SW,233,1.0,2.0,92,0.00,,---,0.00,VWS V14.01,2013-11-27 21:27:00,
2013-11-27 16:28:00,26.9,24.9,30.05,SW,233,0.0,2.0,92,0.00,,---,0.00,VWS V14.01,2013-11-27 21:28:00,
2013-11-27 16:29:00,26.9,24.9,30.05,WNW,285,0.0,2.0,92,0.00,,---,0.00,VWS V14.01,2013-11-27 21:29:00,
2013-11-27 16:30:00,26.9,24.9,30.06,WNW,285,0.0,2.0,92,0.00,,---,0.00,VWS V14.01,2013-11-27 21:30:00,
2013-11-27 16:31:00,26.9,25.1,30.06,WNW,285,1.0,1.0,93,0.00,,---,0.00,VWS V14.01,2013-11-27 21:31:00,
2013-11-27 16:32:00,26.9,25.1,30.06,WNW,285,0.0,1.0,93,0.00,,---,0.00,VWS V14.01,2013-11-27 21:32:00,
2013-11-27 16:33:00,26.9,25.1,30.06,WNW,285,0.0,2.0,93,0.00,,---,0.00,VWS V14.01,2013-11-27 21:33:00,
2013-11-27 16:34:00,26.9,25.1,30.06,West,281,0.0,3.0,93,0.00,,---,0.00,VWS V14.01,2013-11-27 21:34:00,
2013-11-27 16:35:00,26.9,25.1,30.06,West,281,0.0,3.0,93,0.00,,---,0.00,VWS V14.01,2013-11-27 21:35:00,
2013-11-27 16:36:00,26.9,25.1,30.06,West,281,0.0,0.0,93,0.00,,---,0.00,VWS V14.01,2013-11-27 21:36:00,
2013-11-27 16:37:00,26.9,25.1,30.06,West,281,1.0,1.0,93,0.00,,---,0.00,VWS V14.01,2013-11-27 21:37:00,
2013-11-27 16:38:00,26.9,25.1,30.06,West,281,0.0,1.0,93,0.00,,---,0.00,VWS V14.01,2013-11-27 21:38:00,
2013-11-27 16:39:00,26.9,25.1,30.06,West,281,0.0,1.0,93,0.00,,---,0.00,VWS V14.01,2013-11-27 21:39:00,
2013-11-27 16:40:00,26.9,25.1,30.06,West,281,0.0,1.0,93,0.00,,---,0.00,VWS V14.01,2013-11-27 21:40:00,
2013-11-27 16:41:00,26.9,25.1,30.06,West,281,0.0,1.0,93,0.00,,---,0.00,VWS V14.01,2013-11-27 21:41:00,
2013-11-27 16:42:00,26.9,25.1,30.06,WSW,255,0.0,6.0,93,0.00,,---,0.00,VWS V14.01,2013-11-27 21:42:00,
2013-11-27 16:43:00,26.9,25.1,30.06,WSW,255,0.0,6.0,93,0.00,,---,0.00,VWS V14.01,2013-11-27 21:43:00,
2013-11-27 16:44:00,26.9,25.1,30.06,WSW,255,0.0,6.0,93,0.00,,---,0.00,VWS V14.01,2013-11-27 21:44:00,
2013-11-27 16:45:00,26.9,25.1,30.07,WSW,255,0.0,6.0,93,0.00,,---,0.00,VWS V14.01,2013-11-27 21:45:00,
2013-11-27 16:46:00,26.8,25.0,30.07,WSW,255,0.0,1.0,93,0.00,,---,0.00,VWS V14.01,2013-11-27 21:46:00,
2013-11-27 16:47:00,26.8,25.0,30.07,WSW,255,0.0,1.0,93,0.00,,---,0.00,VWS V14.01,2013-11-27 21:47:00,
2013-11-27 16:48:00,26.8,25.0,30.07,WSW,246,0.0,3.0,93,0.00,,---,0.00,VWS V14.01,2013-11-27 21:48:00,
2013-11-27 16:49:00,26.8,25.0,30.07,WSW,246,1.0,3.0,93,0.00,,---,0.00,VWS V14.01,2013-11-27 21:49:00,
2013-11-27 16:50:00,26.8,25.0,30.07,WSW,246,0.0,3.0,93,0.00,,---,0.00,VWS V14.01,2013-11-27 21:50:00,
2013-11-27 16:51:00,26.8,25.0,30.07,WNW,292,2.0,3.0,93,0.00,,---,0.00,VWS V14.01,2013-11-27 21:51:00,
2013-11-27 16:52:00,26.8,25.0,30.07,WNW,293,0.0,3.0,93,0.00,,---,0.00,VWS V14.01,2013-11-27 21:52:00,
2013-11-27 16:53:00,26.8,25.0,30.07,WNW,293,0.0,3.0,93,0.00,,---,0.00,VWS V14.01,2013-11-27 21:53:00,
2013-11-27 16:54:00,26.8,25.0,30.07,WNW,293,0.0,3.0,93,0.00,,---,0.00,VWS V14.01,2013-11-27 21:54:00,
2013-11-27 16:55:00,26.8,25.0,30.07,West,275,1.0,3.0,93,0.00,,---,0.00,VWS V14.01,2013-11-27 21:55:00,
2013-11-27 16:56:00,26.8,25.0,30.07,West,275,0.0,1.0,93,0.00,,---,0.00,VWS V14.01,2013-11-27 21:56:00,
2013-11-27 16:57:00,26.8,25.0,30.07,West,275,0.0,1.0,93,0.00,,---,0.00,VWS V14.01,2013-11-27 21:57:00,
2013-11-27 16:58:00,26.8,25.0,30.07,WSW,243,4.0,4.0,93,0.00,,---,0.00,VWS V14.01,2013-11-27 21:58:00,
2013-11-27 16:59:00,26.8,25.0,30.07,WSW,250,3.0,4.0,93,0.00,,---,0.00,VWS V14.01,2013-11-27 21:59:00,
2013-11-27 17:00:00,26.7,25.0,30.07,West,259,2.0,4.0,93,0.00,,---,0.00,VWS V14.01,2013-11-27 22:00:00,
2013-11-27 17:01:00,26.7,25.0,30.07,West,281,0.0,2.0,93,0.00,,---,0.00,VWS V14.01,2013-11-27 22:01:00,
2013-11-27 17:02:00,26.7,25.0,30.07,West,281,0.0,2.0,93,0.00,,---,0.00,VWS V14.01,2013-11-27 22:02:00,
2013-11-27 17:03:00,26.7,25.0,30.07,West,281,0.0,2.0,93,0.00,,---,0.00,VWS V14.01,2013-11-27 22:03:00,
2013-11-27 17:04:00,26.6,24.9,30.07,West,281,0.0,2.0,93,0.00,,---,0.00,VWS V14.01,2013-11-27 22:04:00,
2013-11-27 17:05:00,26.6,24.9,30.07,WNW,302,0.0,5.0,93,0.00,,---,0.00,VWS V14.01,2013-11-27 22:05:00,
2013-11-27 17:06:00,26.5,24.5,30.07,WNW,285,3.0,3.0,92,0.00,,---,0.00,VWS V14.01,2013-11-27 22:06:00,
2013-11-27 17:07:00,26.5,24.8,30.07,West,270,0.0,5.0,93,0.00,,---,0.00,VWS V14.01,2013-11-27 22:07:00,
2013-11-27 17:08:00,26.5,24.8,30.07,West,269,1.0,5.0,93,0.00,,---,0.00,VWS V14.01,2013-11-27 22:08:00,
2013-11-27 17:09:00,26.5,24.5,30.07,West,263,0.0,5.0,92,0.00,,---,0.00,VWS V14.01,2013-11-27 22:09:00,
2013-11-27 17:10:00,26.4,24.4,30.07,SW,219,2.0,5.0,92,0.00,,---,0.00,VWS V14.01,2013-11-27 22:10:00,
2013-11-27 17:11:00,26.4,24.4,30.07,WSW,245,0.0,1.0,92,0.00,,---,0.00,VWS V14.01,2013-11-27 22:11:00,
2013-11-27 17:12:00,26.4,24.4,30.07,NNW,330,0.0,4.0,92,0.00,,---,0.00,VWS V14.01,2013-11-27 22:12:00,
2013-11-27 17:13:00,26.3,24.3,30.07,NNW,330,0.0,4.0,92,0.00,,---,0.00,VWS V14.01,2013-11-27 22:13:00,
2013-11-27 17:14:00,26.3,24.3,30.07,West,278,0.0,4.0,92,0.00,,---,0.00,VWS V14.01,2013-11-27 22:14:00,
2013-11-27 17:15:00,26.4,24.4,30.07,West,278,0.0,4.0,92,0.00,,---,0.00,VWS V14.01,2013-11-27 22:15:00,
2013-11-27 17:16:00,26.3,24.3,30.07,West,278,0.0,0.0,92,0.00,,---,0.00,VWS V14.01,2013-11-27 22:16:00,
2013-11-27 17:17:00,26.3,24.3,30.07,West,278,0.0,0.0,92,0.00,,---,0.00,VWS V14.01,2013-11-27 22:17:00,
2013-11-27 17:18:00,26.3,24.3,30.07,West,278,0.0,0.0,92,0.00,,---,0.00,VWS V14.01,2013-11-27 22:18:00,
2013-11-27 17:19:00,26.3,24.3,30.07,West,274,0.0,3.0,92,0.00,,---,0.00,VWS V14.01,2013-11-27 22:19:00,
2013-11-27 17:20:00,26.3,24.3,30.07,West,274,1.0,3.0,92,0.00,,---,0.00,VWS V14.01,2013-11-27 22:20:00,
2013-11-27 17:21:00,26.3,24.3,30.07,West,280,1.0,5.0,92,0.00,,---,0.00,VWS V14.01,2013-11-27 22:21:00,
2013-11-27 17:22:00,26.3,24.3,30.07,West,280,0.0,5.0,92,0.00,,---,0.00,VWS V14.01,2013-11-27 22:22:00,
2013-11-27 17:23:00,26.3,24.3,30.07,West,280,0.0,5.0,92,0.00,,---,0.00,VWS V14.01,2013-11-27 22:23:00,
2013-11-27 17:24:00,26.3,24.3,30.07,West,280,0.0,5.0,92,0.00,,---,0.00,VWS V14.01,2013-11-27 22:24:00,
2013-11-27 17:25:00,26.3,24.3,30.07,West,279,0.0,5.0,92,0.00,,---,0.00,VWS V14.01,2013-11-27 22:25:00,
2013-11-27 17:26:00,26.3,24.3,30.07,West,279,0.0,1.0,92,0.00,,---,0.00,VWS V14.01,2013-11-27 22:26:00,
2013-11-27 17:27:00,26.3,24.3,30.07,West,276,0.0,3.0,92,0.00,,---,0.00,VWS V14.01,2013-11-27 22:27:00,
2013-11-27 17:28:00,26.3,24.3,30.07,West,276,3.0,3.0,92,0.00,,---,0.00,VWS V14.01,2013-11-27 22:28:00,
2013-11-27 17:29:00,26.3,24.3,30.07,West,267,0.0,3.0,92,0.00,,---,0.00,VWS V14.01,2013-11-27 22:29:00,
2013-11-27 17:30:00,26.3,24.3,30.08,West,267,0.0,3.0,92,0.00,,---,0.00,VWS V14.01,2013-11-27 22:30:00,
2013-11-27 17:31:00,26.3,24.3,30.08,West,269,2.0,2.0,92,0.00,,---,0.00,VWS V14.01,2013-11-27 22:31:00,
2013-11-27 17:32:00,26.3,24.3,30.08,West,270,0.0,2.0,92,0.00,,---,0.00,VWS V14.01,2013-11-27 22:32:00,
2013-11-27 17:33:00,26.3,24.3,30.08,West,276,1.0,2.0,92,0.00,,---,0.00,VWS V14.01,2013-11-27 22:33:00,
2013-11-27 17:34:00,26.3,24.3,30.08,West,281,0.0,2.0,92,0.00,,---,0.00,VWS V14.01,2013-11-27 22:34:00,
2013-11-27 17:35:00,26.3,24.3,30.08,West,281,0.0,2.0,92,0.00,,---,0.00,VWS V14.01,2013-11-27 22:35:00,
2013-11-27 17:36:00,26.3,24.3,30.08,West,281,0.0,1.0,92,0.00,,---,0.00,VWS V14.01,2013-11-27 22:36:00,
2013-11-27 17:37:00,26.3,24.3,30.08,WNW,285,0.0,1.0,92,0.00,,---,0.00,VWS V14.01,2013-11-27 22:37:00,
2013-11-27 17:38:00,26.3,24.3,30.08,West,259,2.0,4.0,92,0.00,,---,0.00,VWS V14.01,2013-11-27 22:38:00,
2013-11-27 17:39:00,26.3,24.3,30.08,West,265,0.0,4.0,92,0.00,,---,0.00,VWS V14.01,2013-11-27 22:39:00,
2013-11-27 17:40:00,26.3,24.3,30.08,West,270,0.0,4.0,92,0.00,,---,0.00,VWS V14.01,2013-11-27 22:40:00,
2013-11-27 17:41:00,26.3,24.3,30.08,West,270,0.0,1.0,92,0.00,,---,0.00,VWS V14.01,2013-11-27 22:41:00,
2013-11-27 17:42:00,26.3,24.3,30.08,West,270,0.0,1.0,92,0.00,,---,0.00,VWS V14.01,2013-11-27 22:42:00,
2013-11-27 17:43:00,26.3,24.3,30.08,West,270,1.0,1.0,92,0.00,,---,0.00,VWS V14.01,2013-11-27 22:43:00,
2013-11-27 17:44:00,26.3,24.3,30.08,West,270,0.0,1.0,92,0.00,,---,0.00,VWS V14.01,2013-11-27 22:44:00,
2013-11-27 17:45:00,26.3,24.3,30.09,West,278,0.0,5.0,92,0.00,,---,0.00,VWS V14.01,2013-11-27 22:45:00,
2013-11-27 17:46:00,26.3,24.3,30.09,WNW,290,1.0,4.0,92,0.00,,---,0.00,VWS V14.01,2013-11-27 22:46:00,
2013-11-27 17:47:00,26.3,24.3,30.09,West,281,1.0,4.0,92,0.00,,---,0.00,VWS V14.01,2013-11-27 22:47:00,
2013-11-27 17:48:00,26.3,24.3,30.09,West,267,1.0,4.0,92,0.00,,---,0.00,VWS V14.01,2013-11-27 22:48:00,
2013-11-27 17:49:00,26.3,24.6,30.09,West,267,0.0,4.0,93,0.00,,---,0.00,VWS V14.01,2013-11-27 22:49:00,
2013-11-27 17:50:00,26.3,24.3,30.09,West,259,0.0,4.0,92,0.00,,---,0.00,VWS V14.01,2013-11-27 22:50:00,
2013-11-27 17:51:00,26.3,24.3,30.09,West,259,0.0,0.0,92,0.00,,---,0.00,VWS V14.01,2013-11-27 22:51:00,
2013-11-27 17:52:00,26.4,24.6,30.09,West,275,0.0,3.0,93,0.00,,---,0.00,VWS V14.01,2013-11-27 22:52:00,
2013-11-27 17:53:00,26.3,24.6,30.09,West,271,0.0,3.0,93,0.00,,---,0.00,VWS V14.01,2013-11-27 22:53:00,
2013-11-27 17:54:00,26.4,24.6,30.09,West,271,1.0,3.0,93,0.00,,---,0.00,VWS V14.01,2013-11-27 22:54:00,
2013-11-27 17:55:00,26.4,24.6,30.09,West,271,0.0,3.0,93,0.00,,---,0.00,VWS V14.01,2013-11-27 22:55:00,
2013-11-27 17:56:00,26.4,24.6,30.09,NNW,332,1.0,3.0,93,0.00,,---,0.00,VWS V14.01,2013-11-27 22:56:00,
2013-11-27 17:57:00,26.4,24.6,30.09,NW,325,0.0,3.0,93,0.00,,---,0.00,VWS V14.01,2013-11-27 22:57:00,
2013-11-27 17:58:00,26.4,24.6,30.09,NW,323,0.0,3.0,93,0.00,,---,0.00,VWS V14.01,2013-11-27 22:58:00,
2013-11-27 17:59:00,26.5,24.8,30.09,NW,314,1.0,3.0,93,0.00,,---,0.00,VWS V14.01,2013-11-27 22:59:00,
2013-11-27 18:00:00,26.4,24.6,30.09,WNW,285,0.0,6.0,93,0.00,,---,0.00,VWS V14.01,2013-11-27 23:00:00,
2013-11-27 18:01:00,26.4,24.6,30.09,West,278,0.0,2.0,93,0.00,,---,0.00,VWS V14.01,2013-11-27 23:01:00,
2013-11-27 18:02:00,26.4,24.6,30.09,West,278,0.0,2.0,93,0.00,,---,0.00,VWS V14.01,2013-11-27 23:02:00,
2013-11-27 18:03:00,26.5,24.8,30.09,West,278,1.0,2.0,93,0.00,,---,0.00,VWS V14.01,2013-11-27 23:03:00,
2013-11-27 18:04:00,26.5,24.8,30.09,West,278,0.0,2.0,93,0.00,,---,0.00,VWS V14.01,2013-11-27 23:04:00,
2013-11-27 18:05:00,26.5,24.8,30.09,WNW,290,0.0,2.0,93,0.00,,---,0.00,VWS V14.01,2013-11-27 23:05:00,
2013-11-27 18:06:00,26.5,24.8,30.09,WNW,290,0.0,0.0,93,0.00,,---,0.00,VWS V14.01,2013-11-27 23:06:00,
2013-11-27 18:07:00,26.5,24.8,30.09,WNW,290,0.0,0.0,93,0.00,,---,0.00,VWS V14.01,2013-11-27 23:07:00,
2013-11-27 18:08:00,26.5,24.8,30.09,WNW,290,0.0,0.0,93,0.00,,---,0.00,VWS V14.01,2013-11-27 23:08:00,
2013-11-27 18:09:00,26.5,24.8,30.09,WNW,290,0.0,1.0,93,0.00,,---,0.00,VWS V14.01,2013-11-27 23:09:00,
2013-11-27 18:10:00,26.5,24.8,30.09,WNW,290,0.0,1.0,93,0.00,,---,0.00,VWS V14.01,2013-11-27 23:10:00,
2013-11-27 18:11:00,26.5,24.8,30.09,WNW,290,0.0,0.0,93,0.00,,---,0.00,VWS V14.01,2013-11-27 23:11:00,
2013-11-27 18:12:00,26.5,24.8,30.09,WNW,290,2.0,2.0,93,0.00,,---,0.00,VWS V14.01,2013-11-27 23:12:00,
2013-11-27 18:13:00,26.5,24.8,30.09,WNW,290,0.0,2.0,93,0.00,,---,0.00,VWS V14.01,2013-11-27 23:13:00,
2013-11-27 18:14:00,26.5,24.8,30.09,WNW,290,0.0,2.0,93,0.00,,---,0.00,VWS V14.01,2013-11-27 23:14:00,
2013-11-27 18:15:00,26.5,24.8,30.10,WSW,257,1.0,5.0,93,0.00,,---,0.00,VWS V14.01,2013-11-27 23:15:00,
2013-11-27 18:16:00,26.6,24.9,30.10,WSW,257,0.0,1.0,93,0.00,,---,0.00,VWS V14.01,2013-11-27 23:16:00,
2013-11-27 18:17:00,26.5,24.8,30.10,WNW,290,1.0,2.0,93,0.00,,---,0.00,VWS V14.01,2013-11-27 23:17:00,
2013-11-27 18:18:00,26.6,24.9,30.10,WNW,290,0.0,2.0,93,0.00,,---,0.00,VWS V14.01,2013-11-27 23:18:00,
2013-11-27 18:19:00,26.6,24.9,30.10,WNW,290,0.0,2.0,93,0.00,,---,0.00,VWS V14.01,2013-11-27 23:19:00,
2013-11-27 18:20:00,26.6,24.9,30.10,WNW,290,0.0,2.0,93,0.00,,---,0.00,VWS V14.01,2013-11-27 23:20:00,
2013-11-27 18:21:00,26.6,24.9,30.10,WNW,290,0.0,0.0,93,0.00,,---,0.00,VWS V14.01,2013-11-27 23:21:00,
2013-11-27 18:22:00,26.6,24.9,30.10,WNW,290,0.0,0.0,93,0.00,,---,0.00,VWS V14.01,2013-11-27 23:22:00,
2013-11-27 18:23:00,26.6,24.9,30.10,WNW,290,0.0,0.0,93,0.00,,---,0.00,VWS V14.01,2013-11-27 23:23:00,
2013-11-27 18:24:00,26.6,24.9,30.10,WNW,290,0.0,1.0,93,0.00,,---,0.00,VWS V14.01,2013-11-27 23:24:00,
2013-11-27 18:25:00,26.6,24.9,30.10,WNW,290,0.0,1.0,93,0.00,,---,0.00,VWS V14.01,2013-11-27 23:25:00,
2013-11-27 18:26:00,26.6,24.9,30.10,WNW,290,0.0,0.0,93,0.00,,---,0.00,VWS V14.01,2013-11-27 23:26:00,
2013-11-27 18:27:00,26.6,24.9,30.10,WNW,290,0.0,0.0,93,0.00,,---,0.00,VWS V14.01,2013-11-27 23:27:00,
2013-11-27 18:28:00,26.6,25.1,30.10,WNW,290,0.0,0.0,94,0.00,,---,0.00,VWS V14.01,2013-11-27 23:28:00,
2013-11-27 18:29:00,26.6,25.1,30.10,WNW,290,0.0,1.0,94,0.00,,---,0.00,VWS V14.01,2013-11-27 23:29:00,
2013-11-27 18:30:00,26.6,25.1,30.10,WNW,290,1.0,1.0,94,0.00,,---,0.00,VWS V14.01,2013-11-27 23:30:00,
2013-11-27 18:31:00,26.6,24.9,30.10,NW,304,0.0,2.0,93,0.00,,---,0.00,VWS V14.01,2013-11-27 23:31:00,
2013-11-27 18:32:00,26.7,25.0,30.10,NW,304,0.0,2.0,93,0.00,,---,0.00,VWS V14.01,2013-11-27 23:32:00,
2013-11-27 18:33:00,26.7,25.2,30.10,NW,304,0.0,2.0,94,0.00,,---,0.00,VWS V14.01,2013-11-27 23:33:00,
2013-11-27 18:34:00,26.7,25.2,30.10,NW,304,0.0,2.0,94,0.00,,---,0.00,VWS V14.01,2013-11-27 23:34:00,
2013-11-27 18:35:00,26.7,25.2,30.10,NW,304,0.0,2.0,94,0.00,,---,0.00,VWS V14.01,2013-11-27 23:35:00,
2013-11-27 18:36:00,26.7,25.2,30.10,NW,304,0.0,1.0,94,0.00,,---,0.00,VWS V14.01,2013-11-27 23:36:00,
2013-11-27 18:37:00,26.7,25.2,30.10,NW,304,0.0,1.0,94,0.00,,---,0.00,VWS V14.01,2013-11-27 23:37:00,
2013-11-27 18:38:00,26.7,25.2,30.10,NW,304,0.0,1.0,94,0.00,,---,0.00,VWS V14.01,2013-11-27 23:38:00,
2013-11-27 18:39:00,26.7,25.2,30.10,NW,313,1.0,1.0,94,0.00,,---,0.00,VWS V14.01,2013-11-27 23:39:00,
2013-11-27 18:40:00,26.7,25.2,30.10,NW,313,0.0,1.0,94,0.00,,---,0.00,VWS V14.01,2013-11-27 23:40:00,
2013-11-27 18:41:00,26.7,25.2,30.10,NW,313,0.0,1.0,94,0.00,,---,0.00,VWS V14.01,2013-11-27 23:41:00,
2013-11-27 18:42:00,26.7,25.2,30.10,NW,313,0.0,1.0,94,0.00,,---,0.00,VWS V14.01,2013-11-27 23:42:00,
2013-11-27 18:43:00,26.7,25.2,30.10,NW,313,0.0,1.0,94,0.00,,---,0.00,VWS V14.01,2013-11-27 23:43:00,
2013-11-27 18:44:00,26.7,25.2,30.10,NW,313,1.0,1.0,94,0.00,,---,0.00,VWS V14.01,2013-11-27 23:44:00,
2013-11-27 18:45:00,26.7,25.2,30.10,NW,313,1.0,1.0,94,0.00,,---,0.00,VWS V14.01,2013-11-27 23:45:00,
2013-11-27 18:46:00,26.7,25.2,30.10,NW,313,0.0,1.0,94,0.00,,---,0.00,VWS V14.01,2013-11-27 23:46:00,
2013-11-27 18:47:00,26.7,25.2,30.10,NW,313,0.0,1.0,94,0.00,,---,0.00,VWS V14.01,2013-11-27 23:47:00,
2013-11-27 18:48:00,26.7,25.2,30.10,NW,313,0.0,1.0,94,0.00,,---,0.00,VWS V14.01,2013-11-27 23:48:00,
2013-11-27 18:49:00,26.7,25.2,30.10,West,278,0.0,2.0,94,0.00,,---,0.00,VWS V14.01,2013-11-27 23:49:00,
2013-11-27 18:50:00,26.7,25.2,30.10,West,280,0.0,2.0,94,0.00,,---,0.00,VWS V14.01,2013-11-27 23:50:00,
2013-11-27 18:51:00,26.7,25.2,30.10,West,280,0.0,0.0,94,0.00,,---,0.00,VWS V14.01,2013-11-27 23:51:00,
2013-11-27 18:52:00,26.7,25.2,30.10,West,262,3.0,3.0,94,0.00,,---,0.00,VWS V14.01,2013-11-27 23:52:00,
2013-11-27 18:53:00,26.7,25.2,30.10,West,262,0.0,3.0,94,0.00,,---,0.00,VWS V14.01,2013-11-27 23:53:00,
2013-11-27 18:54:00,26.7,25.2,30.10,West,259,1.0,3.0,94,0.00,,---,0.00,VWS V14.01,2013-11-27 23:54:00,
2013-11-27 18:55:00,26.7,25.2,30.10,West,259,0.0,3.0,94,0.00,,---,0.00,VWS V14.01,2013-11-27 23:55:00,
2013-11-27 18:56:00,26.7,25.2,30.10,West,259,0.0,0.0,94,0.00,,---,0.00,VWS V14.01,2013-11-27 23:56:00,
2013-11-27 18:57:00,26.7,25.0,30.10,West,259,0.0,0.0,93,0.00,,---,0.00,VWS V14.01,2013-11-27 23:57:00,
2013-11-27 18:58:00,26.7,25.0,30.10,West,259,0.0,0.0,93,0.00,,---,0.00,VWS V14.01,2013-11-27 23:58:00,
2013-11-27 18:59:00,26.6,24.9,30.10,West,259,0.0,0.0,93,0.00,,---,0.00,VWS V14.01,2013-11-27 23:59:00,
2013-11-27 19:00:00,26.6,24.9,30.11,West,259,0.0,1.0,93,0.00,,---,0.00,VWS V14.01,2013-11-28 00:00:00,
2013-11-27 19:01:00,26.6,24.9,30.11,West,259,0.0,0.0,93,0.00,,---,0.00,VWS V14.01,2013-11-28 00:01:00,
2013-11-27 19:02:00,26.6,24.9,30.11,West,259,0.0,0.0,93,0.00,,---,0.00,VWS V14.01,2013-11-28 00:02:00,
2013-11-27 19:03:00,26.6,24.9,30.11,West,259,0.0,0.0,93,0.00,,---,0.00,VWS V14.01,2013-11-28 00:03:00,
2013-11-27 19:04:00,26.6,24.9,30.11,West,259,0.0,0.0,93,0.00,,---,0.00,VWS V14.01,2013-11-28 00:04:00,
2013-11-27 19:05:00,26.6,24.9,30.11,West,259,0.0,0.0,93,0.00,,---,0.00,VWS V14.01,2013-11-28 00:05:00,
2013-11-27 19:06:00,26.6,25.1,30.11,West,259,0.0,0.0,94,0.00,,---,0.00,VWS V14.01,2013-11-28 00:06:00,
2013-11-27 19:07:00,26.6,25.1,30.11,West,259,0.0,0.0,94,0.00,,---,0.00,VWS V14.01,2013-11-28 00:07:00,
2013-11-27 19:08:00,26.6,24.9,30.11,West,259,0.0,0.0,93,0.00,,---,0.00,VWS V14.01,2013-11-28 00:08:00,
2013-11-27 19:09:00,26.6,24.9,30.11,West,259,0.0,1.0,93,0.00,,---,0.00,VWS V14.01,2013-11-28 00:09:00,
2013-11-27 19:10:00,26.6,24.9,30.11,West,259,1.0,1.0,93,0.00,,---,0.00,VWS V14.01,2013-11-28 00:10:00,
2013-11-27 19:11:00,26.6,24.9,30.11,West,259,0.0,1.0,93,0.00,,---,0.00,VWS V14.01,2013-11-28 00:11:00,
2013-11-27 19:12:00,26.6,24.9,30.11,West,259,0.0,1.0,93,0.00,,---,0.00,VWS V14.01,2013-11-28 00:12:00,
2013-11-27 19:13:00,26.6,24.9,30.11,West,259,0.0,1.0,93,0.00,,---,0.00,VWS V14.01,2013-11-28 00:13:00,
2013-11-27 19:14:00,26.6,24.9,30.11,West,259,1.0,1.0,93,0.00,,---,0.00,VWS V14.01,2013-11-28 00:14:00,
2013-11-27 19:15:00,26.6,24.9,30.11,West,259,0.0,1.0,93,0.00,,---,0.00,VWS V14.01,2013-11-28 00:15:00,
2013-11-27 19:16:00,26.5,24.8,30.11,West,259,0.0,0.0,93,0.00,,---,0.00,VWS V14.01,2013-11-28 00:16:00,
2013-11-27 19:17:00,26.5,24.8,30.11,West,259,0.0,0.0,93,0.00,,---,0.00,VWS V14.01,2013-11-28 00:17:00,
2013-11-27 19:18:00,26.5,24.8,30.11,West,259,0.0,0.0,93,0.00,,---,0.00,VWS V14.01,2013-11-28 00:18:00,
2013-11-27 19:19:00,26.5,24.8,30.11,West,259,0.0,0.0,93,0.00,,---,0.00,VWS V14.01,2013-11-28 00:19:00,
2013-11-27 19:20:00,26.6,24.9,30.11,West,259,0.0,0.0,93,0.00,,---,0.00,VWS V14.01,2013-11-28 00:20:00,
2013-11-27 19:21:00,26.5,24.8,30.11,West,259,0.0,0.0,93,0.00,,---,0.00,VWS V14.01,2013-11-28 00:21:00,
2013-11-27 19:22:00,26.6,24.9,30.11,West,259,0.0,0.0,93,0.00,,---,0.00,VWS V14.01,2013-11-28 00:22:00,
2013-11-27 19:23:00,26.6,24.9,30.11,West,259,0.0,0.0,93,0.00,,---,0.00,VWS V14.01,2013-11-28 00:23:00,
2013-11-27 19:24:00,26.5,24.8,30.11,West,259,0.0,0.0,93,0.00,,---,0.00,VWS V14.01,2013-11-28 00:24:00,
2013-11-27 19:25:00,26.5,24.8,30.11,West,259,0.0,0.0,93,0.00,,---,0.00,VWS V14.01,2013-11-28 00:25:00,
2013-11-27 19:26:00,26.5,24.8,30.11,West,259,0.0,0.0,93,0.00,,---,0.00,VWS V14.01,2013-11-28 00:26:00,
2013-11-27 19:27:00,26.5,24.8,30.11,West,259,0.0,0.0,93,0.00,,---,0.00,VWS V14.01,2013-11-28 00:27:00,
2013-11-27 19:28:00,26.5,24.8,30.11,West,259,0.0,0.0,93,0.00,,---,0.00,VWS V14.01,2013-11-28 00:28:00,
2013-11-27 19:29:00,26.5,24.8,30.11,West,259,0.0,0.0,93,0.00,,---,0.00,VWS V14.01,2013-11-28 00:29:00,
2013-11-27 19:30:00,26.5,24.8,30.12,West,259,0.0,0.0,93,0.00,,---,0.00,VWS V14.01,2013-11-28 00:30:00,
2013-11-27 19:31:00,26.5,24.8,30.12,West,259,0.0,0.0,93,0.00,,---,0.00,VWS V14.01,2013-11-28 00:31:00,
2013-11-27 19:32:00,26.5,24.8,30.12,West,259,0.0,0.0,93,0.00,,---,0.00,VWS V14.01,2013-11-28 00:32:00,
2013-11-27 19:33:00,26.5,24.8,30.12,West,259,0.0,0.0,93,0.00,,---,0.00,VWS V14.01,2013-11-28 00:33:00,
2013-11-27 19:34:00,26.5,24.8,30.12,West,259,0.0,0.0,93,0.00,,---,0.00,VWS V14.01,2013-11-28 00:34:00,
2013-11-27 19:35:00,26.5,24.8,30.12,West,259,0.0,0.0,93,0.00,,---,0.00,VWS V14.01,2013-11-28 00:35:00,
2013-11-27 19:36:00,26.5,24.8,30.12,West,259,0.0,0.0,93,0.00,,---,0.00,VWS V14.01,2013-11-28 00:36:00,
2013-11-27 19:37:00,26.5,24.8,30.12,West,259,0.0,0.0,93,0.00,,---,0.00,VWS V14.01,2013-11-28 00:37:00,
2013-11-27 19:38:00,26.5,24.8,30.12,West,259,0.0,0.0,93,0.00,,---,0.00,VWS V14.01,2013-11-28 00:38:00,
2013-11-27 19:39:00,26.5,24.8,30.12,West,259,0.0,0.0,93,0.00,,---,0.00,VWS V14.01,2013-11-28 00:39:00,
2013-11-27 19:40:00,26.5,24.8,30.12,West,259,0.0,0.0,93,0.00,,---,0.00,VWS V14.01,2013-11-28 00:40:00,
2013-11-27 19:41:00,26.5,24.8,30.12,West,259,0.0,0.0,93,0.00,,---,0.00,VWS V14.01,2013-11-28 00:41:00,
2013-11-27 19:42:00,26.4,24.6,30.12,West,259,0.0,0.0,93,0.00,,---,0.00,VWS V14.01,2013-11-28 00:42:00,
2013-11-27 19:43:00,26.5,24.8,30.12,West,259,0.0,0.0,93,0.00,,---,0.00,VWS V14.01,2013-11-28 00:43:00,
2013-11-27 19:44:00,26.5,24.8,30.12,West,259,0.0,0.0,93,0.00,,---,0.00,VWS V14.01,2013-11-28 00:44:00,
2013-11-27 19:45:00,26.5,24.8,30.12,West,259,0.0,0.0,93,0.00,,---,0.00,VWS V14.01,2013-11-28 00:45:00,
2013-11-27 19:46:00,26.5,24.8,30.12,West,259,0.0,0.0,93,0.00,,---,0.00,VWS V14.01,2013-11-28 00:46:00,
2013-11-27 19:47:00,26.5,24.8,30.12,West,259,0.0,0.0,93,0.00,,---,0.00,VWS V14.01,2013-11-28 00:47:00,
2013-11-27 19:48:00,26.5,24.8,30.12,West,259,0.0,0.0,93,0.00,,---,0.00,VWS V14.01,2013-11-28 00:48:00,
2013-11-27 19:49:00,26.4,24.6,30.12,West,259,0.0,0.0,93,0.00,,---,0.00,VWS V14.01,2013-11-28 00:49:00,
2013-11-27 19:50:00,26.4,24.6,30.12,West,259,0.0,0.0,93,0.00,,---,0.00,VWS V14.01,2013-11-28 00:50:00,
2013-11-27 19:51:00,26.4,24.6,30.12,West,259,0.0,0.0,93,0.00,,---,0.00,VWS V14.01,2013-11-28 00:51:00,
2013-11-27 19:52:00,26.4,24.6,30.12,West,259,0.0,0.0,93,0.00,,---,0.00,VWS V14.01,2013-11-28 00:52:00,
2013-11-27 19:53:00,26.5,24.8,30.12,West,259,0.0,0.0,93,0.00,,---,0.00,VWS V14.01,2013-11-28 00:53:00,
2013-11-27 19:54:00,26.4,24.6,30.12,West,259,0.0,0.0,93,0.00,,---,0.00,VWS V14.01,2013-11-28 00:54:00,
2013-11-27 19:55:00,26.4,24.6,30.12,West,259,0.0,0.0,93,0.00,,---,0.00,VWS V14.01,2013-11-28 00:55:00,
2013-11-27 19:56:00,26.4,24.6,30.12,West,259,0.0,0.0,93,0.00,,---,0.00,VWS V14.01,2013-11-28 00:56:00,
2013-11-27 19:57:00,26.4,24.6,30.12,West,259,0.0,0.0,93,0.00,,---,0.00,VWS V14.01,2013-11-28 00:57:00,
2013-11-27 19:58:00,26.4,24.6,30.12,West,259,0.0,0.0,93,0.00,,---,0.00,VWS V14.01,2013-11-28 00:58:00,
2013-11-27 19:59:00,26.4,24.6,30.12,West,259,0.0,0.0,93,0.00,,---,0.00,VWS V14.01,2013-11-28 00:59:00,
2013-11-27 20:00:00,26.4,24.6,30.12,West,259,0.0,0.0,93,0.00,,---,0.00,VWS V14.01,2013-11-28 01:00:00,
2013-11-27 20:01:00,26.4,24.6,30.12,West,259,0.0,0.0,93,0.00,,---,0.00,VWS V14.01,2013-11-28 01:01:00,
2013-11-27 20:02:00,26.4,24.6,30.12,West,259,0.0,0.0,93,0.00,,---,0.00,VWS V14.01,2013-11-28 01:02:00,
2013-11-27 20:03:00,26.4,24.6,30.12,West,259,0.0,0.0,93,0.00,,---,0.00,VWS V14.01,2013-11-28 01:03:00,
2013-11-27 20:04:00,26.4,24.6,30.12,West,259,0.0,0.0,93,0.00,,---,0.00,VWS V14.01,2013-11-28 01:04:00,
2013-11-27 20:05:00,26.4,24.6,30.12,West,259,0.0,0.0,93,0.00,,---,0.00,VWS V14.01,2013-11-28 01:05:00,
2013-11-27 20:06:00,26.4,24.6,30.12,West,259,0.0,0.0,93,0.00,,---,0.00,VWS V14.01,2013-11-28 01:06:00,
2013-11-27 20:07:00,26.4,24.6,30.12,West,259,0.0,0.0,93,0.00,,---,0.00,VWS V14.01,2013-11-28 01:07:00,
2013-11-27 20:08:00,26.4,24.6,30.12,West,259,0.0,0.0,93,0.00,,---,0.00,VWS V14.01,2013-11-28 01:08:00,
2013-11-27 20:09:00,26.4,24.9,30.12,West,259,0.0,0.0,94,0.00,,---,0.00,VWS V14.01,2013-11-28 01:09:00,
2013-11-27 20:10:00,26.4,24.9,30.12,West,259,0.0,0.0,94,0.00,,---,0.00,VWS V14.01,2013-11-28 01:10:00,
2013-11-27 20:11:00,26.4,24.9,30.12,West,259,0.0,0.0,94,0.00,,---,0.00,VWS V14.01,2013-11-28 01:11:00,
2013-11-27 20:12:00,26.4,24.9,30.12,West,259,0.0,0.0,94,0.00,,---,0.00,VWS V14.01,2013-11-28 01:12:00,
2013-11-27 20:13:00,26.4,24.9,30.12,West,259,0.0,0.0,94,0.00,,---,0.00,VWS V14.01,2013-11-28 01:13:00,
2013-11-27 20:14:00,26.4,24.9,30.12,West,259,0.0,0.0,94,0.00,,---,0.00,VWS V14.01,2013-11-28 01:14:00,
2013-11-27 20:15:00,26.4,24.9,30.12,West,259,0.0,0.0,94,0.00,,---,0.00,VWS V14.01,2013-11-28 01:15:00,
2013-11-27 20:16:00,26.4,24.9,30.12,West,259,0.0,0.0,94,0.00,,---,0.00,VWS V14.01,2013-11-28 01:16:00,
2013-11-27 20:17:00,26.4,24.9,30.12,West,259,0.0,0.0,94,0.00,,---,0.00,VWS V14.01,2013-11-28 01:17:00,
2013-11-27 20:18:00,26.4,24.9,30.12,West,259,0.0,0.0,94,0.00,,---,0.00,VWS V14.01,2013-11-28 01:18:00,
2013-11-27 20:19:00,26.3,24.8,30.12,West,259,0.0,1.0,94,0.00,,---,0.00,VWS V14.01,2013-11-28 01:19:00,
2013-11-27 20:20:00,26.3,24.8,30.12,West,259,0.0,1.0,94,0.00,,---,0.00,VWS V14.01,2013-11-28 01:20:00,
2013-11-27 20:21:00,26.3,24.8,30.12,West,259,0.0,0.0,94,0.00,,---,0.00,VWS V14.01,2013-11-28 01:21:00,
2013-11-27 20:22:00,26.3,24.8,30.12,West,259,0.0,0.0,94,0.00,,---,0.00,VWS V14.01,2013-11-28 01:22:00,
2013-11-27 20:23:00,26.3,24.8,30.12,West,259,0.0,0.0,94,0.00,,---,0.00,VWS V14.01,2013-11-28 01:23:00,
2013-11-27 20:24:00,26.3,24.8,30.12,West,259,0.0,0.0,94,0.00,,---,0.00,VWS V14.01,2013-11-28 01:24:00,
2013-11-27 20:25:00,26.3,24.8,30.12,West,259,0.0,0.0,94,0.00,,---,0.00,VWS V14.01,2013-11-28 01:25:00,
2013-11-27 20:26:00,26.3,24.8,30.12,West,259,0.0,0.0,94,0.00,,---,0.00,VWS V14.01,2013-11-28 01:26:00,
2013-11-27 20:27:00,26.3,24.8,30.12,West,259,0.0,0.0,94,0.00,,---,0.00,VWS V14.01,2013-11-28 01:27:00,
2013-11-27 20:28:00,26.3,24.8,30.12,West,259,0.0,0.0,94,0.00,,---,0.00,VWS V14.01,2013-11-28 01:28:00,
2013-11-27 20:29:00,26.3,24.8,30.12,West,259,0.0,0.0,94,0.00,,---,0.00,VWS V14.01,2013-11-28 01:29:00,
2013-11-27 20:30:00,26.3,24.8,30.13,West,259,0.0,0.0,94,0.00,,---,0.00,VWS V14.01,2013-11-28 01:30:00,
2013-11-27 20:31:00,26.3,24.8,30.13,West,259,0.0,0.0,94,0.00,,---,0.00,VWS V14.01,2013-11-28 01:31:00,
2013-11-27 20:32:00,26.3,24.8,30.13,West,259,0.0,0.0,94,0.00,,---,0.00,VWS V14.01,2013-11-28 01:32:00,
2013-11-27 20:33:00,26.3,24.8,30.13,West,259,0.0,0.0,94,0.00,,---,0.00,VWS V14.01,2013-11-28 01:33:00,
2013-11-27 20:34:00,26.3,24.8,30.13,West,259,0.0,0.0,94,0.00,,---,0.00,VWS V14.01,2013-11-28 01:34:00,
2013-11-27 20:35:00,26.3,24.8,30.13,West,259,0.0,0.0,94,0.00,,---,0.00,VWS V14.01,2013-11-28 01:35:00,
2013-11-27 20:36:00,26.3,24.8,30.13,West,260,1.0,1.0,94,0.00,,---,0.00,VWS V14.01,2013-11-28 01:36:00,
2013-11-27 20:37:00,26.3,24.8,30.13,West,261,0.0,1.0,94,0.00,,---,0.00,VWS V14.01,2013-11-28 01:37:00,
2013-11-27 20:38:00,26.2,24.7,30.13,West,261,0.0,1.0,94,0.00,,---,0.00,VWS V14.01,2013-11-28 01:38:00,
2013-11-27 20:39:00,26.3,24.8,30.13,West,259,0.0,1.0,94,0.00,,---,0.00,VWS V14.01,2013-11-28 01:39:00,
2013-11-27 20:40:00,26.2,24.7,30.13,West,259,0.0,1.0,94,0.00,,---,0.00,VWS V14.01,2013-11-28 01:40:00,
2013-11-27 20:41:00,26.2,24.7,30.13,West,259,0.0,0.0,94,0.00,,---,0.00,VWS V14.01,2013-11-28 01:41:00,
2013-11-27 20:42:00,26.2,24.7,30.13,West,259,0.0,0.0,94,0.00,,---,0.00,VWS V14.01,2013-11-28 01:42:00,
2013-11-27 20:43:00,26.2,24.7,30.13,West,259,0.0,0.0,94,0.00,,---,0.00,VWS V14.01,2013-11-28 01:43:00,
2013-11-27 20:44:00,26.2,24.7,30.13,West,259,0.0,0.0,94,0.00,,---,0.00,VWS V14.01,2013-11-28 01:44:00,
2013-11-27 20:45:00,26.2,24.7,30.13,West,259,0.0,0.0,94,0.00,,---,0.00,VWS V14.01,2013-11-28 01:45:00,
2013-11-27 20:46:00,26.2,24.7,30.13,West,259,0.0,0.0,94,0.00,,---,0.00,VWS V14.01,2013-11-28 01:46:00,
2013-11-27 20:47:00,26.2,24.7,30.13,West,259,0.0,0.0,94,0.00,,---,0.00,VWS V14.01,2013-11-28 01:47:00,
2013-11-27 20:48:00,26.2,24.7,30.13,West,259,0.0,0.0,94,0.00,,---,0.00,VWS V14.01,2013-11-28 01:48:00,
2013-11-27 20:49:00,26.2,24.7,30.13,West,259,0.0,0.0,94,0.00,,---,0.00,VWS V14.01,2013-11-28 01:49:00,
2013-11-27 20:50:00,26.2,24.7,30.13,West,259,0.0,0.0,94,0.00,,---,0.00,VWS V14.01,2013-11-28 01:50:00,
2013-11-27 20:51:00,26.2,24.7,30.13,West,259,0.0,0.0,94,0.00,,---,0.00,VWS V14.01,2013-11-28 01:51:00,
2013-11-27 20:52:00,26.2,24.7,30.13,West,259,0.0,0.0,94,0.00,,---,0.00,VWS V14.01,2013-11-28 01:52:00,
2013-11-27 20:53:00,26.1,24.6,30.13,West,259,0.0,0.0,94,0.00,,---,0.00,VWS V14.01,2013-11-28 01:53:00,
2013-11-27 20:54:00,26.1,24.6,30.13,West,259,0.0,0.0,94,0.00,,---,0.00,VWS V14.01,2013-11-28 01:54:00,
2013-11-27 20:55:00,26.1,24.6,30.13,West,259,0.0,0.0,94,0.00,,---,0.00,VWS V14.01,2013-11-28 01:55:00,
2013-11-27 20:56:00,26.1,24.4,30.13,West,259,0.0,0.0,93,0.00,,---,0.00,VWS V14.01,2013-11-28 01:56:00,
2013-11-27 20:57:00,26.1,24.4,30.13,West,259,0.0,0.0,93,0.00,,---,0.00,VWS V14.01,2013-11-28 01:57:00,
2013-11-27 20:58:00,26.1,24.4,30.13,West,259,0.0,0.0,93,0.00,,---,0.00,VWS V14.01,2013-11-28 01:58:00,
2013-11-27 20:59:00,26.1,24.4,30.13,West,259,0.0,0.0,93,0.00,,---,0.00,VWS V14.01,2013-11-28 01:59:00,
2013-11-27 21:00:00,26.1,24.4,30.13,West,259,0.0,0.0,93,0.00,,---,0.00,VWS V14.01,2013-11-28 02:00:00,
2013-11-27 21:01:00,26.0,24.3,30.13,West,259,0.0,0.0,93,0.00,,---,0.00,VWS V14.01,2013-11-28 02:01:00,
2013-11-27 21:02:00,26.0,24.3,30.13,West,259,0.0,0.0,93,0.00,,---,0.00,VWS V14.01,2013-11-28 02:02:00,
2013-11-27 21:03:00,26.0,24.3,30.13,West,259,0.0,0.0,93,0.00,,---,0.00,VWS V14.01,2013-11-28 02:03:00,
2013-11-27 21:04:00,26.0,24.3,30.13,West,259,0.0,0.0,93,0.00,,---,0.00,VWS V14.01,2013-11-28 02:04:00,
2013-11-27 21:05:00,26.0,24.3,30.13,West,259,0.0,0.0,93,0.00,,---,0.00,VWS V14.01,2013-11-28 02:05:00,
2013-11-27 21:06:00,26.0,24.3,30.13,West,259,0.0,0.0,93,0.00,,---,0.00,VWS V14.01,2013-11-28 02:06:00,
2013-11-27 21:07:00,26.0,24.3,30.13,West,259,0.0,0.0,93,0.00,,---,0.00,VWS V14.01,2013-11-28 02:07:00,
2013-11-27 21:08:00,26.0,24.3,30.13,West,259,0.0,0.0,93,0.00,,---,0.00,VWS V14.01,2013-11-28 02:08:00,
2013-11-27 21:09:00,26.0,24.3,30.13,West,259,0.0,0.0,93,0.00,,---,0.00,VWS V14.01,2013-11-28 02:09:00,
2013-11-27 21:10:00,25.9,24.2,30.13,West,259,0.0,0.0,93,0.00,,---,0.00,VWS V14.01,2013-11-28 02:10:00,
2013-11-27 21:11:00,25.9,24.2,30.13,West,259,0.0,0.0,93,0.00,,---,0.00,VWS V14.01,2013-11-28 02:11:00,
2013-11-27 21:12:00,25.9,24.2,30.13,West,259,0.0,1.0,93,0.00,,---,0.00,VWS V14.01,2013-11-28 02:12:00,
2013-11-27 21:13:00,25.9,23.9,30.13,West,259,0.0,1.0,92,0.00,,---,0.00,VWS V14.01,2013-11-28 02:13:00,
2013-11-27 21:14:00,25.8,23.8,30.13,West,259,0.0,1.0,92,0.00,,---,0.00,VWS V14.01,2013-11-28 02:14:00,
2013-11-27 21:15:00,25.8,24.1,30.14,West,259,0.0,1.0,93,0.00,,---,0.00,VWS V14.01,2013-11-28 02:15:00,
2013-11-27 21:16:00,25.8,23.8,30.14,West,259,0.0,0.0,92,0.00,,---,0.00,VWS V14.01,2013-11-28 02:16:00,
2013-11-27 21:17:00,25.8,23.8,30.14,West,259,0.0,1.0,92,0.00,,---,0.00,VWS V14.01,2013-11-28 02:17:00,
2013-11-27 21:18:00,25.8,23.8,30.14,West,259,0.0,1.0,92,0.00,,---,0.00,VWS V14.01,2013-11-28 02:18:00,
2013-11-27 21:19:00,25.8,23.8,30.14,West,259,0.0,1.0,92,0.00,,---,0.00,VWS V14.01,2013-11-28 02:19:00,
2013-11-27 21:20:00,25.7,23.7,30.14,West,259,0.0,1.0,92,0.00,,---,0.00,VWS V14.01,2013-11-28 02:20:00,
2013-11-27 21:21:00,25.7,23.7,30.14,West,259,0.0,0.0,92,0.00,,---,0.00,VWS V14.01,2013-11-28 02:21:00,
2013-11-27 21:22:00,25.7,23.7,30.14,West,259,0.0,0.0,92,0.00,,---,0.00,VWS V14.01,2013-11-28 02:22:00,
2013-11-27 21:23:00,25.7,23.7,30.14,West,259,0.0,0.0,92,0.00,,---,0.00,VWS V14.01,2013-11-28 02:23:00,
2013-11-27 21:24:00,25.6,23.6,30.14,West,259,0.0,0.0,92,0.00,,---,0.00,VWS V14.01,2013-11-28 02:24:00,
2013-11-27 21:25:00,25.6,23.6,30.14,West,259,0.0,0.0,92,0.00,,---,0.00,VWS V14.01,2013-11-28 02:25:00,
2013-11-27 21:26:00,25.6,23.6,30.14,West,259,0.0,0.0,92,0.00,,---,0.00,VWS V14.01,2013-11-28 02:26:00,
2013-11-27 21:27:00,25.6,23.3,30.14,West,259,0.0,0.0,91,0.00,,---,0.00,VWS V14.01,2013-11-28 02:27:00,
2013-11-27 21:28:00,25.6,23.3,30.14,West,259,0.0,0.0,91,0.00,,---,0.00,VWS V14.01,2013-11-28 02:28:00,
2013-11-27 21:29:00,25.6,23.6,30.14,West,259,0.0,0.0,92,0.00,,---,0.00,VWS V14.01,2013-11-28 02:29:00,
2013-11-27 21:30:00,25.6,23.6,30.14,West,259,0.0,0.0,92,0.00,,---,0.00,VWS V14.01,2013-11-28 02:30:00,
2013-11-27 21:31:00,25.6,23.3,30.14,West,259,0.0,0.0,91,0.00,,---,0.00,VWS V14.01,2013-11-28 02:31:00,
2013-11-27 21:32:00,25.6,23.6,30.14,West,259,0.0,0.0,92,0.00,,---,0.00,VWS V14.01,2013-11-28 02:32:00,
2013-11-27 21:33:00,25.6,23.3,30.14,West,259,0.0,0.0,91,0.00,,---,0.00,VWS V14.01,2013-11-28 02:33:00,
2013-11-27 21:34:00,25.6,23.3,30.14,West,259,0.0,0.0,91,0.00,,---,0.00,VWS V14.01,2013-11-28 02:34:00,
2013-11-27 21:35:00,25.6,23.3,30.14,West,259,0.0,0.0,91,0.00,,---,0.00,VWS V14.01,2013-11-28 02:35:00,
2013-11-27 21:36:00,25.6,23.6,30.14,West,259,0.0,0.0,92,0.00,,---,0.00,VWS V14.01,2013-11-28 02:36:00,
2013-11-27 21:37:00,25.6,23.3,30.14,West,259,0.0,0.0,91,0.00,,---,0.00,VWS V14.01,2013-11-28 02:37:00,
2013-11-27 21:38:00,25.6,23.3,30.14,West,259,0.0,0.0,91,0.00,,---,0.00,VWS V14.01,2013-11-28 02:38:00,
2013-11-27 21:39:00,25.6,23.3,30.14,West,259,0.0,0.0,91,0.00,,---,0.00,VWS V14.01,2013-11-28 02:39:00,
2013-11-27 21:40:00,25.6,23.3,30.14,West,259,0.0,0.0,91,0.00,,---,0.00,VWS V14.01,2013-11-28 02:40:00,
2013-11-27 21:41:00,25.6,23.3,30.14,West,259,0.0,0.0,91,0.00,,---,0.00,VWS V14.01,2013-11-28 02:41:00,
2013-11-27 21:42:00,25.6,23.3,30.14,West,259,0.0,0.0,91,0.00,,---,0.00,VWS V14.01,2013-11-28 02:42:00,
2013-11-27 21:43:00,25.6,23.3,30.14,West,259,0.0,0.0,91,0.00,,---,0.00,VWS V14.01,2013-11-28 02:43:00,
2013-11-27 21:44:00,25.6,23.3,30.14,West,259,0.0,0.0,91,0.00,,---,0.00,VWS V14.01,2013-11-28 02:44:00,
2013-11-27 21:45:00,25.5,23.2,30.15,West,259,0.0,0.0,91,0.00,,---,0.00,VWS V14.01,2013-11-28 02:45:00,
2013-11-27 21:46:00,25.5,23.2,30.15,West,259,0.0,0.0,91,0.00,,---,0.00,VWS V14.01,2013-11-28 02:46:00,
2013-11-27 21:47:00,25.5,23.2,30.15,West,259,0.0,0.0,91,0.00,,---,0.00,VWS V14.01,2013-11-28 02:47:00,
2013-11-27 21:48:00,25.5,23.2,30.15,West,259,0.0,0.0,91,0.00,,---,0.00,VWS V14.01,2013-11-28 02:48:00,
2013-11-27 21:49:00,25.5,23.2,30.15,West,259,0.0,0.0,91,0.00,,---,0.00,VWS V14.01,2013-11-28 02:49:00,
2013-11-27 21:50:00,25.5,23.2,30.15,West,259,0.0,0.0,91,0.00,,---,0.00,VWS V14.01,2013-11-28 02:50:00,
2013-11-27 21:51:00,25.5,23.2,30.15,West,259,0.0,0.0,91,0.00,,---,0.00,VWS V14.01,2013-11-28 02:51:00,
2013-11-27 21:52:00,25.5,23.2,30.15,West,259,0.0,0.0,91,0.00,,---,0.00,VWS V14.01,2013-11-28 02:52:00,
2013-11-27 21:53:00,25.5,23.2,30.15,West,259,0.0,0.0,91,0.00,,---,0.00,VWS V14.01,2013-11-28 02:53:00,
2013-11-27 21:54:00,25.5,23.2,30.15,West,259,0.0,0.0,91,0.00,,---,0.00,VWS V14.01,2013-11-28 02:54:00,
2013-11-27 21:55:00,25.4,23.1,30.15,West,259,0.0,0.0,91,0.00,,---,0.00,VWS V14.01,2013-11-28 02:55:00,
2013-11-27 21:56:00,25.4,23.1,30.15,West,259,0.0,0.0,91,0.00,,---,0.00,VWS V14.01,2013-11-28 02:56:00,
2013-11-27 21:57:00,25.4,23.1,30.15,West,259,0.0,0.0,91,0.00,,---,0.00,VWS V14.01,2013-11-28 02:57:00,
2013-11-27 21:58:00,25.4,23.1,30.15,West,259,0.0,1.0,91,0.00,,---,0.00,VWS V14.01,2013-11-28 02:58:00,
2013-11-27 21:59:00,25.4,23.1,30.15,West,259,0.0,1.0,91,0.00,,---,0.00,VWS V14.01,2013-11-28 02:59:00,
2013-11-27 22:00:00,25.4,23.1,30.15,West,259,0.0,1.0,91,0.00,,---,0.00,VWS V14.01,2013-11-28 03:00:00,
2013-11-27 22:01:00,25.4,23.1,30.15,West,259,0.0,0.0,91,0.00,,---,0.00,VWS V14.01,2013-11-28 03:01:00,
2013-11-27 22:02:00,25.4,23.1,30.15,West,259,0.0,0.0,91,0.00,,---,0.00,VWS V14.01,2013-11-28 03:02:00,
2013-11-27 22:03:00,25.4,23.1,30.15,West,259,0.0,0.0,91,0.00,,---,0.00,VWS V14.01,2013-11-28 03:03:00,
2013-11-27 22:04:00,25.4,23.1,30.15,West,259,0.0,0.0,91,0.00,,---,0.00,VWS V14.01,2013-11-28 03:04:00,
2013-11-27 22:05:00,25.4,23.1,30.15,West,259,0.0,0.0,91,0.00,,---,0.00,VWS V14.01,2013-11-28 03:05:00,
2013-11-27 22:06:00,25.3,23.0,30.15,West,259,0.0,0.0,91,0.00,,---,0.00,VWS V14.01,2013-11-28 03:06:00,
2013-11-27 22:07:00,25.4,23.1,30.15,West,259,0.0,0.0,91,0.00,,---,0.00,VWS V14.01,2013-11-28 03:07:00,
2013-11-27 22:08:00,25.3,23.0,30.15,West,259,0.0,0.0,91,0.00,,---,0.00,VWS V14.01,2013-11-28 03:08:00,
2013-11-27 22:09:00,25.3,23.0,30.15,West,259,0.0,0.0,91,0.00,,---,0.00,VWS V14.01,2013-11-28 03:09:00,
2013-11-27 22:10:00,25.3,23.0,30.15,West,259,0.0,0.0,91,0.00,,---,0.00,VWS V14.01,2013-11-28 03:10:00,
2013-11-27 22:11:00,25.3,23.0,30.15,West,259,0.0,0.0,91,0.00,,---,0.00,VWS V14.01,2013-11-28 03:11:00,
2013-11-27 22:12:00,25.3,23.0,30.15,West,259,0.0,0.0,91,0.00,,---,0.00,VWS V14.01,2013-11-28 03:12:00,
2013-11-27 22:13:00,25.3,23.0,30.15,West,259,0.0,0.0,91,0.00,,---,0.00,VWS V14.01,2013-11-28 03:13:00,
2013-11-27 22:14:00,25.3,23.0,30.15,West,259,0.0,0.0,91,0.00,,---,0.00,VWS V14.01,2013-11-28 03:14:00,
2013-11-27 22:15:00,25.3,23.0,30.15,West,259,0.0,0.0,91,0.00,,---,0.00,VWS V14.01,2013-11-28 03:15:00,
2013-11-27 22:16:00,25.3,23.0,30.15,West,259,0.0,0.0,91,0.00,,---,0.00,VWS V14.01,2013-11-28 03:16:00,
2013-11-27 22:17:00,25.3,23.0,30.15,West,259,0.0,0.0,91,0.00,,---,0.00,VWS V14.01,2013-11-28 03:17:00,
2013-11-27 22:18:00,25.3,23.0,30.15,West,259,0.0,0.0,91,0.00,,---,0.00,VWS V14.01,2013-11-28 03:18:00,
2013-11-27 22:19:00,25.2,23.0,30.15,West,259,0.0,0.0,91,0.00,,---,0.00,VWS V14.01,2013-11-28 03:19:00,
2013-11-27 22:20:00,25.2,23.0,30.15,West,259,0.0,0.0,91,0.00,,---,0.00,VWS V14.01,2013-11-28 03:20:00,
2013-11-27 22:21:00,25.2,23.0,30.15,West,259,0.0,0.0,91,0.00,,---,0.00,VWS V14.01,2013-11-28 03:21:00,
2013-11-27 22:22:00,25.2,23.0,30.15,West,259,0.0,0.0,91,0.00,,---,0.00,VWS V14.01,2013-11-28 03:22:00,
2013-11-27 22:23:00,25.2,23.0,30.15,West,259,0.0,0.0,91,0.00,,---,0.00,VWS V14.01,2013-11-28 03:23:00,
2013-11-27 22:24:00,25.2,23.0,30.15,West,259,0.0,0.0,91,0.00,,---,0.00,VWS V14.01,2013-11-28 03:24:00,
2013-11-27 22:25:00,25.2,23.0,30.15,West,259,0.0,0.0,91,0.00,,---,0.00,VWS V14.01,2013-11-28 03:25:00,
2013-11-27 22:26:00,25.2,23.0,30.15,West,259,0.0,0.0,91,0.00,,---,0.00,VWS V14.01,2013-11-28 03:26:00,
2013-11-27 22:27:00,25.2,23.0,30.15,West,259,0.0,0.0,91,0.00,,---,0.00,VWS V14.01,2013-11-28 03:27:00,
2013-11-27 22:28:00,25.2,23.0,30.15,West,259,0.0,0.0,91,0.00,,---,0.00,VWS V14.01,2013-11-28 03:28:00,
2013-11-27 22:29:00,25.2,23.0,30.15,West,259,0.0,0.0,91,0.00,,---,0.00,VWS V14.01,2013-11-28 03:29:00,
2013-11-27 22:30:00,25.2,23.0,30.15,West,259,0.0,0.0,91,0.00,,---,0.00,VWS V14.01,2013-11-28 03:30:00,
2013-11-27 22:31:00,25.2,23.0,30.15,West,259,0.0,0.0,91,0.00,,---,0.00,VWS V14.01,2013-11-28 03:31:00,
2013-11-27 22:32:00,25.2,23.0,30.15,West,259,0.0,0.0,91,0.00,,---,0.00,VWS V14.01,2013-11-28 03:32:00,
2013-11-27 22:33:00,25.2,23.0,30.15,West,259,0.0,0.0,91,0.00,,---,0.00,VWS V14.01,2013-11-28 03:33:00,
2013-11-27 22:34:00,25.2,23.0,30.15,West,259,0.0,0.0,91,0.00,,---,0.00,VWS V14.01,2013-11-28 03:34:00,
2013-11-27 22:35:00,25.2,23.0,30.15,West,259,0.0,0.0,91,0.00,,---,0.00,VWS V14.01,2013-11-28 03:35:00,
2013-11-27 22:36:00,25.1,22.9,30.15,West,259,0.0,0.0,91,0.00,,---,0.00,VWS V14.01,2013-11-28 03:36:00,
2013-11-27 22:37:00,25.1,22.9,30.15,West,259,0.0,0.0,91,0.00,,---,0.00,VWS V14.01,2013-11-28 03:37:00,
2013-11-27 22:38:00,25.1,22.9,30.15,West,259,0.0,0.0,91,0.00,,---,0.00,VWS V14.01,2013-11-28 03:38:00,
2013-11-27 22:39:00,25.1,22.9,30.15,West,259,0.0,0.0,91,0.00,,---,0.00,VWS V14.01,2013-11-28 03:39:00,
2013-11-27 22:40:00,25.1,22.9,30.15,West,259,0.0,0.0,91,0.00,,---,0.00,VWS V14.01,2013-11-28 03:40:00,
2013-11-27 22:41:00,25.1,22.9,30.15,West,259,0.0,0.0,91,0.00,,---,0.00,VWS V14.01,2013-11-28 03:41:00,
2013-11-27 22:42:00,25.1,22.9,30.15,West,259,0.0,0.0,91,0.00,,---,0.00,VWS V14.01,2013-11-28 03:42:00,
2013-11-27 22:43:00,25.1,22.9,30.15,West,259,0.0,0.0,91,0.00,,---,0.00,VWS V14.01,2013-11-28 03:43:00,
2013-11-27 22:44:00,25.1,22.9,30.15,West,259,0.0,0.0,91,0.00,,---,0.00,VWS V14.01,2013-11-28 03:44:00,
2013-11-27 22:45:00,25.1,22.9,30.15,West,259,0.0,0.0,91,0.00,,---,0.00,VWS V14.01,2013-11-28 03:45:00,
2013-11-27 22:46:00,25.1,22.9,30.15,West,259,0.0,0.0,91,0.00,,---,0.00,VWS V14.01,2013-11-28 03:46:00,
2013-11-27 22:47:00,25.1,22.9,30.15,West,259,0.0,0.0,91,0.00,,---,0.00,VWS V14.01,2013-11-28 03:47:00,
2013-11-27 22:48:00,25.1,22.9,30.15,West,259,0.0,0.0,91,0.00,,---,0.00,VWS V14.01,2013-11-28 03:48:00,
2013-11-27 22:49:00,25.1,22.9,30.15,West,259,0.0,0.0,91,0.00,,---,0.00,VWS V14.01,2013-11-28 03:49:00,
2013-11-27 22:50:00,25.1,22.9,30.15,West,259,0.0,0.0,91,0.00,,---,0.00,VWS V14.01,2013-11-28 03:50:00,
2013-11-27 22:51:00,25.0,22.8,30.15,West,259,0.0,0.0,91,0.00,,---,0.00,VWS V14.01,2013-11-28 03:51:00,
2013-11-27 22:52:00,25.0,22.8,30.15,West,259,0.0,0.0,91,0.00,,---,0.00,VWS V14.01,2013-11-28 03:52:00,
2013-11-27 22:53:00,25.0,22.8,30.15,West,259,0.0,0.0,91,0.00,,---,0.00,VWS V14.01,2013-11-28 03:53:00,
2013-11-27 22:54:00,25.0,22.8,30.15,West,259,0.0,0.0,91,0.00,,---,0.00,VWS V14.01,2013-11-28 03:54:00,
2013-11-27 22:55:00,25.0,22.8,30.15,West,259,0.0,0.0,91,0.00,,---,0.00,VWS V14.01,2013-11-28 03:55:00,
2013-11-27 22:56:00,25.0,22.8,30.15,West,259,0.0,0.0,91,0.00,,---,0.00,VWS V14.01,2013-11-28 03:56:00,
2013-11-27 22:57:00,25.0,22.8,30.15,West,259,0.0,0.0,91,0.00,,---,0.00,VWS V14.01,2013-11-28 03:57:00,
2013-11-27 22:58:00,25.0,22.8,30.15,West,259,0.0,0.0,91,0.00,,---,0.00,VWS V14.01,2013-11-28 03:58:00,
2013-11-27 22:59:00,25.0,22.8,30.15,West,259,0.0,0.0,91,0.00,,---,0.00,VWS V14.01,2013-11-28 03:59:00,
2013-11-27 23:00:00,25.0,22.8,30.15,West,259,0.0,0.0,91,0.00,,---,0.00,VWS V14.01,2013-11-28 04:00:00,
2013-11-27 23:01:00,25.0,22.8,30.15,West,259,0.0,0.0,91,0.00,,---,0.00,VWS V14.01,2013-11-28 04:01:00,
2013-11-27 23:02:00,25.0,22.8,30.15,West,259,0.0,0.0,91,0.00,,---,0.00,VWS V14.01,2013-11-28 04:02:00,
2013-11-27 23:03:00,24.9,22.6,30.15,West,259,0.0,0.0,91,0.00,,---,0.00,VWS V14.01,2013-11-28 04:03:00,
2013-11-27 23:04:00,24.9,22.6,30.15,West,259,0.0,0.0,91,0.00,,---,0.00,VWS V14.01,2013-11-28 04:04:00,
2013-11-27 23:05:00,24.9,22.6,30.15,West,259,0.0,0.0,91,0.00,,---,0.00,VWS V14.01,2013-11-28 04:05:00,
2013-11-27 23:06:00,24.9,22.6,30.15,West,259,0.0,0.0,91,0.00,,---,0.00,VWS V14.01,2013-11-28 04:06:00,
2013-11-27 23:07:00,24.9,22.9,30.15,West,259,0.0,0.0,92,0.00,,---,0.00,VWS V14.01,2013-11-28 04:07:00,
2013-11-27 23:08:00,24.9,22.9,30.15,West,259,0.0,0.0,92,0.00,,---,0.00,VWS V14.01,2013-11-28 04:08:00,
2013-11-27 23:09:00,24.9,22.9,30.15,West,259,0.0,0.0,92,0.00,,---,0.00,VWS V14.01,2013-11-28 04:09:00,
2013-11-27 23:10:00,24.9,22.9,30.15,West,259,0.0,0.0,92,0.00,,---,0.00,VWS V14.01,2013-11-28 04:10:00,
2013-11-27 23:11:00,24.9,22.9,30.15,West,259,0.0,0.0,92,0.00,,---,0.00,VWS V14.01,2013-11-28 04:11:00,
2013-11-27 23:12:00,24.9,22.9,30.15,West,259,0.0,0.0,92,0.00,,---,0.00,VWS V14.01,2013-11-28 04:12:00,
2013-11-27 23:13:00,24.9,22.9,30.15,West,259,0.0,0.0,92,0.00,,---,0.00,VWS V14.01,2013-11-28 04:13:00,
2013-11-27 23:14:00,24.9,22.9,30.15,West,259,0.0,0.0,92,0.00,,---,0.00,VWS V14.01,2013-11-28 04:14:00,
2013-11-27 23:15:00,24.9,22.9,30.15,West,259,0.0,0.0,92,0.00,,---,0.00,VWS V14.01,2013-11-28 04:15:00,
2013-11-27 23:16:00,24.9,22.9,30.15,West,259,0.0,0.0,92,0.00,,---,0.00,VWS V14.01,2013-11-28 04:16:00,
2013-11-27 23:17:00,24.9,22.9,30.15,West,259,0.0,0.0,92,0.00,,---,0.00,VWS V14.01,2013-11-28 04:17:00,
2013-11-27 23:18:00,24.9,22.9,30.15,West,259,0.0,0.0,92,0.00,,---,0.00,VWS V14.01,2013-11-28 04:18:00,
2013-11-27 23:19:00,24.8,22.8,30.15,West,259,0.0,0.0,92,0.00,,---,0.00,VWS V14.01,2013-11-28 04:19:00,
2013-11-27 23:20:00,24.8,22.8,30.15,West,259,0.0,0.0,92,0.00,,---,0.00,VWS V14.01,2013-11-28 04:20:00,
2013-11-27 23:21:00,24.8,22.8,30.15,West,259,0.0,0.0,92,0.00,,---,0.00,VWS V14.01,2013-11-28 04:21:00,
2013-11-27 23:22:00,24.8,22.8,30.15,West,259,0.0,0.0,92,0.00,,---,0.00,VWS V14.01,2013-11-28 04:22:00,
2013-11-27 23:23:00,24.8,22.8,30.15,West,259,0.0,0.0,92,0.00,,---,0.00,VWS V14.01,2013-11-28 04:23:00,
2013-11-27 23:24:00,24.8,22.8,30.15,West,259,0.0,0.0,92,0.00,,---,0.00,VWS V14.01,2013-11-28 04:24:00,
2013-11-27 23:25:00,24.8,22.8,30.15,West,259,0.0,0.0,92,0.00,,---,0.00,VWS V14.01,2013-11-28 04:25:00,
2013-11-27 23:26:00,24.8,22.8,30.15,West,259,0.0,0.0,92,0.00,,---,0.00,VWS V14.01,2013-11-28 04:26:00,
2013-11-27 23:27:00,24.8,22.8,30.15,West,259,0.0,0.0,92,0.00,,---,0.00,VWS V14.01,2013-11-28 04:27:00,
2013-11-27 23:28:00,24.8,22.8,30.15,West,259,0.0,0.0,92,0.00,,---,0.00,VWS V14.01,2013-11-28 04:28:00,
2013-11-27 23:29:00,24.8,22.8,30.15,West,259,0.0,0.0,92,0.00,,---,0.00,VWS V14.01,2013-11-28 04:29:00,
2013-11-27 23:30:00,24.8,22.8,30.16,West,259,0.0,0.0,92,0.00,,---,0.00,VWS V14.01,2013-11-28 04:30:00,
2013-11-27 23:31:00,24.8,22.8,30.16,West,259,0.0,0.0,92,0.00,,---,0.00,VWS V14.01,2013-11-28 04:31:00,
2013-11-27 23:32:00,24.8,22.8,30.16,West,259,0.0,0.0,92,0.00,,---,0.00,VWS V14.01,2013-11-28 04:32:00,
2013-11-27 23:33:00,24.8,22.8,30.16,West,259,0.0,0.0,92,0.00,,---,0.00,VWS V14.01,2013-11-28 04:33:00,
2013-11-27 23:34:00,24.8,22.8,30.16,West,259,0.0,0.0,92,0.00,,---,0.00,VWS V14.01,2013-11-28 04:34:00,
2013-11-27 23:35:00,24.8,22.8,30.16,West,259,0.0,0.0,92,0.00,,---,0.00,VWS V14.01,2013-11-28 04:35:00,
2013-11-27 23:36:00,24.8,22.8,30.16,West,259,0.0,0.0,92,0.00,,---,0.00,VWS V14.01,2013-11-28 04:36:00,
2013-11-27 23:37:00,24.8,22.8,30.16,West,259,0.0,0.0,92,0.00,,---,0.00,VWS V14.01,2013-11-28 04:37:00,
2013-11-27 23:38:00,24.8,22.8,30.16,West,259,0.0,0.0,92,0.00,,---,0.00,VWS V14.01,2013-11-28 04:38:00,
2013-11-27 23:39:00,24.7,22.7,30.16,West,259,0.0,0.0,92,0.00,,---,0.00,VWS V14.01,2013-11-28 04:39:00,
2013-11-27 23:40:00,24.7,22.7,30.16,West,259,0.0,0.0,92,0.00,,---,0.00,VWS V14.01,2013-11-28 04:40:00,
2013-11-27 23:41:00,24.7,22.7,30.16,West,259,0.0,0.0,92,0.00,,---,0.00,VWS V14.01,2013-11-28 04:41:00,
2013-11-27 23:42:00,24.7,22.7,30.16,West,259,0.0,0.0,92,0.00,,---,0.00,VWS V14.01,2013-11-28 04:42:00,
2013-11-27 23:43:00,24.7,22.7,30.16,West,259,0.0,0.0,92,0.00,,---,0.00,VWS V14.01,2013-11-28 04:43:00,
2013-11-27 23:44:00,24.7,22.7,30.16,West,259,0.0,0.0,92,0.00,,---,0.00,VWS V14.01,2013-11-28 04:44:00,
2013-11-27 23:45:00,24.7,22.7,30.16,West,259,0.0,0.0,92,0.00,,---,0.00,VWS V14.01,2013-11-28 04:45:00,
2013-11-27 23:46:00,24.7,22.7,30.16,West,259,0.0,0.0,92,0.00,,---,0.00,VWS V14.01,2013-11-28 04:46:00,
2013-11-27 23:47:00,24.7,22.7,30.16,West,259,0.0,0.0,92,0.00,,---,0.00,VWS V14.01,2013-11-28 04:47:00,
2013-11-27 23:48:00,24.7,22.7,30.16,West,259,0.0,0.0,92,0.00,,---,0.00,VWS V14.01,2013-11-28 04:48:00,
2013-11-27 23:49:00,24.7,22.7,30.16,West,259,0.0,0.0,92,0.00,,---,0.00,VWS V14.01,2013-11-28 04:49:00,
2013-11-27 23:50:00,24.7,22.7,30.16,West,259,0.0,0.0,92,0.00,,---,0.00,VWS V14.01,2013-11-28 04:50:00,
2013-11-27 23:51:00,24.7,22.7,30.16,West,259,0.0,0.0,92,0.00,,---,0.00,VWS V14.01,2013-11-28 04:51:00,
2013-11-27 23:52:00,24.7,22.7,30.16,West,259,0.0,0.0,92,0.00,,---,0.00,VWS V14.01,2013-11-28 04:52:00,
2013-11-27 23:53:00,24.7,22.7,30.16,West,259,0.0,0.0,92,0.00,,---,0.00,VWS V14.01,2013-11-28 04:53:00,
2013-11-27 23:54:00,24.7,22.7,30.16,West,259,0.0,0.0,92,0.00,,---,0.00,VWS V14.01,2013-11-28 04:54:00,
2013-11-27 23:55:00,24.7,22.7,30.16,West,259,0.0,0.0,92,0.00,,---,0.00,VWS V14.01,2013-11-28 04:55:00,
2013-11-27 23:56:00,24.6,22.6,30.16,West,259,0.0,0.0,92,0.00,,---,0.00,VWS V14.01,2013-11-28 04:56:00,
2013-11-27 23:57:00,24.7,22.7,30.16,West,259,0.0,0.0,92,0.00,,---,0.00,VWS V14.01,2013-11-28 04:57:00,
2013-11-27 23:58:00,24.7,22.7,30.16,West,259,0.0,0.0,92,0.00,,---,0.00,VWS V14.01,2013-11-28 04:58:00,
2013-11-27 23:59:00,24.6,22.6,30.16,West,259,0.0,0.0,92,0.00,,---,0.00,VWS V14.01,2013-11-28 04:59:00,